GFSSE_925_spd_000.txt.gz
Wind_Speed
16 17 13 13 13 13 12 12 11 10 10 11 10 10 9 9 10 10 10 10 10 11 11 12 14 15 16 13 11 10 6 5 7 6 4 3 4 1 3 5 9 6 7
20 15 14 13 12 12 12 12 12 11 9 9 8 9 8 7 8 8 8 10 11 13 14 15 15 14 12 10 13 11 9 7 7 8 8 6 5 5 2 4 10 9 7
19 17 14 15 13 12 11 11 11 11 10 9 8 7 6 6 6 7 10 12 13 13 13 13 13 14 13 9 12 12 12 10 9 10 11 10 9 6 4 2 5 8 5
23 19 15 15 13 12 11 11 11 10 9 8 7 6 6 4 6 7 10 11 12 12 12 10 10 9 10 10 11 12 12 12 12 12 13 11 4 6 8 5 1 4 7
23 17 16 15 12 11 10 10 9 10 9 8 7 6 5 6 6 8 9 10 10 11 12 12 11 11 10 10 10 10 11 12 15 18 16 15 12 4 13 8 4 2 8
20 19 16 16 14 11 10 10 9 8 7 6 6 5 6 5 6 7 9 9 9 11 11 11 11 11 11 11 11 10 10 12 15 16 15 19 5 4 14 11 8 4 3
17 15 15 14 13 10 8 7 6 6 6 6 6 5 6 6 6 7 7 8 9 10 10 11 10 10 10 10 10 11 11 11 12 13 13 15 3 5 14 13 8 8 6
19 12 13 12 11 9 8 6 6 6 7 7 7 6 5 5 7 7 7 7 9 10 10 9 9 9 9 9 10 11 12 12 13 11 13 8 6 3 13 16 9 8 8
16 15 12 10 10 8 7 7 7 6 5 6 5 6 6 6 9 8 6 9 10 9 9 10 10 9 9 9 9 10 12 11 12 7 7 7 3 3 6 10 9 9 10
15 14 14 8 8 7 9 8 6 6 6 8 7 9 7 6 9 8 8 12 13 11 12 11 12 12 10 7 8 11 14 9 6 11 8 11 11 9 6 9 8 9 12
14 11 13 12 10 9 8 8 9 9 8 9 6 9 5 6 5 3 10 10 10 11 14 9 11 14 10 8 11 10 11 8 13 12 8 7 10 9 9 7 10 11 12
14 11 11 11 8 6 9 7 6 6 7 6 4 4 6 5 2 6 9 9 9 11 12 8 14 12 9 12 13 13 13 13 15 12 12 14 11 12 12 10 11 12 12
15 13 15 10 8 3 8 5 7 8 5 3 4 2 3 5 4 9 12 11 12 13 7 14 13 13 10 18 12 13 14 14 13 15 12 14 14 14 13 13 14 14 13
17 18 17 13 9 5 4 3 4 4 5 2 3 2 3 5 5 7 7 10 10 12 12 10 11 12 15 12 14 13 14 14 14 15 12 16 16 13 14 13 14 15 16
18 22 19 17 13 8 7 4 2 3 4 2 2 1 2 3 5 6 8 10 11 11 11 10 13 14 13 15 16 13 13 15 17 17 14 16 16 15 15 14 15 16 17
19 22 24 20 15 11 6 7 4 4 2 2 1 3 4 4 6 7 10 12 13 13 12 15 18 18 16 15 14 17 17 16 18 17 17 17 19 18 17 17 15 15 15
16 18 22 17 16 12 9 6 3 6 2 0 1 1 2 4 7 9 10 12 13 15 14 18 19 18 20 20 19 18 19 22 22 19 20 20 21 21 20 20 18 15 15
14 8 4 31 18 12 11 8 4 4 1 4 5 2 5 2 7 9 12 16 17 19 19 20 22 23 22 21 22 21 22 23 24 25 23 24 23 24 23 22 21 20 18
16 5 13 24 14 12 12 6 3 1 3 7 8 6 6 7 8 9 14 18 20 22 23 24 25 25 22 21 23 24 26 24 27 26 26 28 28 26 26 26 25 24 22
4 1 5 12 10 9 13 2 3 4 4 4 8 7 11 13 10 13 17 19 20 21 21 22 23 25 27 28 27 26 28 32 32 29 29 30 30 31 33 27 29 28 25
9 2 12 18 10 6 5 4 8 10 11 10 10 10 13 13 13 17 21 19 20 22 21 22 25 27 27 26 28 25 26 28 28 30 34 35 34 35 37 40 31 32 30
16 23 17 16 10 9 7 9 8 8 5 8 11 16 15 19 22 25 21 18 16 18 21 23 24 27 28 28 25 23 11 21 24 25 30 32 37 35 38 41 35 31 29
20 19 20 17 14 12 10 10 9 8 9 10 13 17 21 28 25 19 17 18 18 16 19 23 24 23 20 25 23 19 10 11 17 23 27 30 31 29 20 19 32 37 34
19 19 16 12 10 8 8 3 3 1 3 8 10 20 21 13 16 15 18 19 20 17 19 22 20 22 21 21 19 15 20 20 4 8 13 22 25 24 21 24 23 23 36
13 12 8 6 5 2 1 1 2 9 14 15 11 12 14 12 17 19 18 19 19 21 22 24 20 21 15 12 12 15 17 23 21 6 8 13 29 28 24 21 15 13 11
10 7 5 5 2 5 6 4 10 9 9 12 13 12 16 17 18 18 20 21 18 18 20 21 14 15 14 10 10 10 10 5 12 10 8 13 12 19 28 20 18 16 7

GFSSE_925_spd_003.txt.gz
Wind_Speed
18 20 18 19 18 16 16 14 15 15 16 16 15 14 14 14 14 15 15 15 15 15 15 15 13 12 9 7 6 5 3 3 3 4 4 3 3 3 6 6 4 5 6
24 21 20 19 18 17 17 16 15 15 15 14 13 12 12 12 12 13 13 13 13 12 12 12 12 13 12 9 8 7 6 3 2 4 8 7 4 3 4 5 3 4 4
24 22 21 19 18 17 16 16 16 15 14 12 11 10 10 10 11 11 12 13 12 13 11 10 12 12 11 11 10 10 9 7 5 3 2 6 11 3 4 7 7 4 2
21 23 22 20 19 17 16 15 15 14 13 13 11 10 11 10 10 11 11 12 12 11 11 12 13 13 12 11 10 9 10 10 8 7 7 7 4 6 4 1 3 4 1
23 23 21 19 18 17 16 16 16 15 13 13 11 10 8 8 9 10 10 10 11 12 12 13 12 11 11 10 10 10 9 9 9 8 8 9 9 6 10 4 3 4 4
25 23 21 19 17 17 16 16 14 13 11 10 10 9 9 8 9 8 9 9 9 10 10 10 10 9 9 9 9 9 9 8 7 4 7 7 4 8 11 6 5 7 8
25 22 21 19 17 15 14 13 12 11 11 11 11 9 8 7 7 7 7 7 8 9 9 10 10 9 9 9 9 8 8 7 6 3 9 8 11 15 10 9 9 7 12
23 22 20 17 15 14 12 12 12 11 12 11 10 8 7 7 6 6 6 8 9 8 9 9 9 9 9 9 10 10 10 8 5 1 5 5 3 4 6 11 10 11 13
20 18 17 16 14 12 12 11 12 11 10 9 9 7 8 10 9 8 8 9 9 8 9 10 11 11 11 11 8 10 11 8 4 4 4 4 2 4 6 8 12 17 16
18 16 15 14 14 14 13 11 11 10 10 10 10 9 9 7 7 7 8 8 9 9 10 8 13 13 12 10 12 14 12 12 6 8 8 12 7 6 8 12 14 16 15
21 14 17 15 13 13 13 11 12 12 11 10 9 9 7 4 4 6 8 7 9 9 8 8 13 11 10 9 15 15 13 12 12 10 7 10 8 11 12 11 13 16 16
19 21 22 16 11 11 10 8 9 9 9 8 6 7 7 4 3 4 7 7 10 10 7 10 11 13 13 15 18 16 15 13 12 11 13 15 15 15 15 16 15 15 15
19 24 19 15 16 9 6 7 8 10 9 8 6 4 5 2 0 1 6 8 11 10 10 11 12 13 14 16 17 17 13 14 14 13 13 16 18 19 17 15 16 15 17
22 25 18 14 16 13 9 10 11 12 11 9 6 6 3 3 2 3 3 6 7 11 11 11 10 13 16 14 16 17 16 15 13 13 15 13 16 18 19 15 16 16 16
24 28 21 15 13 12 10 11 12 8 9 7 6 6 1 3 3 2 4 6 9 10 11 9 13 20 20 21 21 19 16 16 15 13 15 16 16 18 20 20 19 17 17
25 31 24 17 9 8 8 9 7 8 7 5 9 2 2 3 2 4 9 11 12 14 14 14 19 21 22 22 24 22 21 20 20 18 18 19 20 19 20 21 20 22 19
20 25 27 17 3 4 9 8 8 7 6 1 3 5 6 2 5 7 9 12 15 16 18 21 22 24 26 26 26 27 25 26 27 27 23 22 24 25 24 23 24 24 24
21 28 24 27 15 9 9 9 11 12 3 1 3 3 4 10 8 8 12 16 18 20 23 25 24 26 27 25 24 25 22 26 28 31 32 28 27 28 28 26 25 26 26
15 20 23 17 22 15 13 11 9 5 3 3 8 8 10 10 9 12 16 17 17 19 19 21 21 23 27 29 30 29 28 27 30 29 31 30 33 35 34 31 29 29 27
18 22 28 27 21 21 16 13 11 13 13 12 10 10 10 9 10 12 17 21 16 19 19 18 21 23 26 28 30 30 27 25 24 28 28 27 31 37 41 40 34 33 30
29 27 24 21 11 17 14 13 11 9 8 8 9 5 6 10 11 13 24 15 10 11 15 18 22 26 29 29 30 31 30 30 29 29 28 28 24 27 32 41 43 36 35
31 28 26 24 24 20 16 15 11 7 4 3 6 6 9 12 19 17 13 11 13 14 16 17 18 21 21 25 20 19 5 16 23 21 25 24 25 23 22 17 30 36 35
28 25 22 19 17 15 9 5 2 2 4 8 11 14 19 13 12 11 12 13 14 13 14 16 19 23 25 25 16 6 4 4 10 11 21 22 29 27 28 26 12 15 30
21 18 16 12 10 7 7 6 8 9 10 13 15 11 11 11 12 14 15 17 18 17 16 16 18 19 19 14 11 8 5 4 2 4 17 26 25 33 30 25 22 20 12
12 12 10 7 8 9 10 4 2 6 8 4 10 5 7 13 18 17 18 22 22 19 18 19 17 16 16 12 11 10 10 13 6 4 9 10 23 23 26 28 27 19 13
5 4 5 6 4 9 11 6 6 8 5 3 3 5 11 17 16 19 20 17 16 14 14 11 12 12 12 11 8 9 11 4 6 6 4 16 16 21 29 28 23 15 19

GFSSE_925_spd_006.txt.gz
Wind_Speed
19 19 19 19 19 18 18 17 17 17 17 18 17 16 16 16 16 14 14 14 14 13 13 13 12 11 10 6 6 5 3 2 2 2 3 4 3 3 6 8 7 7 4
26 22 20 20 19 18 18 17 17 17 17 16 15 14 14 13 12 12 12 12 12 13 12 12 12 12 11 10 8 5 3 2 1 1 2 1 1 2 3 2 4 6 3
27 23 20 20 19 19 18 18 18 17 15 15 13 13 12 11 11 12 12 13 14 14 14 14 13 13 12 10 9 7 6 3 4 3 2 2 3 6 3 5 5 4 3
28 23 21 20 19 19 19 19 18 16 15 14 12 12 10 10 10 11 13 13 13 13 13 13 12 12 11 10 9 8 6 4 1 3 5 5 4 5 6 4 5 6 4
27 24 22 21 20 19 19 18 17 17 15 13 11 10 9 9 10 11 12 11 11 12 11 12 11 10 10 9 9 8 7 6 4 2 3 5 5 10 12 9 10 7 6
27 25 22 21 19 19 18 18 16 15 12 10 10 10 9 9 9 9 9 9 9 9 9 10 10 9 9 9 8 8 8 7 5 3 4 4 4 8 9 8 10 7 7
27 23 21 19 19 18 16 15 13 12 11 11 10 9 9 9 8 8 8 8 8 8 9 9 10 10 9 9 9 9 9 9 7 6 6 6 7 9 13 10 12 9 7
27 25 22 19 17 15 14 13 13 12 11 11 9 9 8 8 8 8 9 8 7 7 8 10 11 10 11 10 9 10 10 10 9 7 8 5 6 6 7 5 7 8 8
26 24 21 18 16 15 13 12 12 12 11 10 9 9 9 10 11 9 8 10 9 9 10 9 12 12 11 9 10 11 11 12 10 10 9 5 6 8 7 9 9 12 13
22 21 20 19 15 13 14 12 11 11 11 10 10 10 9 8 9 9 7 9 8 8 9 8 12 11 12 12 15 16 13 11 9 10 12 11 11 10 10 10 14 16 15
23 23 20 18 15 14 13 13 12 12 12 12 10 8 6 6 6 5 5 5 6 7 8 7 9 11 11 13 15 17 16 12 11 11 14 14 11 12 15 15 12 14 15
25 23 20 17 17 15 14 13 12 11 10 9 7 7 4 3 2 3 4 6 7 9 9 9 9 9 9 12 14 15 16 14 12 14 15 15 15 16 16 20 18 15 16
27 24 21 17 16 15 14 12 11 10 10 8 5 6 3 1 2 2 3 6 7 9 11 11 11 11 12 13 13 13 15 14 12 11 14 16 15 16 17 19 20 16 16
31 28 23 19 17 14 11 12 12 12 11 8 6 6 4 3 1 0 3 5 7 10 11 12 13 16 19 21 20 18 18 15 13 12 11 15 19 21 20 19 18 19 19
35 32 26 22 15 12 10 10 13 12 10 11 11 8 3 5 2 3 2 4 7 10 12 10 12 17 20 22 22 23 24 22 19 16 15 15 16 16 19 22 21 20 19
35 31 25 22 20 16 12 14 12 15 12 13 10 9 4 2 4 2 3 6 9 12 15 16 19 22 25 25 26 25 26 27 26 24 23 22 21 21 20 21 22 23 23
38 36 31 25 20 14 15 14 13 12 9 10 13 11 7 4 2 2 5 9 12 15 18 19 20 20 19 18 21 20 19 21 23 26 27 30 30 27 27 26 26 24 24
37 36 35 23 19 14 12 10 11 10 8 6 8 7 8 6 3 4 7 11 13 15 18 20 17 14 15 18 21 20 23 23 23 25 27 30 28 34 32 32 31 28 27
39 38 31 17 18 10 13 12 15 9 7 8 11 8 6 5 7 9 11 14 16 14 15 16 15 15 19 20 23 23 26 28 29 29 28 25 25 29 33 38 37 36 33
28 26 20 18 14 14 14 14 12 11 12 10 8 5 5 5 6 10 16 15 10 8 10 13 15 18 20 23 26 27 27 27 26 20 20 16 20 17 15 20 31 38 40
22 20 16 18 14 14 18 17 13 11 7 8 9 6 6 10 15 17 14 9 9 10 12 14 15 16 18 22 25 28 25 26 20 24 17 14 17 18 21 25 25 22 34
29 26 20 17 16 15 15 10 5 3 6 5 5 5 10 12 10 10 11 13 14 14 16 17 19 19 16 18 12 14 7 19 20 17 17 18 25 24 28 25 22 22 18
23 19 19 17 14 12 10 5 4 2 1 5 10 11 9 5 6 9 14 17 18 18 16 16 18 19 16 15 11 5 3 3 6 11 23 20 29 27 30 26 22 22 22
17 16 15 12 8 5 4 5 5 3 4 6 4 4 1 7 12 15 16 16 14 12 14 15 17 17 18 15 13 10 6 3 2 7 6 25 24 33 31 28 28 19 15
12 10 6 4 4 4 4 5 4 3 5 2 2 1 7 11 14 16 18 16 15 17 16 15 15 15 14 10 10 9 8 10 4 4 10 11 21 26 32 27 19 18 14
7 5 3 0 3 5 6 7 7 5 4 5 5 8 14 15 14 11 10 11 13 15 15 14 14 16 19 19 18 16 12 7 7 4 5 16 19 19 22 20 14 19 17

GFSSE_925_spd_009.txt.gz
Wind_Speed
20 21 20 20 20 19 19 18 18 18 18 17 16 16 15 15 15 14 14 13 13 12 13 13 12 11 9 6 5 5 4 3 1 0 0 2 4 4 3 4 5 3 1
27 23 21 20 20 19 18 18 18 18 16 15 15 14 13 13 13 13 13 13 13 13 12 12 12 12 10 9 7 6 5 2 2 3 3 4 5 8 6 3 4 5 3
28 25 22 21 20 19 19 19 18 16 14 14 13 12 11 12 12 13 13 13 13 13 13 13 13 12 11 10 8 7 6 5 4 4 4 5 6 6 5 9 8 7 5
28 26 23 21 20 20 19 18 16 15 13 13 12 11 11 11 12 12 12 12 13 12 13 13 12 11 11 10 10 9 8 6 5 5 7 7 6 7 11 9 12 10 6
27 25 23 21 20 20 19 18 16 14 12 11 10 10 10 10 10 11 11 11 12 12 13 13 12 11 10 10 9 9 9 8 7 6 5 5 6 8 9 11 9 10 7
26 24 22 20 19 18 18 17 15 14 12 10 10 9 9 9 9 10 10 10 11 12 12 13 13 12 12 11 11 11 10 10 10 7 7 5 4 10 12 16 11 8 7
25 23 21 20 19 18 17 16 14 12 11 11 10 8 8 8 9 9 10 10 10 11 12 13 13 13 13 13 12 13 13 14 13 11 10 10 7 9 12 13 15 9 7
25 22 20 18 18 17 16 13 12 12 11 9 8 9 9 9 9 9 11 11 12 12 13 16 15 16 15 14 16 15 14 14 14 12 12 8 7 8 10 10 9 10 11
23 22 20 19 17 15 14 14 13 12 10 9 9 10 11 11 10 10 11 11 11 12 11 14 15 16 16 14 16 19 15 15 13 14 13 11 9 10 9 11 12 13 15
23 22 21 18 17 16 16 14 13 11 10 10 9 10 9 9 8 9 8 8 8 8 8 9 11 14 15 15 16 18 19 16 14 14 15 13 12 11 10 11 14 15 16
22 21 20 19 18 17 15 13 12 11 11 11 10 8 6 6 6 3 4 4 4 6 5 5 7 8 11 13 16 16 18 18 18 16 15 15 13 12 14 14 15 17 16
24 23 22 19 18 18 16 15 13 12 11 10 7 6 6 3 1 2 3 4 4 5 6 6 7 7 9 11 13 13 14 15 17 19 19 16 16 15 14 14 18 19 17
27 24 24 21 19 18 18 17 14 13 10 9 6 5 3 1 0 1 3 4 5 7 9 9 9 11 12 15 16 15 15 15 15 14 15 18 18 18 19 18 17 17 16
28 28 26 23 20 18 17 16 16 14 12 11 9 6 4 1 1 1 3 4 6 9 11 12 11 13 17 18 20 19 19 21 21 19 18 17 17 19 20 20 19 19 19
31 30 28 25 23 19 19 18 16 15 14 12 10 7 3 5 3 2 2 3 5 7 9 10 11 14 17 19 19 16 17 16 17 21 24 23 23 22 23 23 22 21 19
34 33 30 28 22 20 18 18 18 15 13 14 12 9 9 8 7 4 2 1 4 8 10 12 13 14 13 13 14 15 15 16 17 17 17 21 26 30 30 29 26 24 25
32 32 29 25 19 16 15 15 15 16 13 12 12 12 8 5 3 3 1 5 8 11 13 14 13 13 14 11 12 13 15 17 20 23 21 18 17 15 18 29 35 33 30
30 31 24 19 14 4 12 12 15 12 10 10 8 5 7 6 2 3 6 10 14 17 15 14 14 13 12 13 15 16 18 20 23 26 20 18 16 16 17 18 21 30 35
26 25 19 15 12 10 3 7 9 11 14 13 12 9 6 2 1 5 11 16 16 11 11 13 13 14 13 14 17 18 21 24 26 22 19 18 15 16 18 20 22 20 24
20 17 19 11 8 8 7 13 16 16 13 9 8 6 3 2 5 9 12 11 9 10 13 16 18 18 19 21 23 21 24 23 18 16 15 13 13 15 19 22 26 26 23
14 12 9 10 12 14 15 15 12 11 9 8 5 5 6 9 10 9 9 9 12 14 15 18 20 23 23 25 20 23 22 11 20 10 16 15 17 20 22 25 27 29 30
22 18 13 15 16 14 11 10 6 4 4 5 5 6 7 8 9 10 10 11 12 14 16 18 20 20 18 20 12 14 4 13 3 21 12 14 20 22 28 31 28 26 27
18 16 16 14 12 8 4 2 3 3 2 3 3 4 6 7 9 11 13 14 11 10 11 13 13 14 13 15 15 7 4 3 6 8 24 12 26 21 29 28 26 24 21
18 14 12 9 7 6 5 4 5 7 6 3 1 4 6 8 11 12 13 11 9 10 14 16 13 13 12 13 9 11 11 10 3 6 5 25 16 30 30 29 22 16 14
14 11 8 5 2 2 3 6 7 5 3 3 6 8 13 12 10 10 15 13 11 8 12 14 11 9 10 10 11 13 11 17 12 4 10 10 20 24 32 27 25 13 15
5 4 4 4 5 4 5 6 7 4 2 7 8 13 18 17 21 29 24 5 3 9 12 10 10 12 14 11 10 11 11 8 12 10 5 17 17 21 20 26 14 18 17

GFSSE_925_spd_012.txt.gz
Wind_Speed
23 25 23 23 22 22 22 21 21 20 18 17 16 16 15 13 13 12 12 12 12 14 14 14 12 11 10 9 8 6 6 5 5 5 6 6 6 8 9 9 9 10 7
27 26 24 23 22 22 22 21 20 18 16 16 15 14 13 13 13 13 13 13 15 16 16 16 15 13 12 11 11 10 9 7 5 5 6 6 7 8 7 7 9 7 6
26 24 24 23 23 22 21 20 19 16 15 15 13 11 12 12 13 13 13 15 15 15 16 15 14 13 12 11 11 9 9 9 7 6 7 8 7 6 6 9 7 9 8
25 24 23 23 23 22 21 20 17 15 14 13 12 10 12 11 12 13 14 14 15 15 15 14 14 13 12 13 12 12 11 11 9 7 7 8 8 8 10 8 10 9 7
24 23 22 22 22 21 20 19 17 15 13 12 11 10 11 10 11 13 14 13 14 15 15 14 14 13 13 13 14 13 14 14 13 11 9 8 7 7 12 12 14 11 7
23 22 21 21 21 20 19 18 17 15 13 11 10 10 10 10 12 13 12 12 13 14 15 15 15 14 13 14 15 15 15 16 15 13 11 11 9 11 12 14 13 9 7
22 21 21 20 20 19 18 17 16 14 12 11 10 9 10 10 12 12 12 13 14 15 17 16 17 17 16 17 17 15 14 16 16 14 13 11 9 10 12 14 14 10 8
24 22 20 18 18 18 17 16 15 13 12 10 10 9 10 12 12 13 13 13 15 15 16 17 17 17 16 17 17 18 17 15 15 14 14 13 10 9 12 14 13 11 10
21 21 19 18 17 17 15 14 13 12 11 10 10 10 11 11 12 12 12 12 13 12 12 14 16 16 16 17 18 19 18 18 16 14 13 14 13 11 10 11 14 15 13
18 17 18 18 17 16 14 14 13 12 10 9 11 11 12 10 9 9 8 8 9 8 8 8 10 13 15 15 16 18 18 18 17 18 16 12 12 12 11 12 14 17 18
17 18 18 18 17 16 16 15 13 12 11 12 13 10 9 9 8 6 5 5 5 5 5 4 5 7 9 11 12 13 16 18 19 18 18 17 15 13 14 14 15 18 19
18 20 21 19 18 18 16 15 14 14 13 11 11 9 9 7 5 5 3 3 3 3 4 5 5 6 8 10 11 12 12 13 16 18 18 18 17 18 16 15 15 18 19
26 23 21 19 19 17 16 15 16 14 14 11 10 10 8 5 4 4 4 2 3 4 5 6 5 7 9 12 14 14 12 14 16 17 18 20 21 21 21 20 18 17 18
27 24 23 20 18 17 16 16 15 13 12 10 9 8 5 3 3 4 2 3 3 4 6 8 8 10 12 13 15 14 12 11 11 13 15 17 19 21 22 22 21 21 20
26 26 24 21 19 17 16 15 13 11 9 8 7 5 5 4 2 2 1 2 3 6 8 9 10 12 12 13 15 13 11 12 13 13 14 14 15 17 19 22 24 24 23
24 23 21 19 15 12 9 10 10 11 10 9 9 7 5 4 4 2 1 1 5 9 12 13 14 12 10 11 9 9 12 14 17 18 17 16 15 15 16 17 19 22 25
21 19 19 17 12 10 9 8 12 13 13 13 12 10 6 3 1 2 2 3 8 11 12 10 9 8 9 9 11 12 13 16 19 22 19 15 15 16 15 16 17 19 23
15 17 16 16 10 10 8 7 9 12 10 3 2 4 6 7 4 3 6 11 13 11 9 8 8 9 11 13 14 17 16 20 20 18 12 12 11 10 13 15 17 18 19
14 15 15 15 16 11 13 5 4 7 9 11 9 6 6 6 7 11 12 12 9 8 7 9 11 13 13 15 18 16 18 20 20 9 11 11 11 13 16 18 21 23 23
18 21 19 18 12 8 4 12 16 12 10 7 5 4 5 7 9 10 11 9 8 8 9 11 12 13 15 17 17 17 20 13 8 9 12 16 14 16 18 23 27 28 29
22 20 16 14 11 15 19 14 10 8 5 4 3 3 3 5 7 8 6 7 8 11 11 11 14 16 17 19 10 22 13 1 11 13 20 13 17 19 23 27 31 33 32
23 17 16 17 19 16 12 6 4 6 6 4 3 4 4 5 6 6 8 11 13 12 11 11 13 15 11 12 8 8 3 8 5 21 13 20 16 23 24 27 29 30 30
24 24 22 19 16 10 6 7 5 3 3 2 1 4 6 6 7 8 10 14 14 11 8 8 12 15 8 7 6 3 3 3 9 10 19 14 24 23 24 29 30 25 25
19 18 17 14 11 9 5 3 1 3 2 1 2 5 4 8 12 13 19 22 16 10 5 8 8 11 9 8 6 5 7 7 2 6 4 19 18 24 32 30 25 24 21
13 12 9 8 6 3 2 3 4 2 2 4 5 3 9 19 22 17 17 21 11 2 6 7 7 10 11 9 7 9 10 11 12 5 9 13 19 16 21 24 26 21 20
9 8 7 5 6 7 6 9 10 7 5 2 6 11 14 21 21 25 18 7 1 6 10 11 15 12 9 9 9 9 7 4 8 6 5 11 14 16 23 18 21 22 19

GFSSE_925_spd_015.txt.gz
Wind_Speed
19 21 24 24 25 25 25 24 23 21 20 19 18 16 14 13 12 12 11 12 13 14 14 13 13 12 10 9 9 9 8 7 6 6 5 7 8 9 11 11 13 12 11
25 20 24 25 25 25 24 23 22 20 18 18 16 14 13 13 11 11 13 15 14 14 15 15 14 13 13 12 11 10 10 9 8 7 6 7 8 8 10 11 12 12 10
24 21 22 23 25 24 24 22 20 18 17 16 14 13 13 12 12 13 14 15 15 15 15 14 14 14 14 13 13 13 12 12 11 10 10 8 7 6 9 10 11 11 9
24 21 22 23 23 23 22 21 19 18 16 14 13 13 12 12 12 14 14 14 14 14 14 14 14 15 15 15 15 15 14 13 12 11 10 11 9 8 9 10 11 11 8
25 25 24 23 22 23 21 19 17 16 15 13 13 13 12 12 13 14 14 13 14 13 13 13 14 14 16 16 15 15 16 15 14 12 11 11 9 9 10 13 13 10 6
23 23 23 23 23 22 20 18 16 15 14 13 12 12 12 12 13 13 13 13 15 15 16 16 17 17 17 17 18 15 14 15 14 13 12 12 10 10 12 13 16 13 8
22 21 22 22 21 20 18 16 15 14 13 12 11 11 11 13 13 12 13 14 16 17 17 18 17 17 16 17 18 19 17 15 14 12 12 13 11 10 11 12 13 12 11
23 22 20 20 19 18 17 16 14 13 13 11 11 11 13 13 13 13 12 13 13 15 16 16 16 16 16 16 17 18 18 19 18 13 12 12 12 11 11 10 11 13 12
19 20 19 19 18 17 16 15 14 13 12 11 11 12 14 13 13 12 11 11 11 10 12 13 14 14 14 13 14 15 15 16 17 18 16 12 13 14 11 11 11 11 14
16 16 17 16 16 16 15 13 13 12 11 12 12 13 15 13 11 9 8 7 7 7 7 7 7 8 9 10 11 12 13 13 14 14 14 14 14 13 13 12 12 12 13
18 17 14 16 16 16 15 14 12 11 11 11 11 12 11 10 9 7 5 4 4 4 4 4 4 5 6 8 10 11 11 11 13 14 13 14 15 16 15 14 14 13 13
16 17 16 16 17 15 13 13 12 11 11 12 10 10 8 7 5 4 2 2 2 2 4 5 5 6 7 9 11 12 13 14 13 13 12 15 16 16 15 15 16 17 16
14 14 19 17 15 13 12 12 10 9 10 10 9 8 6 4 3 2 2 2 3 4 5 7 6 8 10 11 11 13 13 13 12 12 12 14 14 15 15 15 15 15 15
16 17 18 15 13 11 10 8 8 8 8 5 5 5 5 4 3 3 2 1 2 4 6 8 9 11 12 11 13 12 10 9 11 11 12 13 13 13 14 15 15 15 15
16 15 14 13 11 10 7 7 6 6 5 4 4 5 5 3 2 2 1 1 3 5 8 9 10 10 8 9 9 8 8 9 11 12 13 15 15 15 15 14 14 15 16
12 13 12 12 10 9 6 3 3 6 8 6 4 5 7 4 3 2 2 2 4 8 10 11 9 6 6 5 5 6 8 11 12 13 12 13 14 15 15 15 16 16 16
10 11 13 13 11 10 4 7 3 8 11 8 10 8 7 3 2 3 2 4 7 9 9 6 5 5 4 5 7 8 9 12 11 14 10 9 10 13 13 15 17 17 17
10 12 15 15 15 16 11 13 13 8 6 3 3 5 6 5 4 2 4 5 6 4 4 5 5 5 5 8 10 10 11 13 11 5 3 5 7 9 12 14 16 19 22
11 15 16 18 18 14 6 12 7 4 5 7 8 7 5 3 1 2 3 3 3 4 6 6 6 6 6 9 12 11 15 15 10 2 2 5 8 9 11 16 20 22 24
13 16 19 18 12 8 6 6 9 10 8 7 7 5 3 2 3 4 3 4 5 6 6 7 7 6 6 10 13 11 15 10 4 1 6 7 7 10 12 15 18 20 27
19 19 19 15 12 10 18 17 13 8 6 6 4 2 1 2 3 4 5 7 9 11 11 12 12 10 8 12 11 14 12 6 4 5 8 9 9 12 13 15 18 22 23
17 16 15 15 18 20 18 14 7 8 6 6 3 2 1 3 5 8 9 12 14 12 11 9 6 7 7 8 10 12 5 8 9 10 15 11 14 13 15 20 22 22 22
14 17 19 20 19 15 9 8 7 7 7 3 1 1 4 9 15 16 16 14 15 12 6 3 6 8 10 8 7 6 5 5 17 10 16 18 15 19 23 24 23 23 22
16 18 17 17 13 10 7 4 4 3 2 2 2 4 6 10 12 12 14 13 15 6 1 3 5 7 8 10 9 5 8 12 7 9 14 17 18 21 21 21 20 21 22
22 19 16 12 11 8 8 9 10 10 9 6 5 6 9 12 15 16 16 17 13 4 1 2 3 5 6 6 6 8 8 10 10 9 12 17 19 18 16 19 15 17 20
14 16 18 19 21 20 19 18 17 15 11 8 8 11 12 17 20 21 19 15 6 4 1 1 4 6 7 4 4 5 7 9 11 12 10 15 19 22 21 20 18 18 22

GFSSE_925_spd_018.txt.gz
Wind_Speed
22 23 25 25 25 25 24 24 22 20 19 17 16 15 14 13 12 12 12 14 14 15 14 13 12 11 12 12 12 11 11 10 8 7 8 10 11 11 11 12 11 10 11
24 23 26 25 25 24 23 22 20 18 17 15 14 13 13 12 12 13 14 14 15 14 14 13 13 12 13 12 13 13 12 12 12 11 7 7 9 10 11 11 12 10 10
24 25 24 24 24 24 23 20 18 17 16 14 13 13 12 12 13 14 14 14 13 13 13 13 13 13 14 14 14 14 14 14 13 13 13 7 7 9 11 11 11 11 9
23 25 23 24 23 23 21 19 17 16 15 13 13 12 12 13 14 15 14 13 12 11 11 12 13 14 14 14 13 14 15 15 14 15 9 9 7 10 11 13 14 11 7
22 23 23 25 24 22 20 17 16 15 14 13 12 12 12 14 14 14 13 12 11 12 12 13 15 15 16 17 15 15 15 16 16 12 10 10 8 10 11 11 13 10 8
22 20 23 24 22 21 19 16 16 14 13 12 12 12 12 13 13 13 13 13 13 14 15 17 15 16 16 17 18 18 16 15 14 11 10 10 9 10 10 10 11 10 8
23 19 23 21 20 19 16 16 15 13 12 12 12 11 12 13 13 13 13 14 15 15 15 16 15 15 15 16 17 17 18 18 13 11 10 9 10 10 9 9 10 11 10
20 17 17 18 18 16 16 14 13 11 10 10 11 11 12 11 13 13 14 12 14 13 14 14 14 13 13 14 14 15 15 14 13 13 11 9 12 12 9 8 8 9 10
18 17 17 16 14 15 12 12 10 9 8 8 8 10 11 11 11 11 11 10 9 9 10 9 10 10 10 11 11 12 13 13 11 11 10 10 13 12 11 10 9 9 10
14 14 15 15 13 11 10 10 9 8 7 7 8 10 10 10 8 7 7 5 6 6 4 4 4 5 7 8 9 11 11 11 13 11 9 8 11 11 11 10 10 10 11
14 13 13 13 12 11 9 7 6 7 7 8 8 8 7 5 4 3 4 4 3 2 1 1 2 4 7 11 12 11 13 14 13 12 10 11 12 11 9 9 10 10 11
13 13 12 12 12 11 8 8 7 6 6 6 5 5 3 2 2 2 1 1 0 1 3 3 3 6 9 11 12 13 13 13 12 11 8 13 12 12 11 10 8 8 9
13 11 10 10 11 9 8 7 6 6 5 4 4 4 2 2 3 2 2 1 0 1 2 4 4 5 8 10 12 12 12 12 11 10 8 11 10 10 10 10 10 10 8
14 12 10 10 9 9 7 7 5 5 4 4 4 3 3 3 3 3 2 2 1 2 3 4 5 6 9 9 9 10 10 10 10 10 8 10 10 9 9 10 11 13 14
12 11 11 11 10 9 8 7 5 4 2 2 2 3 3 2 1 3 3 3 2 2 3 6 7 10 10 10 10 9 9 10 9 9 9 12 10 10 11 11 11 12 13
11 12 12 12 11 10 8 7 6 2 2 5 6 4 5 2 6 5 4 4 3 3 5 7 9 11 11 11 11 9 9 10 10 10 11 11 13 11 10 11 12 12 14
11 12 13 14 13 13 14 12 9 10 9 9 11 10 8 13 10 5 4 4 4 4 6 7 8 9 11 12 13 13 14 13 13 12 12 12 11 13 15 12 11 13 14
11 13 14 14 16 17 12 11 6 16 9 3 1 3 7 7 6 3 2 2 4 5 6 7 9 11 13 13 13 15 16 16 17 15 12 11 11 11 12 16 17 17 18
13 15 15 15 15 15 16 15 17 7 3 6 6 5 5 4 3 1 2 4 5 6 7 8 9 10 13 14 16 19 19 20 21 19 14 11 9 9 12 14 18 18 20
12 14 15 16 14 12 10 9 7 7 7 6 5 4 5 4 4 4 4 4 5 7 8 10 11 13 14 15 18 21 18 21 19 16 11 12 12 11 12 15 16 16 19
14 16 16 16 17 14 12 13 12 9 6 5 5 6 5 5 5 5 5 6 8 10 11 12 14 17 17 14 18 18 20 21 10 13 15 14 14 15 18 17 18 20 21
14 13 14 14 13 13 12 9 7 8 6 6 5 5 5 5 6 6 7 8 10 13 15 13 11 12 13 10 14 20 10 16 19 8 17 19 18 18 18 20 22 22 21
14 14 16 16 16 11 8 7 7 7 6 4 2 3 3 4 6 7 8 10 12 14 15 10 7 7 11 11 10 12 8 10 19 22 16 20 17 19 20 20 20 20 20
16 16 16 15 11 8 6 7 5 4 4 4 3 3 3 5 8 10 11 12 13 13 11 9 7 7 8 12 15 13 13 17 11 11 20 19 21 20 21 21 19 21 21
15 15 13 13 12 10 10 10 9 9 8 5 3 6 8 10 12 14 15 15 15 13 9 7 6 6 10 15 15 13 12 13 14 13 11 18 21 19 19 18 20 22 22
12 12 12 13 14 13 13 13 13 10 7 6 8 10 12 16 17 18 17 17 15 12 9 7 5 10 14 12 9 9 11 12 13 14 12 17 20 23 20 21 20 21 23

GFSSE_925_spd_021.txt.gz
Wind_Speed
24 24 25 26 26 26 25 24 22 20 18 16 15 13 13 13 14 15 15 15 16 15 14 13 13 13 14 14 14 13 12 12 11 8 6 7 9 11 12 11 11 12 11
26 25 26 26 27 26 24 22 21 18 17 15 14 13 13 13 14 14 14 14 13 14 14 13 14 14 14 14 13 13 13 13 12 12 4 3 10 13 12 12 11 10 10
27 26 25 26 26 25 22 21 20 17 15 14 13 12 12 12 12 13 13 13 13 12 13 13 14 14 14 13 14 14 13 13 12 10 11 8 13 11 12 14 13 10 9
26 25 23 25 25 24 21 19 17 15 14 12 12 11 11 12 13 12 12 12 12 12 12 13 15 16 16 15 15 14 14 14 13 11 9 8 14 13 11 14 14 11 11
25 24 22 24 24 22 19 17 16 14 13 11 11 10 11 12 13 12 11 11 12 12 13 14 16 17 19 19 18 18 15 11 7 8 10 9 12 12 11 11 11 12 10
23 23 23 23 21 19 17 15 13 13 12 11 10 11 11 11 12 12 11 12 14 14 13 14 15 16 16 17 18 19 19 15 16 12 10 11 10 10 10 10 11 12 10
17 21 25 22 20 17 14 14 13 12 11 10 10 10 11 10 12 12 13 13 13 13 12 13 13 13 14 15 15 16 17 14 14 13 11 12 11 11 10 10 9 10 11
16 18 22 19 17 16 13 14 12 11 10 10 9 10 10 10 10 11 11 12 11 11 11 10 11 11 13 14 14 15 16 16 13 11 9 13 11 11 10 9 9 8 9
30 23 20 18 16 14 14 13 12 10 9 9 9 10 10 10 10 8 7 6 7 7 7 8 8 8 10 11 12 13 12 9 15 12 10 8 10 9 9 9 8 9 9
35 28 23 17 15 14 13 12 10 9 8 8 9 9 9 8 8 6 5 2 3 4 3 4 5 6 6 8 11 17 15 14 16 12 10 9 11 9 7 7 7 8 9
18 18 18 16 14 13 12 10 9 8 9 9 9 9 8 5 3 1 1 2 2 3 4 5 5 6 9 7 5 16 14 16 14 15 10 13 13 11 8 7 6 6 7
18 14 12 13 13 12 12 10 8 7 8 8 7 6 4 3 0 2 1 3 4 5 5 6 5 6 9 11 11 15 15 14 15 15 8 12 13 11 9 7 7 6 7
16 14 12 14 12 11 10 10 9 8 7 6 5 3 2 1 0 3 3 3 4 5 6 7 7 9 10 12 12 12 13 15 15 14 8 10 10 9 10 10 10 9 7
15 14 11 12 10 9 10 9 9 9 6 4 4 1 2 4 2 5 8 7 6 6 8 9 11 10 11 12 12 14 14 14 14 14 8 7 10 9 8 9 10 10 10
15 15 13 13 12 11 10 11 10 9 6 6 3 2 1 1 3 2 6 12 10 9 10 11 12 13 15 15 15 14 14 16 15 15 14 14 9 11 11 9 9 10 11
15 16 16 15 14 13 13 13 11 9 7 6 4 4 5 5 6 20 14 11 8 8 9 11 11 13 15 16 16 16 16 16 16 15 15 17 13 11 12 12 13 12 11
14 16 16 16 16 15 16 16 12 12 10 11 6 9 9 10 13 4 6 6 7 7 9 11 12 14 16 17 18 18 19 18 19 19 16 18 14 13 9 12 11 15 15
15 16 16 16 17 16 16 12 7 14 8 7 7 4 1 3 3 1 3 3 5 7 8 10 12 13 16 18 19 20 21 22 21 21 23 19 12 16 14 9 16 20 12
14 16 16 16 17 15 14 13 10 12 9 4 3 3 3 3 2 1 1 2 5 7 9 10 12 15 18 20 23 22 22 26 22 22 22 20 10 12 13 19 18 21 8
14 16 15 16 17 14 12 10 5 4 7 7 5 5 5 3 2 1 1 3 6 8 11 13 15 17 19 22 23 20 25 20 23 21 17 14 14 15 13 13 20 19 20
12 14 15 15 14 13 11 11 10 11 10 8 7 6 4 3 3 3 3 6 8 10 13 15 18 19 21 20 18 19 21 25 22 15 21 13 13 18 17 20 18 18 22
13 14 16 13 14 12 12 13 12 11 9 9 7 5 3 3 3 4 6 9 10 14 16 17 17 18 17 17 17 17 11 20 22 19 20 20 24 17 20 18 20 20 19
13 13 14 14 14 13 12 10 9 9 8 8 5 3 2 4 5 7 9 11 14 15 17 17 15 14 18 16 17 15 11 11 21 23 23 24 24 21 20 22 21 21 19
15 15 15 17 14 11 10 10 8 4 6 5 3 3 3 5 7 10 12 13 15 17 17 16 15 12 15 15 18 20 20 20 11 13 20 21 21 22 21 22 20 20 22
17 17 16 14 12 11 9 8 6 6 5 4 2 3 5 7 10 12 15 16 16 18 17 15 14 14 13 17 19 19 17 17 18 17 12 19 23 23 23 21 19 22 23
17 16 16 15 14 12 12 11 11 8 5 3 3 5 7 10 11 12 14 16 17 17 16 15 13 12 15 17 16 15 16 15 15 17 12 19 21 25 24 22 23 23 24

GFSSE_925_spd_024.txt.gz
Wind_Speed
29 30 26 25 25 25 24 24 23 21 19 18 17 17 17 17 18 19 19 20 20 19 18 18 17 17 17 16 15 14 13 12 11 7 8 8 10 10 12 12 12 14 13
31 32 29 27 27 26 25 24 22 20 18 18 18 17 17 17 18 19 19 19 19 18 17 17 16 16 15 15 15 15 13 12 12 8 5 9 11 13 15 15 12 11 11
30 31 30 28 27 26 24 22 21 20 18 17 17 17 16 17 17 18 18 17 16 16 16 17 17 17 17 17 17 15 13 10 10 11 5 6 14 16 16 16 14 12 11
29 30 31 28 26 25 23 21 21 19 18 17 16 16 16 16 16 16 17 16 16 16 17 19 20 21 22 21 21 17 13 13 12 12 14 12 16 16 14 14 14 11 10
29 25 27 26 25 24 21 19 20 19 17 17 16 15 15 16 15 15 16 16 17 17 18 18 20 21 21 21 21 19 15 17 17 12 10 9 15 14 12 12 12 12 11
24 22 26 22 22 21 19 17 18 18 17 17 16 15 14 14 14 14 16 17 17 17 17 17 18 18 18 20 20 19 16 18 20 15 10 10 13 11 11 11 11 12 12
27 25 20 17 17 17 17 17 17 17 16 16 15 15 14 13 14 14 16 16 16 16 16 15 15 15 17 19 21 19 21 19 21 13 9 13 12 11 10 10 10 10 11
31 28 21 18 17 16 17 17 16 16 15 15 14 14 13 13 13 13 14 14 14 13 13 12 12 13 14 17 22 16 16 20 19 16 12 15 13 12 10 11 11 11 11
24 22 22 21 20 19 18 16 15 14 15 13 13 13 13 12 11 10 9 10 9 9 8 8 9 10 10 11 18 18 17 17 17 14 12 13 12 10 10 10 10 10 10
20 22 23 22 20 21 18 15 14 14 14 13 13 13 13 12 11 8 9 6 6 6 6 7 7 8 7 6 10 18 18 18 16 15 13 15 15 13 10 8 9 8 9
22 20 17 18 19 18 18 15 14 13 13 12 13 13 12 9 6 6 5 4 4 6 6 7 7 8 12 16 7 18 16 15 19 14 11 12 15 13 11 11 10 9 9
29 19 19 19 19 18 16 16 13 16 14 13 12 8 8 7 3 2 1 2 3 5 5 5 7 10 10 12 14 14 15 13 17 16 13 13 13 10 11 12 12 11 10
26 21 23 22 19 21 18 18 14 14 12 11 9 5 7 5 4 2 4 2 4 5 4 8 13 6 12 10 12 9 12 13 15 15 17 9 11 11 7 8 10 12 12
22 19 19 22 16 17 16 15 15 14 12 11 9 5 5 3 8 6 2 3 10 8 10 8 11 11 11 14 11 15 11 12 15 13 17 12 14 12 9 8 8 10 13
26 21 21 19 17 17 16 18 17 15 13 9 7 10 7 4 4 5 5 9 8 6 8 12 14 15 16 14 16 12 16 15 14 15 15 17 17 12 9 6 6 8 11
27 22 20 18 18 17 19 18 16 13 12 8 4 4 3 6 3 3 8 7 6 5 9 10 13 12 14 17 16 17 17 18 17 16 13 15 18 14 6 4 8 11 12
27 25 23 22 21 20 22 19 18 13 6 5 4 4 7 6 3 3 3 6 6 6 8 10 11 14 13 16 18 19 19 18 18 20 19 19 23 15 6 4 9 14 12
26 25 23 21 21 23 22 22 12 3 7 1 4 0 1 3 1 4 5 2 5 6 7 8 10 12 16 18 18 21 18 16 20 24 19 17 16 5 7 5 9 15 13
28 27 22 22 22 20 20 11 1 3 2 2 6 7 8 8 7 4 2 3 5 6 8 9 10 14 16 18 20 21 17 21 20 21 22 19 20 8 7 10 10 15 14
26 28 25 19 20 16 16 12 3 2 4 10 8 6 8 6 5 4 2 3 5 6 8 11 13 14 15 17 20 21 17 13 21 24 25 15 14 9 11 10 14 9 13
26 28 26 23 21 19 16 10 11 9 11 12 11 9 7 7 5 4 3 5 6 7 10 12 14 14 14 16 19 17 16 18 16 22 16 22 21 20 19 13 12 14 14
19 24 22 19 17 16 15 16 15 17 14 15 11 9 7 6 3 3 3 4 7 10 12 13 14 15 12 13 14 19 4 10 15 17 22 19 20 20 17 17 19 15 11
18 23 20 17 17 18 18 18 16 18 16 14 9 13 8 4 2 2 5 7 9 10 12 14 14 15 8 11 14 10 4 3 15 14 18 22 21 20 20 16 16 14 15
22 21 17 21 20 15 16 14 13 13 14 13 13 9 5 1 3 5 6 8 8 11 13 14 13 13 11 11 13 14 17 19 4 7 9 15 20 20 21 20 19 15 15
18 22 24 20 16 14 8 15 11 16 14 12 10 6 2 3 6 7 8 11 13 15 15 16 16 15 12 12 12 14 13 15 16 9 6 11 18 20 23 21 17 20 20
18 19 19 18 16 13 13 12 16 15 14 15 9 4 3 6 6 7 9 11 13 14 16 16 14 10 6 11 16 15 11 11 11 10 5 12 15 18 18 22 21 20 18

GFSSE_925_spd_027.txt.gz
Wind_Speed
29 28 26 26 26 26 25 25 25 24 23 23 23 24 23 23 24 24 24 23 22 22 21 21 20 19 19 18 17 16 15 15 13 13 13 14 14 15 14 13 13 13 13
36 28 30 28 25 25 26 25 24 23 23 23 24 23 24 23 23 22 22 22 22 21 20 20 20 20 20 18 18 17 15 16 12 10 12 13 16 16 18 17 15 15 15
35 26 25 28 27 26 25 24 23 23 23 24 23 23 24 23 22 21 21 21 21 21 21 23 24 24 24 22 19 18 18 19 15 11 12 15 17 16 17 17 15 14 14
39 35 29 27 27 26 25 23 23 23 23 23 23 23 23 22 21 21 22 22 22 21 21 22 24 25 24 22 20 19 22 25 16 20 17 13 14 15 14 14 15 13 12
33 35 35 28 26 24 23 23 23 21 23 22 23 22 21 21 21 22 23 22 21 20 21 23 24 24 25 23 19 20 26 24 16 14 13 15 16 16 15 14 14 14 14
34 37 35 28 24 23 22 23 22 22 21 21 23 21 20 21 22 22 22 21 20 20 21 21 22 23 26 23 24 23 23 25 11 14 14 17 17 14 14 15 15 14 15
38 35 33 30 23 22 20 22 21 21 20 21 21 21 21 21 22 22 21 20 20 19 18 18 18 19 22 22 21 21 22 26 16 13 16 16 15 15 14 14 14 14 15
41 35 32 30 23 20 20 21 20 19 19 20 20 20 20 22 22 19 18 17 16 15 15 14 15 15 16 20 20 21 19 26 15 11 13 13 13 12 13 13 13 13 14
30 30 29 26 21 21 21 21 20 19 18 19 19 19 20 20 19 16 14 13 12 12 12 11 11 11 11 13 18 20 17 23 12 11 13 13 12 12 12 11 11 11 12
24 19 21 20 22 23 22 20 19 19 19 19 19 19 18 18 15 14 10 9 9 8 9 10 11 10 13 12 10 17 15 18 17 12 13 14 12 12 13 11 10 10 11
30 20 25 19 20 23 22 20 19 18 19 20 19 20 17 15 12 8 9 7 7 7 8 9 9 9 10 12 12 11 12 13 16 15 15 12 12 12 13 11 10 12 12
30 25 26 24 24 23 22 19 19 20 20 20 18 17 13 12 9 5 6 7 6 5 4 8 8 6 8 9 10 8 8 8 14 16 17 13 11 10 10 10 9 11 11
28 21 22 25 26 25 22 22 22 21 20 17 12 14 14 9 8 3 3 3 3 4 6 6 11 10 10 11 10 12 9 8 11 12 13 11 12 8 8 7 8 9 11
27 22 24 26 26 25 25 24 22 20 19 16 13 13 13 11 10 12 12 7 10 8 11 12 11 9 10 11 12 10 12 12 12 14 14 13 10 9 4 6 8 9 11
23 27 27 27 26 23 21 20 22 23 21 19 14 10 8 9 7 6 3 6 6 7 6 6 8 9 7 7 9 13 12 14 13 13 15 13 13 13 8 3 5 6 8
31 30 25 23 23 24 28 30 25 22 16 11 10 7 8 6 5 2 2 4 4 5 6 4 6 8 7 9 12 14 14 15 11 11 15 19 15 15 9 3 3 6 7
31 31 23 26 23 24 24 22 19 15 13 10 8 4 7 7 4 1 3 5 4 5 4 5 4 5 5 7 10 12 17 9 11 13 14 17 18 11 7 3 4 5 6
34 31 25 23 18 25 22 21 20 11 8 1 2 2 5 5 4 7 7 4 3 5 5 3 4 7 10 12 13 13 11 17 16 14 16 18 20 14 8 4 4 7 7
37 33 28 26 27 26 24 22 10 6 4 6 10 12 14 13 8 10 3 2 4 4 3 5 7 11 13 11 12 13 15 11 10 15 17 15 16 16 5 5 5 5 7
39 38 34 31 29 26 25 16 8 9 5 13 14 15 13 12 10 7 4 4 3 1 4 8 11 11 11 13 13 12 10 15 14 13 12 16 16 15 14 6 8 8 10
40 38 38 34 29 27 27 17 12 14 17 15 18 16 11 8 8 6 7 4 3 4 7 10 9 11 14 10 9 15 15 11 10 14 17 15 18 17 14 16 15 11 10
34 37 38 34 28 25 27 19 16 19 19 21 17 13 11 10 6 4 1 3 7 11 12 9 11 14 12 7 8 12 4 11 9 19 18 20 16 15 17 18 17 14 11
32 38 35 32 27 23 25 23 22 22 24 19 16 15 12 7 5 1 4 5 7 8 9 11 12 11 4 8 8 4 3 1 6 2 16 9 13 15 16 18 21 12 11
28 32 29 26 24 26 26 23 29 29 26 20 21 16 11 9 8 5 3 1 3 6 9 11 12 14 11 4 3 5 8 10 1 4 2 8 10 16 20 21 16 18 18
31 26 26 22 23 23 23 29 31 25 23 26 22 18 15 9 6 5 4 6 10 13 11 12 15 14 9 3 2 6 12 12 10 3 3 5 11 11 12 12 20 20 19
24 21 24 21 22 20 26 25 27 31 29 26 20 16 11 6 4 0 3 8 10 11 13 13 13 5 3 6 8 11 11 6 5 4 3 4 7 11 14 18 16 21 21

GFSSE_925_spd_030.txt.gz
Wind_Speed
28 30 29 28 27 25 25 24 24 25 25 25 26 27 28 28 27 26 26 24 23 22 21 22 22 21 21 22 23 21 18 16 14 16 17 19 19 19 18 17 17 17 14
36 34 33 31 29 26 25 24 24 24 25 26 26 28 28 27 27 25 25 24 24 23 25 26 25 25 25 24 24 21 14 12 12 15 17 19 18 18 20 17 17 16 14
33 35 35 35 30 28 26 24 23 24 24 26 26 27 27 26 26 25 25 26 26 27 27 28 27 26 24 25 27 22 16 16 17 15 17 16 17 17 18 18 18 16 15
37 37 36 37 34 30 27 25 24 23 24 25 25 26 25 26 26 27 26 26 27 27 27 27 26 25 25 28 30 29 22 20 19 16 15 18 20 18 17 17 17 18 16
33 34 36 36 34 30 27 26 25 24 25 26 24 24 24 25 28 28 27 26 27 26 26 26 27 25 26 28 31 30 20 18 16 17 18 19 19 17 17 17 16 17 17
32 35 35 35 34 31 28 27 26 26 25 24 23 23 24 26 28 28 27 26 25 25 24 24 25 24 24 25 29 26 20 14 14 16 16 17 18 15 16 17 17 18 18
30 35 35 33 31 29 28 27 26 26 25 24 22 23 26 27 27 26 25 24 22 21 21 20 22 23 22 23 25 26 25 16 15 14 14 14 15 14 14 14 15 14 16
29 33 34 30 30 30 28 26 24 24 24 24 23 24 25 26 26 24 22 21 19 18 18 18 17 18 20 21 21 24 24 14 14 12 12 13 13 14 13 13 12 13 14
25 20 26 28 27 25 22 22 22 23 23 23 23 24 25 24 23 21 19 17 16 15 15 15 14 15 12 15 15 19 18 17 10 13 13 14 13 12 13 13 12 13 14
25 25 29 23 18 17 20 20 21 21 22 22 23 22 21 20 19 18 16 14 13 13 13 13 11 12 12 11 11 13 15 15 13 13 13 11 11 12 12 13 13 13 14
22 25 34 26 18 21 22 21 21 21 21 21 22 21 20 19 15 14 13 11 10 10 11 9 9 9 9 10 9 10 10 9 10 12 11 8 9 9 11 11 11 11 11
25 27 31 31 24 23 21 21 21 23 23 23 21 20 16 16 13 12 11 9 7 6 5 4 6 7 8 9 9 8 7 7 9 11 10 6 7 5 7 7 8 8 8
20 36 28 23 26 25 22 22 22 23 23 21 17 16 13 9 9 9 8 6 6 7 7 11 13 9 9 9 10 10 9 8 9 8 11 7 6 2 3 4 4 4 5
19 34 27 24 27 24 23 23 23 24 21 16 13 13 12 14 11 13 12 11 11 12 12 10 8 8 8 10 10 11 9 10 9 9 9 8 7 5 3 3 4 3 3
24 27 28 25 28 26 28 26 24 23 19 16 14 14 15 15 14 13 10 9 10 8 7 4 4 4 4 6 7 8 10 12 10 10 10 8 8 8 3 3 5 5 5
25 26 28 29 29 27 27 23 22 20 19 18 15 13 13 13 10 8 8 9 8 5 4 3 4 4 6 5 7 11 12 13 10 10 10 9 9 5 7 7 5 5 4
26 26 29 31 29 29 25 23 24 24 22 16 13 13 14 11 9 8 7 7 5 5 4 1 2 2 4 8 11 12 11 12 14 12 13 14 9 6 7 6 3 4 4
30 32 25 31 32 29 30 27 24 20 18 14 10 13 14 12 11 8 9 8 7 5 4 4 5 8 11 13 11 9 11 11 7 11 13 16 16 3 6 4 3 4 4
38 34 28 30 33 32 29 25 20 16 12 10 10 11 13 14 13 12 9 8 6 5 4 6 8 11 11 8 8 7 7 8 9 9 11 14 16 13 4 1 5 4 3
41 37 33 31 32 30 27 22 16 12 12 14 15 16 16 14 14 12 10 8 4 3 5 8 10 10 10 12 11 6 7 8 5 8 10 12 14 13 9 8 9 7 7
34 40 37 36 35 33 30 23 17 15 17 16 15 14 14 12 13 11 7 3 2 3 6 9 8 10 12 8 7 9 8 4 3 10 9 10 9 9 9 9 10 5 7
39 38 40 40 39 35 32 26 17 15 19 16 18 16 14 12 10 7 3 1 3 5 7 8 9 10 9 5 3 3 2 7 3 15 9 13 3 4 6 9 10 9 8
31 37 40 38 36 35 31 24 17 19 18 23 22 18 15 10 7 5 5 5 3 2 3 4 7 7 6 7 4 3 1 3 3 5 11 2 2 5 6 6 5 6 9
36 36 37 37 36 31 32 29 26 28 27 27 26 20 15 11 8 7 7 5 3 1 3 5 6 9 10 9 5 4 5 5 3 3 6 7 4 6 8 9 9 9 12
37 40 39 35 32 30 31 30 29 31 31 28 25 21 16 13 10 9 8 3 2 5 6 8 9 9 8 6 4 4 7 12 11 5 3 5 8 9 7 8 11 14 15
32 33 32 33 30 27 28 28 30 34 30 28 25 21 18 14 10 5 3 4 7 8 8 9 9 4 2 6 9 8 7 4 5 7 4 7 8 8 6 9 11 14 16

GFSSE_925_spd_033.txt.gz
Wind_Speed
28 30 29 27 27 27 27 27 27 27 26 27 28 29 30 29 29 29 28 26 25 23 23 23 23 24 24 20 18 16 17 19 20 19 20 20 19 19 19 18 19 19 17
30 33 32 30 29 29 28 27 25 25 26 29 29 29 29 29 30 29 29 29 29 25 25 25 25 26 23 18 15 15 16 19 18 20 21 19 19 19 19 19 19 18 18
31 34 33 31 30 29 28 26 26 25 26 27 29 29 28 28 29 30 32 33 31 26 25 26 28 28 27 23 21 21 19 19 18 19 21 22 20 19 19 20 20 19 19
32 35 34 33 33 29 30 28 26 25 26 27 27 26 27 27 30 31 33 33 31 29 26 27 29 30 30 28 25 23 20 18 17 19 21 21 20 19 19 20 20 20 20
32 33 34 35 35 30 31 29 26 26 27 26 26 25 27 28 30 31 32 32 31 28 27 28 30 29 29 26 22 18 17 18 18 20 20 20 20 19 19 20 21 21 21
30 31 35 35 34 32 30 29 29 28 27 25 25 25 27 28 28 31 30 29 28 28 27 26 27 28 27 27 24 19 18 18 17 18 19 18 19 16 16 17 18 18 19
26 31 35 35 35 32 30 29 29 28 25 24 25 26 28 29 28 29 28 26 26 25 25 23 22 24 22 22 24 21 19 16 15 15 16 16 16 15 15 15 15 15 17
26 25 27 29 30 31 29 29 28 26 24 22 23 26 27 27 26 25 25 23 22 21 20 19 18 19 19 19 19 19 14 14 14 14 14 15 14 15 15 15 15 15 16
20 22 21 23 29 29 26 24 25 24 22 22 23 24 25 24 23 22 21 20 19 17 16 16 15 12 15 13 13 14 14 11 12 13 12 12 11 12 13 14 15 15 16
26 27 33 31 23 24 26 24 20 19 21 22 23 24 23 22 20 19 17 16 16 15 14 13 12 12 11 11 10 10 10 10 9 11 12 10 11 10 11 12 13 13 12
30 30 26 19 20 19 16 16 18 19 20 22 23 22 21 18 17 16 14 14 14 11 11 10 9 8 8 9 10 9 7 7 8 10 10 7 7 7 7 8 10 10 10
40 34 29 33 26 19 17 18 20 20 22 22 21 19 17 15 14 13 12 11 10 8 7 7 8 8 7 7 8 9 8 8 7 7 7 4 3 4 5 5 8 8 7
25 22 30 29 19 18 19 19 21 21 21 21 19 17 16 13 12 11 10 8 8 7 7 9 9 8 7 8 10 9 9 8 8 7 4 1 1 3 2 3 4 4 4
24 21 34 23 19 20 18 20 21 22 21 21 18 16 13 13 12 10 7 9 9 9 10 9 10 10 10 9 8 8 10 10 9 8 5 3 2 1 2 2 3 4 6
21 25 30 23 21 21 19 19 21 21 20 18 17 14 13 13 13 15 13 11 11 9 8 8 8 8 7 7 7 10 11 11 10 8 7 5 3 2 2 3 3 3 5
25 30 28 26 23 22 22 22 22 22 18 14 16 15 17 15 15 14 12 11 10 9 8 7 7 6 6 6 8 10 10 10 10 10 10 10 6 2 2 2 2 2 3
30 30 27 23 22 25 25 23 22 20 18 16 17 17 15 13 13 13 12 10 10 9 8 6 6 4 4 6 9 9 11 10 7 10 10 10 6 0 3 5 3 3 2
28 28 26 24 23 26 26 24 22 20 21 18 16 15 15 14 12 13 14 12 10 9 5 4 4 4 7 9 8 9 9 6 7 9 10 12 11 4 7 5 5 5 2
29 27 27 26 27 28 26 22 23 23 20 17 14 14 15 13 11 14 13 11 10 6 3 2 3 5 6 6 6 6 5 8 6 7 10 11 10 7 4 5 4 1 3
28 27 27 29 31 30 26 25 23 21 19 15 13 13 13 15 17 15 13 10 7 5 2 1 5 5 7 10 7 5 7 4 3 5 8 9 7 4 1 2 2 1 2
26 30 30 33 33 32 32 28 24 22 18 16 15 15 16 18 16 12 11 8 7 3 2 3 4 8 11 10 7 8 6 4 3 4 6 5 3 2 0 1 2 1 3
32 36 36 36 37 38 37 32 26 21 18 18 20 18 14 14 14 11 8 8 4 1 2 6 9 9 8 6 4 4 3 3 7 4 7 7 8 2 3 5 3 1 3
33 41 43 41 40 40 36 30 21 20 20 20 21 18 16 13 12 9 8 3 1 3 6 9 8 7 5 5 4 3 0 3 3 10 5 8 5 4 9 6 3 4 6
36 35 36 39 41 40 37 32 28 27 24 22 26 21 18 14 11 7 4 3 5 6 9 11 9 7 6 7 5 8 9 4 2 3 6 10 9 10 9 10 10 9 8
28 34 37 39 38 39 38 35 29 28 28 26 25 22 18 14 11 9 6 5 7 8 9 9 10 8 7 5 5 3 6 9 10 8 3 6 11 12 16 14 13 11 10
28 35 38 36 38 37 36 36 29 26 27 26 25 22 19 16 13 10 8 7 8 11 10 9 7 4 4 5 7 7 7 6 5 6 3 7 9 13 16 16 13 10 10

GFSSE_925_spd_036.txt.gz
Wind_Speed
30 31 32 32 33 33 33 31 31 29 28 27 27 27 28 29 29 29 28 28 27 25 25 24 22 21 20 20 21 24 23 22 23 22 22 21 20 21 20 20 19 19 19
35 34 33 33 33 33 32 31 30 29 28 29 30 30 29 29 29 30 30 30 29 26 24 23 21 19 18 19 21 23 22 22 24 24 22 20 20 20 20 20 19 19 18
33 32 33 34 33 32 31 31 29 30 31 31 30 30 29 30 31 32 31 30 29 28 25 26 24 23 23 23 22 22 21 22 23 24 23 23 21 19 19 20 20 20 19
32 31 31 32 33 32 31 30 31 31 33 32 30 30 30 32 33 34 31 30 30 29 28 29 28 28 26 25 23 21 20 20 22 22 22 22 21 18 18 20 20 21 20
31 31 31 31 32 31 31 32 31 31 31 31 29 30 32 32 32 33 32 31 31 30 29 29 28 25 23 21 22 21 20 20 20 21 22 20 20 17 17 18 18 19 19
28 31 30 31 30 30 28 30 30 32 31 29 28 29 30 29 31 31 31 31 30 28 29 27 27 24 23 21 22 20 19 18 19 19 19 18 17 17 17 16 17 18 18
25 27 29 30 30 29 27 28 29 30 28 28 29 28 29 30 30 29 29 30 28 28 25 25 24 24 25 24 21 18 17 16 17 17 17 17 16 15 15 14 15 15 16
22 26 26 27 28 27 25 27 27 27 27 26 27 28 29 29 28 27 27 26 24 23 23 20 21 21 20 19 17 15 15 14 13 14 15 15 13 14 14 15 16 15 15
22 27 26 28 28 22 23 24 24 25 26 27 27 27 27 26 25 23 22 20 19 19 18 17 16 17 16 15 15 13 13 13 12 13 13 12 11 11 13 14 15 14 13
22 28 33 30 30 20 21 22 22 22 23 24 25 25 25 24 22 20 17 16 16 15 15 16 15 14 13 13 12 10 11 10 11 12 11 9 8 9 10 11 13 13 12
26 26 39 31 25 21 20 19 21 22 21 23 23 23 23 21 18 17 15 14 14 12 11 11 12 11 12 11 10 8 7 8 8 8 7 7 7 6 7 8 10 10 10
33 38 31 19 24 22 21 19 19 20 22 23 23 22 21 18 16 15 13 12 10 11 9 9 9 11 11 10 9 8 8 7 6 6 4 4 4 3 4 6 8 8 9
35 40 38 31 28 28 15 17 17 19 21 22 21 20 18 16 15 13 11 9 8 8 8 11 11 10 10 10 9 10 10 9 8 6 3 1 1 2 1 2 5 6 8
26 32 32 33 32 18 16 17 18 19 22 22 19 18 16 14 12 12 11 9 9 11 12 10 10 11 10 9 7 8 9 8 8 6 4 2 1 2 2 2 3 5 7
22 31 36 33 20 16 14 16 18 19 21 20 18 15 13 13 13 11 10 12 11 11 10 11 10 9 7 6 7 8 8 9 8 8 7 7 4 3 2 4 5 4 5
26 33 40 26 17 18 16 18 19 20 20 18 17 13 11 12 13 13 14 13 11 10 10 9 9 7 7 5 6 8 9 9 9 8 9 9 6 4 4 4 6 4 4
26 30 32 27 19 19 16 16 19 20 18 16 16 16 15 13 13 14 14 13 11 10 9 8 6 5 4 4 7 8 8 4 4 6 7 6 5 2 5 7 5 4 3
25 29 28 25 20 19 17 18 20 20 17 14 17 18 17 15 15 15 13 12 11 11 9 6 5 3 4 6 7 6 3 2 3 5 5 7 4 4 6 6 6 5 3
27 27 25 22 20 19 19 20 19 19 19 17 17 16 14 14 14 15 14 13 12 10 8 5 4 3 4 4 3 1 0 0 4 7 7 8 7 4 2 2 4 2 1
23 23 24 22 20 19 20 21 20 20 20 19 15 14 14 14 15 16 15 14 12 10 6 3 3 4 3 4 1 1 3 4 4 5 6 7 5 4 3 5 6 6 5
24 23 25 25 25 24 25 24 23 24 21 16 16 13 13 14 16 16 15 14 11 6 4 4 3 3 3 4 1 4 3 6 4 3 5 6 5 7 4 3 6 6 7
31 29 28 29 29 29 30 29 26 24 20 18 14 12 12 15 17 16 15 12 8 5 5 4 3 2 4 4 1 2 3 2 2 3 6 4 10 11 4 6 9 6 6
34 36 34 34 31 31 32 30 23 22 18 18 17 17 17 17 18 16 13 10 9 7 6 6 5 2 4 4 3 1 1 1 4 2 6 4 10 8 8 7 8 8 8
27 30 34 34 32 32 32 33 31 31 23 24 25 22 20 19 18 14 12 11 10 7 6 6 5 7 10 7 4 2 4 3 2 4 4 9 12 13 13 11 11 13 11
31 31 33 35 37 34 35 36 34 28 27 21 25 24 23 20 16 15 13 12 9 7 5 5 7 9 6 3 0 3 5 6 8 6 3 5 10 13 17 17 17 15 9
30 31 34 34 36 36 38 38 36 33 25 21 28 27 23 22 19 16 14 9 4 4 6 6 9 6 2 1 4 6 7 5 5 8 5 9 9 15 15 18 19 12 11

GFSSE_925_spd_039.txt.gz
Wind_Speed
29 28 31 34 34 35 36 36 35 33 31 29 27 26 27 27 28 27 26 26 26 23 22 21 22 23 24 24 24 25 24 25 24 24 23 22 21 21 20 19 19 18 19
31 30 31 34 35 34 34 34 33 31 30 29 29 30 31 31 28 28 28 28 26 22 20 21 23 24 26 25 24 24 25 25 25 24 23 22 21 20 20 19 19 17 18
31 30 30 34 34 33 33 32 31 30 30 31 33 32 32 31 31 30 28 28 25 23 23 22 25 25 25 24 23 23 24 24 24 23 23 20 20 19 19 20 20 19 19
30 29 29 33 33 32 32 32 31 31 32 33 34 32 33 33 31 30 29 27 26 26 27 27 28 26 25 23 22 22 22 23 22 22 19 18 18 18 18 18 18 19 19
29 27 28 34 32 32 32 32 32 33 32 32 34 34 35 34 33 30 29 29 27 27 27 26 26 24 23 22 22 20 20 21 20 18 18 17 17 17 17 17 16 17 18
27 27 32 34 34 33 32 31 32 33 32 31 34 35 34 32 31 30 29 28 26 26 26 24 23 23 22 22 21 19 19 18 18 17 17 17 16 16 16 16 17 16 17
28 27 31 32 33 33 32 33 31 32 31 33 34 36 35 33 32 30 28 27 25 25 26 26 25 24 23 20 19 18 17 15 15 15 15 15 15 16 16 16 16 15 15
27 30 28 25 25 30 33 33 31 30 30 32 32 34 34 33 31 29 27 26 25 24 24 25 24 23 20 18 18 16 14 14 14 14 14 14 14 14 14 15 15 14 15
24 34 33 30 23 23 29 31 31 29 30 29 30 32 31 30 29 28 25 23 22 21 21 21 21 19 19 17 16 14 13 12 12 12 11 11 11 12 12 13 14 14 14
26 35 35 33 29 22 22 27 28 28 28 29 32 31 29 27 25 22 21 20 19 18 17 17 17 16 16 15 12 11 11 10 10 10 10 9 8 9 10 11 12 13 13
28 30 37 41 27 25 22 22 23 25 25 27 29 28 26 23 20 19 17 18 17 16 16 14 14 14 13 12 9 9 8 9 7 7 7 7 5 6 7 8 10 10 11
33 45 52 31 22 26 19 21 22 24 25 29 29 26 24 20 18 17 16 14 14 14 14 13 12 12 12 11 10 8 9 7 6 4 3 4 4 2 4 6 8 9 9
32 33 35 38 25 21 22 21 21 24 27 26 26 23 21 18 16 15 14 12 12 11 13 13 13 12 11 10 9 8 7 6 5 4 2 1 3 1 2 5 6 7 8
27 28 29 37 33 23 24 17 23 25 26 26 23 20 18 16 15 14 12 11 12 12 13 14 13 13 11 9 7 6 5 5 4 4 3 1 2 3 1 4 5 6 7
28 27 35 33 34 23 15 19 20 21 23 23 21 18 16 15 14 13 12 13 13 14 13 13 11 9 8 6 5 5 6 6 7 5 4 4 3 3 4 6 6 6 6
28 30 26 29 29 14 14 16 17 18 20 19 17 16 15 13 13 13 15 14 13 13 13 11 9 7 6 4 4 5 6 6 7 7 7 6 6 4 4 5 7 6 4
24 24 26 30 20 15 14 15 16 17 18 19 18 16 13 15 16 15 16 16 14 13 11 10 8 6 5 3 3 4 5 5 5 5 6 6 6 4 4 7 6 5 4
22 26 27 23 18 14 14 14 15 17 18 17 17 16 16 16 16 16 16 14 13 13 11 9 7 5 4 3 3 3 3 1 0 1 3 3 2 2 3 6 7 5 4
21 22 23 20 18 15 16 14 16 18 18 16 17 19 19 15 15 16 15 14 15 12 11 8 6 3 2 3 2 0 1 2 4 5 5 6 5 3 2 3 7 7 7
21 22 24 25 23 20 19 17 17 19 19 18 18 18 16 16 16 15 16 16 15 13 10 7 4 4 3 2 1 2 3 5 5 5 4 2 2 0 3 4 4 4 7
21 22 23 23 22 20 20 18 16 18 20 20 19 16 15 16 16 18 19 18 16 12 10 7 5 3 1 2 3 5 3 6 5 4 3 2 2 4 5 5 3 5 7
26 26 24 25 25 24 22 22 16 18 20 21 19 17 17 17 20 20 20 19 15 12 9 7 4 3 3 5 4 4 1 4 7 6 5 5 4 7 5 7 6 9 7
26 26 25 24 26 26 24 24 21 19 17 17 18 18 18 20 21 21 20 18 15 12 10 6 5 6 5 6 6 2 1 2 2 3 4 3 4 8 8 9 9 7 7
26 26 28 28 29 27 27 23 26 21 18 17 20 20 21 22 22 21 19 17 16 13 8 6 5 5 8 4 3 3 4 3 3 4 2 7 9 9 9 9 9 9 9
26 27 28 25 26 24 27 25 28 23 21 21 22 21 21 22 22 22 20 20 18 13 10 8 7 4 4 3 3 3 4 2 3 6 8 9 12 10 10 9 10 11 10
22 23 24 22 19 22 26 28 30 25 27 22 25 24 23 23 23 23 23 21 18 14 12 8 5 1 6 5 5 6 5 4 6 7 9 13 13 12 10 10 12 11 9

GFSSE_925_spd_045.txt.gz
Wind_Speed
22 24 23 26 30 32 32 32 30 30 28 27 25 24 23 23 22 23 24 26 26 24 24 23 23 22 23 23 25 25 27 27 25 25 26 25 24 23 21 23 20 20 20
25 27 26 27 32 34 34 33 31 29 28 27 25 24 24 23 23 25 27 27 26 24 24 23 23 23 24 25 26 26 26 23 18 21 27 25 24 23 24 24 22 19 22
26 27 27 29 33 34 33 33 32 30 28 26 24 24 25 25 26 27 27 25 24 24 24 23 23 23 23 24 26 26 25 22 18 18 18 20 21 22 22 23 23 23 22
21 26 26 31 32 34 33 32 30 29 27 25 26 26 27 28 28 26 25 24 24 24 25 23 23 24 24 23 23 23 23 22 20 17 17 18 19 20 21 21 21 22 22
19 24 25 32 33 34 33 31 30 28 27 28 30 29 29 29 28 25 25 25 25 24 24 22 24 23 22 22 21 21 18 16 18 17 18 18 18 18 18 18 19 20 20
27 23 27 33 33 33 33 32 29 28 29 32 31 31 30 29 28 27 27 27 27 25 23 22 23 22 21 19 19 19 14 12 14 16 17 18 17 17 18 18 19 18 18
30 28 33 31 33 33 32 29 29 31 32 31 32 31 30 30 29 28 27 27 27 24 23 24 22 20 19 17 18 17 17 19 15 16 16 16 15 15 16 17 17 17 18
26 30 30 29 30 31 30 31 32 30 31 31 32 31 30 29 28 26 26 25 25 25 24 23 21 19 17 16 16 15 13 12 13 13 13 13 13 14 15 16 16 16 16
26 32 26 22 25 28 30 31 31 31 30 32 32 31 29 27 27 26 25 25 26 26 24 21 19 17 15 14 14 15 14 13 11 11 12 11 11 12 13 14 13 13 15
28 38 33 20 19 24 28 30 30 30 32 30 30 31 27 25 25 24 25 25 25 24 22 19 17 15 13 12 12 12 7 11 10 9 9 9 9 9 10 11 11 11 12
29 37 36 34 16 20 25 29 28 29 31 29 28 28 27 26 20 17 18 22 22 20 18 17 15 12 10 10 11 10 8 8 8 8 8 7 5 6 6 8 9 9 11
26 32 36 41 36 32 26 24 23 20 25 25 28 24 20 21 15 14 19 18 17 16 15 15 12 10 9 6 4 7 7 6 7 7 7 5 5 3 5 6 7 8 9
20 33 32 32 36 31 35 22 19 20 18 20 28 20 19 16 17 14 15 14 14 14 12 12 9 4 4 5 4 5 5 5 5 5 6 2 3 2 4 5 6 7 8
24 24 32 33 34 31 30 29 23 19 21 18 14 12 18 14 16 14 14 13 12 12 11 9 6 6 5 6 4 3 4 5 5 5 3 3 2 5 1 6 6 7 7
25 29 30 32 31 31 34 27 17 19 20 17 16 12 17 14 13 13 11 13 12 10 11 8 7 6 5 4 2 2 4 6 5 2 1 5 2 5 6 4 8 8 7
27 28 34 25 24 30 22 20 19 22 22 16 17 17 14 12 12 11 11 10 10 11 10 8 8 7 6 5 2 3 3 2 1 2 1 1 5 3 4 7 9 9 8
22 27 24 30 27 27 20 23 23 19 17 14 16 15 13 13 14 12 12 11 11 10 10 8 8 7 6 4 2 1 1 0 1 2 2 2 0 2 1 4 5 8 7
32 29 26 29 34 27 28 31 17 21 19 16 13 13 14 14 13 12 11 11 11 11 10 10 10 8 7 5 3 2 1 2 3 3 2 2 2 1 0 5 7 8 8
29 30 27 30 29 25 26 21 14 13 14 15 16 15 15 16 14 13 12 11 12 11 10 10 8 8 7 5 4 3 3 5 4 4 4 3 3 3 2 1 6 10 10
30 31 28 28 28 20 17 15 16 16 17 18 18 17 16 14 12 13 12 12 13 11 10 10 10 8 6 4 5 6 7 6 6 7 7 6 5 5 5 6 7 10 11
26 28 26 26 27 18 18 19 18 18 19 18 17 16 15 15 14 15 14 14 14 13 13 12 11 9 7 5 6 9 9 10 9 9 9 9 7 7 6 7 9 9 6
28 27 27 28 27 24 19 19 18 18 20 19 18 16 16 16 17 17 16 15 16 15 15 15 14 11 8 7 5 6 4 5 13 13 12 11 9 9 9 10 9 10 11
29 29 29 29 27 25 22 19 16 15 16 19 19 19 19 20 19 19 18 17 16 16 17 16 15 14 12 9 7 2 3 5 13 11 14 12 10 10 10 11 11 11 12
29 28 28 29 28 25 23 20 20 20 21 19 18 19 18 20 18 20 18 17 17 17 17 17 15 13 11 9 5 8 11 10 4 5 10 13 12 12 11 10 11 11 12
30 30 29 29 29 28 27 25 21 19 17 17 20 18 19 18 20 19 18 19 18 18 16 15 13 12 10 6 9 10 9 10 12 11 9 10 12 11 11 10 10 11 13
31 31 30 30 30 29 28 25 21 19 20 20 15 18 18 19 18 20 22 21 21 20 17 15 14 13 10 7 9 11 11 10 12 13 10 14 13 15 15 10 12 12 12

GFSSE_925_spd_048.txt.gz
Wind_Speed
19 25 24 27 32 32 33 33 31 29 28 27 26 25 25 25 26 28 30 30 28 27 25 24 25 25 25 27 29 30 29 29 30 28 30 27 26 25 24 24 24 26 25
20 16 24 25 30 31 32 32 31 29 28 27 26 25 24 25 27 28 30 29 28 27 25 25 24 25 27 28 28 26 23 25 31 31 28 26 26 25 25 25 24 24 25
28 13 22 25 29 29 31 31 29 28 27 27 26 25 25 26 28 29 29 29 28 27 24 24 24 24 27 27 26 23 20 15 12 15 26 25 24 23 23 25 25 24 23
17 17 20 27 30 29 30 30 28 27 27 26 26 27 27 28 29 29 29 29 27 26 24 23 24 26 25 25 26 24 23 28 25 27 25 22 20 21 21 22 22 23 22
31 24 18 24 30 33 32 30 28 27 26 26 27 29 30 29 29 28 29 29 27 25 24 23 24 24 24 22 19 16 16 21 23 19 23 22 20 20 20 20 20 20 21
36 33 31 24 28 29 31 30 28 27 27 28 30 31 29 28 27 28 29 28 26 23 23 24 23 22 21 18 16 15 18 17 25 22 20 19 20 19 19 20 20 20 20
21 27 31 22 21 29 30 29 27 27 29 31 30 30 29 29 29 28 29 28 26 24 24 23 22 20 20 18 15 17 21 24 21 20 18 18 19 18 19 19 19 19 19
26 26 27 28 29 27 28 29 29 30 31 31 31 31 30 30 30 30 29 28 25 26 24 22 20 19 18 18 15 17 18 20 19 18 15 17 16 16 17 17 17 18 18
27 30 29 28 27 25 23 27 30 32 31 30 31 32 30 29 29 28 27 26 25 25 23 20 19 18 17 18 20 18 17 13 15 21 19 15 14 14 14 14 15 16 16
32 30 30 29 27 19 19 22 28 29 32 31 30 30 29 28 28 26 25 26 26 23 21 19 17 15 16 17 16 13 13 14 17 14 13 14 12 11 11 11 12 13 14
30 32 31 30 28 33 22 19 22 25 26 26 28 28 28 28 28 25 26 25 23 20 18 17 14 12 14 18 13 13 13 12 15 11 12 10 8 8 9 9 9 11 11
28 29 31 33 36 38 41 21 19 20 23 26 27 26 28 26 20 23 23 21 19 17 15 13 10 9 9 9 10 12 11 11 7 7 10 6 6 6 6 7 8 9 9
22 32 34 35 33 32 36 34 26 25 19 25 25 21 23 20 18 21 19 17 17 14 14 11 9 4 2 9 5 8 6 10 7 5 6 3 6 6 6 6 7 7 8
21 25 31 34 33 33 33 31 29 21 24 30 17 16 16 20 14 16 15 13 14 13 10 9 4 8 5 6 7 7 4 4 5 2 5 6 0 5 5 6 6 7 7
24 25 24 28 36 36 37 34 27 22 20 15 16 16 12 10 17 11 17 15 11 14 10 11 7 7 7 6 5 4 4 5 6 4 4 6 5 4 7 6 8 9 8
26 28 28 27 31 35 27 29 24 15 19 18 21 16 16 13 12 17 15 16 15 12 11 9 8 9 7 5 3 2 2 5 2 2 5 3 4 5 6 10 10 10 9
21 30 27 30 36 34 30 32 22 23 24 21 15 17 16 10 17 11 13 9 11 12 12 10 11 8 7 5 6 2 1 3 1 1 0 3 3 1 0 6 7 10 9
26 21 24 24 34 37 34 24 27 28 20 11 13 14 17 16 13 12 14 12 13 13 12 11 10 9 11 10 7 5 4 3 5 3 3 5 2 2 2 3 8 10 10
30 28 33 31 38 29 26 32 35 25 15 15 19 19 20 21 14 16 13 15 16 15 14 13 11 13 11 9 8 10 7 6 7 5 6 4 6 0 2 2 2 7 11
27 25 27 26 38 29 31 41 34 25 25 25 27 25 22 21 18 18 16 16 18 15 14 13 11 12 8 11 11 9 11 12 11 10 9 9 7 7 5 2 3 8 12
31 28 29 31 32 31 28 29 27 24 21 26 23 26 26 25 22 21 20 20 17 16 16 17 14 12 13 7 7 11 17 20 16 14 12 11 9 10 8 11 9 8 10
34 34 33 33 33 33 32 33 25 24 24 25 24 25 21 21 21 21 22 21 19 18 18 17 17 15 15 15 7 4 2 4 16 16 15 16 14 12 9 8 11 10 9
33 35 35 36 35 34 28 27 24 24 23 25 23 20 23 20 20 20 21 18 19 20 19 20 20 18 18 13 12 4 1 3 3 16 19 16 12 14 14 12 11 11 12
35 37 35 33 34 36 33 29 24 22 20 23 22 22 25 23 22 21 22 21 18 20 17 21 20 22 17 12 14 11 8 4 0 4 10 19 18 14 16 18 14 12 10
34 37 36 37 38 35 30 26 29 23 22 24 30 27 26 21 20 23 20 21 22 19 19 19 21 21 16 11 9 5 7 8 11 9 4 9 15 19 20 21 19 14 11
32 33 37 36 36 33 35 32 24 22 22 19 22 29 25 20 20 24 23 22 23 22 22 21 21 19 16 16 10 10 8 4 6 5 3 6 9 12 13 11 15 14 13

GFSSE_925_spd_051.txt.gz
Wind_Speed
16 17 22 26 26 33 35 34 32 31 30 29 30 31 31 33 34 34 32 31 31 29 28 28 30 31 31 31 31 33 33 31 29 32 31 29 28 27 26 27 29 27 26
18 10 20 22 24 30 32 33 33 32 31 30 30 31 32 34 36 34 32 32 30 28 28 28 28 30 31 31 31 33 33 33 30 29 29 27 27 26 26 26 25 25 26
20 24 16 25 26 27 31 32 32 31 30 30 31 32 33 35 36 33 31 32 31 28 27 27 29 31 30 27 24 20 15 10 20 27 28 27 25 24 25 25 25 24 24
27 37 8 23 27 28 30 31 31 31 31 30 31 32 34 35 35 33 31 32 30 28 27 26 29 29 26 24 24 27 33 28 25 24 25 24 23 22 22 22 23 23 23
18 30 39 31 29 28 29 30 30 31 30 31 32 34 35 34 35 32 31 31 30 28 26 28 28 27 24 23 22 21 25 21 20 22 24 24 24 21 21 20 21 22 23
17 21 35 45 31 30 32 32 30 30 31 33 34 34 34 33 34 31 30 30 28 27 27 27 25 23 21 21 21 22 22 20 22 22 24 24 23 20 21 20 21 21 21
20 26 32 31 31 23 26 31 30 31 32 33 33 34 33 32 32 31 28 28 28 27 26 25 23 20 18 19 24 26 24 21 21 23 23 22 21 19 19 18 18 19 19
25 26 25 23 30 15 25 28 30 32 32 32 32 33 32 32 32 31 28 28 28 27 25 23 22 20 18 19 23 28 20 18 18 21 21 20 18 17 17 17 18 18 19
20 26 22 24 26 29 25 32 33 33 33 32 31 32 33 32 32 30 27 27 27 25 24 22 21 19 19 19 20 21 20 18 19 19 19 18 16 15 15 15 16 17 17
28 27 32 35 32 31 29 27 27 30 31 32 32 32 31 30 30 28 27 27 25 24 22 21 20 20 21 18 16 19 19 22 17 16 16 15 14 13 13 13 14 14 15
31 33 37 36 37 35 33 30 24 26 29 30 31 30 30 29 27 26 26 25 22 21 20 18 18 21 19 16 15 16 16 14 12 14 13 11 11 10 11 11 12 13 13
24 29 36 35 34 35 32 33 29 26 28 29 30 28 29 27 27 26 26 23 20 19 17 14 14 17 14 10 11 13 13 11 11 11 10 7 9 8 9 10 10 10 11
25 27 28 31 32 37 35 35 34 30 28 29 28 28 25 24 24 24 23 21 19 16 15 13 12 8 4 11 11 9 13 12 9 8 8 6 6 7 8 8 8 9 9
25 29 32 35 36 34 35 35 33 29 31 30 23 25 24 23 21 22 20 18 17 15 15 11 7 11 11 8 7 8 7 8 8 6 6 6 5 6 6 7 7 8 8
25 28 33 34 32 33 35 35 31 28 29 25 19 21 20 17 19 20 18 17 16 14 13 11 12 10 8 9 8 6 7 8 6 4 5 6 6 2 6 7 7 8 9
23 25 33 35 35 35 30 36 33 28 24 18 27 21 17 20 18 19 17 18 18 17 13 12 12 8 9 8 7 5 6 7 4 5 4 2 4 4 1 8 8 10 10
22 28 31 39 40 39 36 39 37 26 19 21 23 19 14 15 14 14 19 20 18 18 17 14 10 10 12 8 7 2 5 6 3 2 1 1 1 0 1 3 10 12 10
27 30 29 36 41 41 41 42 38 25 24 30 27 14 13 15 11 15 15 16 17 17 17 15 17 13 12 10 11 7 8 5 4 2 5 5 3 2 2 2 6 11 11
26 31 36 36 38 40 35 34 37 25 22 32 19 14 15 19 15 17 15 17 15 17 17 16 15 15 14 14 14 11 11 9 7 4 7 8 4 7 5 4 4 6 9
27 23 29 31 37 34 37 37 35 31 19 23 23 20 24 23 23 17 19 19 18 21 19 17 17 17 17 17 13 15 16 14 12 11 12 12 9 9 8 7 7 6 7
27 31 32 30 37 37 33 29 30 31 28 24 27 24 26 25 25 24 24 19 20 21 21 21 18 20 16 14 15 8 13 15 17 16 15 14 13 14 13 11 10 10 11
28 32 31 34 37 36 23 33 29 30 26 22 27 25 31 31 28 28 28 25 22 21 22 25 25 19 19 14 8 2 1 3 19 19 18 17 17 15 14 13 13 11 12
30 31 32 32 41 32 27 27 27 27 25 28 29 33 30 33 32 29 28 27 23 24 25 25 27 24 20 16 17 7 1 3 1 11 22 19 20 21 19 16 14 14 15
33 34 35 35 37 35 34 29 31 27 23 28 31 32 32 31 30 29 26 25 25 26 26 25 25 25 20 18 15 17 8 3 2 2 9 19 17 19 21 23 21 21 18
34 36 37 40 40 39 39 39 36 32 29 33 34 33 32 29 29 27 27 26 25 24 25 22 25 26 25 20 19 9 8 7 8 7 3 8 10 22 24 24 21 23 21
36 37 39 41 43 43 46 45 36 33 35 32 34 35 31 31 29 26 20 29 25 24 22 24 23 23 23 18 16 11 7 3 8 9 5 9 7 8 9 20 22 25 26

GFSSE_925_spd_054.txt.gz
Wind_Speed
21 26 23 23 26 26 28 28 31 35 35 34 38 40 40 38 36 36 35 34 32 30 29 30 30 31 31 31 32 32 30 31 32 30 28 27 25 25 25 27 28 27 27
30 27 25 15 24 24 26 29 30 33 36 37 39 40 38 37 36 37 35 34 32 30 29 30 30 30 29 28 33 34 32 30 30 28 28 26 25 24 24 25 27 29 28
28 32 24 14 16 24 28 30 31 31 34 37 39 39 37 36 36 36 34 33 32 30 29 29 28 27 26 23 24 18 23 27 27 29 28 26 25 24 24 25 25 25 26
8 27 33 37 34 20 27 29 31 33 36 38 39 40 38 37 37 37 35 33 32 31 29 26 26 27 28 28 26 27 23 23 23 24 26 25 24 22 23 23 23 23 23
15 32 34 37 34 26 28 30 32 34 36 38 40 40 39 38 38 38 36 34 33 30 26 25 27 25 23 23 29 24 22 22 23 26 26 25 25 21 22 22 23 22 22
32 28 30 23 32 39 39 37 33 35 36 37 38 40 38 38 38 38 36 35 33 29 27 27 25 24 22 25 25 25 24 23 24 25 26 24 24 21 22 21 21 22 22
24 26 25 28 31 33 31 28 35 35 36 37 38 40 38 37 36 37 35 34 31 30 27 26 24 25 25 27 24 22 23 24 24 23 24 23 21 20 20 20 20 20 20
20 26 26 27 28 30 22 22 20 31 34 36 38 38 38 36 35 34 34 33 30 27 25 23 22 24 30 23 21 20 21 22 23 22 22 22 19 20 20 19 20 19 20
16 28 26 27 30 25 25 27 16 25 30 33 34 37 38 35 34 32 32 31 29 26 24 21 21 22 25 23 16 16 18 19 20 19 19 19 18 18 18 18 18 17 18
25 30 31 26 27 30 36 33 29 26 31 33 34 36 37 33 32 31 30 29 27 25 23 21 22 20 22 23 20 20 17 16 16 17 16 17 17 16 16 15 15 15 16
29 29 35 34 37 38 37 35 29 28 28 31 34 37 35 32 30 30 30 27 25 24 22 21 20 18 19 20 20 17 15 14 14 15 14 13 15 14 13 14 13 13 14
25 30 37 43 43 41 38 34 34 35 33 34 34 35 35 33 30 30 27 25 23 21 21 21 19 15 13 13 15 15 13 13 13 13 12 12 12 11 12 11 11 11 11
29 31 38 43 39 36 46 41 37 37 36 34 33 32 34 33 31 29 27 23 22 18 17 18 14 8 11 11 10 12 11 10 11 10 11 8 9 9 9 10 10 10 9
23 30 36 36 36 32 31 36 39 40 37 34 34 33 33 32 31 29 26 23 21 17 16 14 11 11 13 10 8 8 8 8 9 9 9 7 7 8 9 7 8 9 9
22 27 34 37 31 38 38 40 41 39 37 36 34 33 32 33 31 26 24 20 18 17 15 12 12 12 11 9 9 8 8 8 8 7 5 6 6 8 9 8 8 9 9
22 27 32 34 34 38 39 37 39 39 36 33 32 29 28 28 26 24 21 18 18 17 16 13 13 12 11 9 7 6 7 7 6 5 6 6 6 5 5 7 9 10 10
19 27 32 34 34 38 37 28 35 37 30 35 28 26 24 20 20 18 19 19 20 20 17 14 15 14 11 10 8 8 9 7 5 4 6 6 5 3 4 4 9 10 11
21 25 28 32 33 37 37 32 31 30 34 34 29 20 18 17 14 16 17 19 19 21 18 17 19 16 13 14 12 11 11 9 8 6 6 5 3 5 4 4 5 12 12
23 25 26 31 32 35 35 32 29 27 27 26 22 21 18 17 12 15 15 14 16 21 22 24 22 18 17 17 17 14 12 13 12 9 9 9 7 8 8 6 7 9 11
19 20 26 30 29 34 34 34 31 31 21 21 27 24 15 17 16 15 14 14 15 20 22 24 22 20 19 18 17 18 17 16 13 11 12 12 11 10 11 10 10 11 11
23 25 25 25 30 34 31 27 27 26 21 20 27 23 15 16 17 16 16 17 18 23 26 25 22 20 20 19 17 12 17 17 17 16 14 14 14 12 14 13 13 13 13
21 26 28 32 33 30 30 31 25 26 24 28 23 25 26 24 22 24 26 25 24 23 24 25 25 23 22 19 13 5 2 8 17 21 19 19 18 18 18 17 16 16 16
26 29 30 32 36 32 31 32 26 27 26 25 25 26 30 27 27 28 25 27 26 25 26 28 28 28 26 22 20 10 2 4 1 6 17 20 19 22 22 22 21 20 19
29 28 31 33 34 37 34 28 29 29 26 26 28 28 31 33 31 32 32 29 28 29 31 30 29 31 28 25 18 18 10 6 3 1 6 13 20 22 24 24 24 24 22
29 31 33 37 37 37 37 31 31 28 28 29 30 31 35 35 36 32 34 32 29 27 31 33 31 31 29 28 24 10 4 1 7 1 2 7 11 19 22 23 26 25 23
30 31 33 35 40 39 34 35 35 34 36 31 32 34 39 37 36 33 32 29 29 27 28 31 28 25 30 30 25 20 19 10 5 6 5 6 7 14 13 11 18 22 25

GFSSE_925_spd_057.txt.gz
Wind_Speed
14 21 21 22 24 28 26 30 34 36 40 40 41 43 42 40 37 36 35 34 35 35 32 31 30 29 29 28 27 27 30 30 28 27 26 25 25 26 26 27 28 28 27
27 26 25 25 24 24 21 27 31 34 35 38 39 40 40 38 38 38 38 39 37 34 32 31 31 29 30 28 27 26 28 29 28 27 26 24 24 24 26 28 28 27 25
28 30 29 30 30 23 15 19 27 31 35 33 34 37 38 40 40 40 41 39 36 34 31 30 28 27 26 25 25 24 25 27 28 29 30 28 25 23 24 25 25 24 25
30 29 30 32 29 28 8 11 26 31 33 31 34 36 37 40 41 41 41 38 36 33 29 27 25 22 21 21 23 23 24 25 25 26 28 27 25 23 23 23 23 23 23
28 30 35 35 16 17 38 35 32 32 32 31 34 35 35 39 40 41 41 38 35 31 28 26 25 26 27 27 23 24 24 25 25 27 28 27 26 22 23 23 24 25 24
21 25 28 28 23 32 36 32 27 32 33 31 33 34 36 39 40 41 40 36 33 31 26 23 24 26 30 26 25 26 25 24 25 26 27 26 24 21 22 22 23 21 22
30 26 34 27 33 35 34 35 33 38 38 33 32 34 37 38 40 41 38 36 33 30 28 24 25 29 28 27 26 26 26 24 24 25 25 25 22 21 21 21 21 21 22
29 34 39 34 31 28 23 33 30 30 38 34 32 31 36 37 39 39 37 35 33 31 30 28 27 30 26 24 24 24 25 23 23 23 24 24 21 20 21 21 21 20 21
26 27 29 31 29 36 26 29 27 23 32 31 31 32 35 36 37 37 35 33 31 30 30 30 28 26 23 21 20 21 22 21 21 22 22 22 19 19 19 19 19 20 20
18 26 29 30 36 36 33 34 36 25 30 32 31 31 34 34 35 35 33 32 30 28 30 27 28 23 22 20 20 19 19 18 19 19 20 20 18 17 17 18 18 19 18
16 22 28 33 40 37 40 41 35 30 32 34 33 33 34 34 34 33 32 30 29 27 28 26 26 25 25 23 20 17 16 16 17 18 18 18 16 15 15 16 17 16 16
13 26 30 37 39 40 37 40 34 31 31 32 35 34 34 34 33 32 30 29 28 26 24 24 21 22 21 21 19 15 15 14 14 15 15 15 14 14 13 13 14 13 14
21 28 39 40 40 44 47 41 39 34 32 33 36 36 34 34 32 31 30 29 28 26 24 20 17 16 17 16 16 14 13 13 13 13 13 13 12 12 10 10 11 11 12
18 26 37 42 44 35 49 46 36 38 40 38 37 37 35 34 32 30 29 26 26 24 23 17 12 15 15 13 12 12 10 10 10 11 12 9 10 10 9 9 8 9 11
20 23 27 33 34 37 36 34 31 34 39 39 39 38 36 36 32 31 28 24 24 23 20 16 13 17 13 11 10 8 10 10 10 9 9 9 9 9 8 8 8 10 10
19 27 31 29 25 31 32 29 33 31 35 39 39 37 37 37 35 30 26 25 22 20 17 13 14 13 12 11 9 8 8 9 8 8 7 6 6 7 9 10 9 10 9
21 21 32 30 31 33 30 33 35 35 34 34 36 35 37 35 32 26 25 24 21 17 16 14 15 13 11 11 10 9 8 8 7 6 5 5 4 6 8 11 11 11 11
19 24 28 28 30 35 33 33 36 34 36 33 35 37 33 29 23 24 25 22 18 17 17 16 15 16 13 13 11 11 10 10 9 8 5 6 6 8 8 8 7 12 13
19 21 24 28 27 34 37 37 29 27 33 31 30 26 24 23 22 24 22 19 17 18 19 18 18 18 18 16 13 13 13 13 12 10 8 9 9 9 8 7 7 9 11
19 23 24 24 29 26 30 26 25 24 29 29 23 18 21 22 20 22 18 14 13 19 23 22 21 22 20 19 17 16 15 17 15 14 12 12 12 11 9 8 8 7 8
15 19 25 25 27 25 31 31 27 23 26 29 31 20 21 22 19 17 15 14 15 17 21 24 26 25 23 19 14 14 17 18 19 19 18 17 16 15 14 12 12 9 10
17 18 20 26 31 31 31 26 20 26 28 29 34 30 21 18 16 16 16 15 17 18 20 23 26 26 24 20 10 4 1 8 20 23 21 20 20 19 19 17 15 15 16
20 21 21 24 28 29 32 28 24 24 21 21 27 31 23 22 19 16 19 20 19 21 22 24 27 28 26 21 21 9 2 4 0 9 19 20 20 22 21 21 21 20 19
19 21 21 26 29 28 30 27 25 22 23 24 29 30 27 23 25 22 23 21 22 26 26 27 29 31 29 24 21 16 9 7 4 2 5 12 17 19 23 23 25 24 24
20 24 24 28 31 29 29 32 28 26 22 25 26 30 31 29 29 29 29 27 28 29 31 31 31 31 30 26 24 12 12 11 9 3 4 6 7 15 19 21 22 24 26
24 24 27 29 34 37 34 35 34 34 34 30 31 33 33 33 33 35 34 35 34 33 37 30 27 28 26 26 30 28 23 11 10 8 4 8 7 12 13 16 17 15 16

GFSSE_925_spd_060.txt.gz
Wind_Speed
23 27 29 26 35 32 28 30 36 37 37 33 35 36 36 33 32 34 34 35 35 34 31 30 29 29 28 28 27 27 28 30 28 29 27 26 26 27 27 29 28 29 29
28 29 32 29 32 32 31 29 30 30 37 38 34 34 33 33 33 34 35 37 37 34 32 31 31 30 29 28 28 29 29 27 29 29 26 26 27 27 27 28 28 26 27
28 29 30 34 31 32 32 33 34 37 38 36 34 34 33 32 33 35 37 38 37 34 31 32 31 29 28 27 27 28 28 29 30 30 29 27 25 25 25 23 26 26 26
33 30 31 33 33 36 39 37 39 40 38 38 34 32 31 31 34 36 37 38 36 34 30 29 28 27 27 28 27 26 27 28 29 30 30 29 25 24 23 24 23 23 23
32 34 34 34 34 34 35 38 37 39 38 37 34 32 30 30 31 36 38 38 36 32 27 25 25 25 26 26 26 26 27 27 28 29 28 28 26 24 25 26 24 24 25
31 31 36 36 35 30 26 34 34 35 33 36 36 32 30 28 31 37 37 35 33 31 29 25 30 28 27 27 27 27 27 28 28 29 29 27 26 24 24 23 24 24 24
27 28 35 35 23 19 25 31 34 32 35 38 38 33 29 28 31 35 36 34 31 28 30 30 32 30 29 29 29 28 27 26 27 28 28 26 25 23 23 23 24 24 24
24 24 28 29 17 22 28 32 35 32 35 36 37 35 30 28 31 33 35 34 30 28 31 33 31 30 29 29 28 27 26 25 25 27 25 25 23 24 23 23 23 23 23
22 30 23 23 28 29 33 35 34 33 29 35 36 34 32 30 32 36 37 34 30 28 32 33 31 29 27 26 26 25 24 23 25 25 25 25 22 22 22 23 22 22 22
18 24 27 31 32 32 31 36 37 32 31 34 37 37 36 34 33 35 36 33 32 31 33 33 29 27 25 24 23 23 23 22 23 22 23 22 21 20 20 21 21 21 21
16 25 27 34 42 40 43 42 45 41 28 34 37 36 36 34 33 35 35 34 33 32 31 29 26 24 23 22 20 20 21 21 21 21 21 20 18 18 18 19 19 19 19
8 16 26 33 38 41 39 41 45 39 38 31 35 37 36 34 33 35 34 33 31 31 30 29 28 26 24 21 19 18 18 19 19 19 19 18 17 16 16 16 16 17 17
10 17 28 35 35 31 35 35 34 32 37 38 39 38 36 35 34 34 34 35 31 31 30 28 25 25 22 19 17 16 16 17 17 17 17 16 15 14 14 14 13 13 14
14 27 33 36 29 36 37 38 34 33 35 33 35 38 37 35 34 34 34 34 33 28 27 26 24 22 19 17 14 13 13 14 15 16 16 14 14 13 12 12 12 10 10
18 22 31 37 38 40 35 33 35 32 37 34 33 37 37 36 35 33 31 31 31 26 23 21 21 20 18 15 13 11 10 12 12 13 13 12 13 11 11 10 8 11 10
16 18 24 30 36 34 37 32 33 36 40 38 35 32 36 36 35 33 30 26 27 23 20 19 18 16 13 12 13 10 10 10 9 9 9 10 9 10 10 10 8 11 10
11 22 24 26 32 32 33 25 27 34 37 38 40 37 36 35 35 33 31 26 23 22 19 18 17 15 14 12 10 10 9 9 8 7 7 8 8 8 10 12 10 11 12
18 20 22 24 28 29 30 21 24 33 33 36 37 36 35 37 33 31 29 26 22 20 18 16 17 15 12 12 11 10 10 10 9 8 7 8 6 6 8 10 11 12 13
18 19 19 24 28 30 28 24 25 26 31 34 35 34 38 35 32 28 25 24 22 19 17 17 15 14 14 12 11 10 10 10 10 10 9 9 8 7 6 7 7 10 14
15 18 20 22 27 31 27 30 25 29 28 32 36 42 35 33 28 25 24 21 19 18 18 18 15 15 15 14 12 12 12 14 14 15 14 12 11 11 9 7 8 9 12
14 17 21 24 23 30 34 29 24 24 26 26 27 29 27 26 25 24 23 17 20 20 22 18 17 17 19 15 13 13 15 17 19 20 19 18 16 15 14 11 11 12 11
15 15 18 22 26 26 28 26 25 26 27 25 25 26 26 20 16 18 16 16 17 18 19 15 18 21 21 19 10 3 2 8 22 24 24 22 20 18 18 16 16 15 14
18 20 20 22 28 29 30 31 22 20 18 24 27 25 29 23 19 19 16 20 16 19 14 17 21 23 24 22 22 9 1 4 1 10 23 25 23 22 21 19 20 20 20
20 21 21 24 27 31 33 30 25 20 17 19 34 28 30 28 27 18 19 18 18 18 18 20 21 24 25 23 20 21 16 6 3 2 7 12 21 25 24 21 21 22 23
23 23 22 24 25 27 35 31 31 28 24 21 29 34 33 35 23 23 23 22 19 21 23 21 23 27 28 28 24 12 21 13 11 4 3 5 10 17 16 18 18 19 21
26 27 24 27 29 30 35 35 40 36 34 31 27 29 38 42 34 29 26 25 25 26 26 25 28 28 27 30 30 27 21 11 15 9 3 6 10 9 13 12 13 14 14

GFSSE_925_spd_063.txt.gz
Wind_Speed
20 24 32 31 31 36 42 39 37 36 37 39 42 41 34 34 34 33 32 32 31 29 27 27 27 25 24 25 26 28 31 30 30 30 29 27 27 27 29 30 28 28 31
22 28 33 31 35 40 38 40 41 37 37 39 42 40 35 33 34 34 32 31 31 28 27 27 26 26 25 26 28 30 32 31 31 31 29 27 27 26 27 29 28 28 29
19 22 26 25 27 33 39 42 39 38 39 37 38 44 37 34 33 33 32 32 32 30 28 28 27 26 26 26 28 30 30 30 29 28 26 24 23 25 25 28 28 26 26
21 21 24 26 30 34 38 37 37 39 40 38 38 37 39 35 34 33 34 34 34 31 29 28 26 26 26 26 26 27 28 29 29 27 22 22 22 22 23 24 23 24 25
23 22 23 34 33 36 35 36 35 39 40 40 39 37 38 36 34 34 35 34 35 33 29 28 27 26 27 27 27 29 30 29 28 24 23 24 25 22 22 23 24 25 24
29 30 30 30 29 31 30 36 37 40 39 38 40 38 38 36 37 34 34 33 32 30 27 27 27 28 28 28 27 27 29 28 25 23 25 23 22 21 22 23 24 25 24
33 28 32 31 35 30 33 35 35 36 38 37 37 37 39 38 37 35 32 33 31 30 29 27 27 29 28 28 28 28 27 27 23 24 23 22 22 23 21 22 23 23 23
29 26 27 33 36 33 32 30 32 34 37 40 37 40 41 38 36 34 30 31 31 30 32 31 30 30 29 29 27 28 27 25 23 23 22 22 23 23 20 22 22 22 22
26 30 33 34 30 26 29 29 32 37 38 40 39 40 44 39 35 32 31 31 32 33 33 32 31 30 29 28 27 26 25 25 22 22 21 21 21 22 21 21 21 21 21
12 23 25 34 27 27 32 33 35 35 40 41 41 38 40 39 36 32 30 28 32 34 32 31 31 29 28 27 26 25 24 23 20 20 18 21 21 20 20 20 20 20 20
10 16 28 29 34 36 38 38 37 38 35 38 39 38 38 37 37 31 25 28 32 34 32 30 29 28 27 25 23 23 21 16 17 17 18 21 19 19 19 19 19 19 18
2 16 24 33 37 41 42 39 35 30 32 31 35 37 33 38 39 27 29 30 32 34 31 29 28 28 24 20 21 20 15 16 14 15 17 19 18 17 17 18 17 17 16
3 9 22 16 36 27 40 42 40 36 34 33 37 40 37 38 38 34 32 30 32 32 25 26 27 21 21 20 18 16 19 14 13 14 16 17 16 16 16 16 16 15 14
7 9 20 34 32 34 33 42 37 28 38 32 31 39 39 38 36 37 34 31 30 28 28 24 24 24 22 20 19 19 17 14 13 13 14 16 16 15 14 14 14 13 11
12 24 21 32 33 31 37 38 34 28 32 33 33 39 40 40 39 36 34 31 31 30 30 29 27 24 21 19 17 17 17 15 14 12 12 14 14 13 12 12 12 12 11
18 20 28 25 24 31 32 35 35 26 34 33 31 38 39 41 41 38 36 32 31 28 27 27 25 23 18 17 16 14 15 15 14 13 11 12 14 13 12 12 11 12 12
18 18 25 26 25 29 29 30 27 30 38 36 32 36 39 40 39 36 36 33 30 27 24 24 23 21 18 15 14 13 13 14 13 13 12 11 11 14 14 13 11 12 13
20 23 25 25 27 32 27 31 28 32 36 36 29 37 39 39 37 38 36 34 29 26 24 24 23 19 17 15 14 13 14 13 13 12 12 11 11 10 12 13 13 12 13
18 26 23 26 28 34 32 26 24 28 35 38 33 29 33 36 37 34 33 32 28 26 22 22 20 17 17 16 15 13 13 12 12 14 13 12 11 11 10 10 12 14 15
13 20 24 27 29 26 31 23 30 23 27 36 40 40 33 35 33 32 30 27 27 27 23 22 21 19 18 15 11 13 14 14 15 16 14 13 14 13 11 11 11 11 14
15 21 22 26 29 32 32 28 30 28 29 32 43 43 40 36 33 30 28 26 25 23 24 22 18 19 17 17 11 7 11 16 18 18 17 17 17 16 15 14 13 11 11
12 16 20 24 29 31 34 27 31 27 20 31 33 39 38 34 31 30 29 27 23 25 20 24 22 18 13 17 8 4 3 7 18 22 22 22 21 19 19 17 16 16 15
16 16 16 21 26 30 30 27 25 24 24 24 28 32 35 32 35 29 27 23 27 26 21 25 24 23 15 18 21 7 3 5 3 6 19 24 23 24 22 19 18 20 19
19 18 18 19 25 30 34 33 36 29 24 23 30 31 35 34 32 25 20 17 20 17 17 17 17 23 18 13 16 24 17 4 4 4 5 11 17 23 22 22 22 23 22
18 19 19 20 21 28 34 35 30 24 23 25 30 33 34 30 32 29 25 21 28 23 22 21 22 24 23 17 18 12 18 13 12 9 6 6 12 17 19 22 24 24 21
20 20 20 21 22 27 29 30 31 26 25 27 26 32 34 33 32 26 28 31 28 24 25 24 23 24 24 24 24 21 15 8 14 11 7 12 7 10 16 17 21 21 18

GFSSE_925_spd_066.txt.gz
Wind_Speed
13 19 24 26 31 40 41 40 39 37 36 33 32 33 36 41 31 30 30 29 28 27 25 24 25 23 24 23 25 26 28 29 30 29 28 26 26 26 26 28 28 28 31
16 20 24 22 29 35 41 41 40 35 37 34 35 36 37 38 34 32 33 31 29 26 25 24 23 22 24 25 27 30 31 30 29 29 28 26 26 26 27 29 28 28 29
17 20 21 20 27 30 36 39 38 38 36 34 34 34 35 38 38 35 34 31 29 27 26 25 24 24 24 26 29 29 30 31 31 27 24 23 24 25 25 26 27 26 25
19 22 21 19 25 30 36 37 38 39 37 36 36 35 34 36 39 35 32 32 30 29 26 26 26 24 23 26 29 28 28 31 26 22 20 21 21 22 23 24 24 25 24
19 22 23 23 24 29 34 37 39 39 39 39 39 37 36 35 34 35 33 33 31 28 26 25 25 24 22 25 26 26 28 26 23 20 19 19 19 20 23 23 24 25 25
18 22 23 26 21 23 35 40 39 39 40 40 39 37 36 35 35 36 35 33 31 28 25 25 23 23 24 27 27 27 27 26 20 22 21 21 21 21 21 23 25 25 25
15 17 20 26 27 18 26 31 37 39 40 39 39 37 35 35 35 36 35 35 30 27 25 25 26 26 26 27 27 28 26 20 20 21 20 19 21 20 21 21 22 23 23
19 18 18 29 29 38 36 33 36 39 40 40 40 40 36 35 36 37 34 31 29 26 26 26 27 27 27 26 27 26 25 21 21 20 20 19 20 21 21 21 21 23 23
17 17 20 22 23 29 31 31 34 38 40 40 40 39 39 38 38 36 33 30 29 26 29 29 29 28 27 27 27 27 23 20 20 20 19 18 20 20 20 20 21 21 22
15 19 22 23 25 26 28 26 28 34 40 39 39 40 41 41 38 35 33 30 30 29 30 30 30 29 27 26 25 25 26 22 19 18 17 19 19 19 19 19 20 21 21
10 17 22 26 26 24 25 25 27 29 31 37 39 40 41 31 34 31 29 32 32 31 30 29 29 28 26 25 25 24 17 17 16 16 17 20 18 18 18 18 18 20 19
10 15 21 27 29 29 27 23 28 29 34 37 38 38 32 31 27 27 29 32 33 31 30 28 27 27 22 19 21 15 15 15 16 16 17 19 17 17 18 16 17 17 18
4 9 13 21 31 35 28 34 34 33 35 35 38 40 30 27 29 26 29 30 28 29 24 24 25 18 17 17 16 14 16 15 15 16 18 18 17 15 16 16 15 16 16
5 6 10 22 25 21 34 34 43 40 35 35 32 29 32 26 27 26 28 29 28 25 23 22 19 15 15 14 14 17 14 14 14 14 17 18 17 15 14 15 14 14 14
6 5 6 14 27 31 30 29 38 39 36 34 33 31 29 29 24 25 26 28 27 24 24 21 17 16 15 14 14 13 12 12 13 13 13 17 16 15 15 14 14 13 14
10 11 14 16 20 29 34 33 33 35 34 38 38 33 32 36 30 25 24 25 24 24 22 19 18 16 15 14 13 12 12 11 11 11 12 14 16 15 15 14 14 13 14
14 16 18 18 17 24 33 37 32 28 33 38 35 31 30 33 31 26 25 23 22 22 21 19 18 16 14 14 13 13 12 11 11 10 10 10 13 16 14 14 15 16 15
16 21 23 20 21 26 28 33 29 29 34 35 31 27 28 30 30 27 23 21 20 19 20 20 19 17 15 14 13 12 11 11 11 10 10 10 10 12 16 17 16 15 17
12 20 21 21 26 26 29 24 24 30 32 34 29 23 26 30 32 28 24 21 19 19 18 21 18 16 15 14 13 12 11 11 11 10 11 11 11 10 11 16 20 18 18
15 16 20 19 27 26 25 23 25 31 35 37 29 24 26 27 29 27 25 21 20 18 20 18 17 14 14 14 13 11 10 10 10 12 13 13 12 12 12 12 14 17 20
15 18 18 22 28 24 25 27 27 29 28 36 32 27 24 25 29 26 21 22 23 20 18 17 16 14 11 11 10 8 9 11 13 14 15 15 14 16 15 14 13 13 14
17 20 24 23 25 26 25 26 26 26 24 33 37 30 25 23 36 32 22 25 22 19 17 18 17 14 12 14 11 10 5 9 17 18 17 16 17 17 16 15 16 16 14
16 18 19 23 27 25 25 21 22 18 23 21 30 33 28 26 34 33 28 24 21 19 19 18 17 17 17 14 16 9 4 5 5 10 17 19 18 18 18 17 20 20 18
19 17 19 20 27 27 28 27 28 33 31 28 32 37 27 28 35 35 29 22 21 23 19 16 17 19 18 13 13 20 16 10 5 7 11 13 17 18 21 24 21 22 23
22 22 21 21 22 28 32 30 30 28 30 23 25 30 36 28 35 35 33 25 24 23 21 18 16 17 16 17 18 13 17 17 16 14 10 10 10 12 19 20 20 26 24
22 24 24 23 24 25 33 33 32 32 29 23 23 28 32 32 35 29 32 30 26 24 18 18 21 24 17 18 18 17 17 12 14 14 9 20 12 12 17 18 23 25 25

GFSSE_925_spd_069.txt.gz
Wind_Speed
2 15 24 19 28 31 33 34 34 34 32 31 31 30 27 27 30 32 27 28 27 27 24 24 25 24 24 23 25 27 29 29 29 30 29 27 27 26 27 28 28 27 30
5 12 22 19 25 29 32 33 34 34 33 32 31 31 28 28 28 31 31 29 29 26 25 24 23 24 24 25 27 29 30 29 30 29 29 28 28 28 29 29 28 28 30
9 12 20 20 21 26 29 30 31 34 35 35 32 31 28 28 29 31 34 29 29 27 24 23 23 23 24 27 30 30 30 29 29 28 26 24 24 25 25 27 27 26 26
7 10 16 16 20 26 31 32 32 34 34 35 35 33 31 28 28 30 34 30 28 27 24 23 23 24 24 28 29 31 30 27 26 26 22 21 20 21 22 22 22 23 23
9 13 17 16 19 26 32 33 32 35 37 37 36 35 33 32 31 31 30 31 29 26 26 23 23 23 25 28 29 29 25 19 18 17 20 19 19 20 22 23 24 22 23
9 14 18 20 21 22 28 32 34 36 37 39 39 36 37 35 33 31 30 31 31 28 26 23 22 24 26 26 27 26 26 20 19 19 20 20 19 20 23 23 23 23 23
8 12 21 20 19 24 20 24 27 39 39 40 40 40 38 35 33 31 31 30 30 29 26 23 23 24 24 24 26 25 20 17 18 20 20 19 21 21 21 21 22 21 22
11 13 17 18 23 25 30 14 28 33 40 42 41 40 38 36 33 31 30 29 30 29 27 24 25 25 25 26 27 21 18 20 18 19 20 19 21 21 20 20 21 21 21
11 13 15 17 28 28 27 15 15 33 41 42 42 39 38 37 35 33 31 30 29 29 28 27 25 25 25 27 26 24 17 18 19 19 19 19 19 20 20 20 20 20 20
11 16 15 18 17 15 21 18 21 19 40 42 40 40 38 37 38 34 31 29 28 29 28 27 25 24 25 26 25 21 23 20 19 19 18 20 20 19 19 19 19 19 20
12 15 18 18 21 20 20 17 26 24 28 36 39 39 38 33 33 33 26 29 29 29 29 28 26 25 24 24 27 23 15 15 16 16 18 22 20 20 19 19 18 18 18
12 12 16 18 17 17 20 19 23 28 32 33 33 36 33 30 27 30 28 30 31 30 29 27 26 24 21 19 15 12 10 14 15 16 18 21 19 19 18 18 17 17 17
11 9 12 14 19 18 18 19 23 24 29 34 38 38 32 27 26 28 32 31 29 29 23 23 25 18 17 17 10 10 14 12 15 15 19 19 18 18 17 17 17 16 17
7 7 7 8 14 18 16 20 23 31 32 33 31 26 30 27 24 25 28 27 28 25 24 22 18 16 16 15 10 13 12 13 15 14 18 19 17 17 17 15 15 15 15
7 4 3 13 18 17 18 27 30 33 34 39 39 34 30 28 27 27 27 27 27 26 23 21 16 16 15 14 14 13 12 12 14 14 16 18 17 16 15 14 14 13 13
5 4 5 2 12 21 26 21 28 36 32 34 36 35 34 31 24 26 29 29 27 26 23 20 17 17 16 15 14 14 12 13 12 13 13 16 16 16 16 15 14 13 13
5 7 9 7 12 16 20 28 32 34 45 38 37 40 34 31 29 23 26 27 28 25 23 19 18 17 16 15 14 14 13 12 12 11 13 13 15 16 16 16 17 16 16
8 9 10 12 15 21 18 26 32 31 36 38 41 34 32 30 31 27 21 18 20 19 19 20 20 18 16 15 15 14 13 12 11 11 11 13 13 13 16 17 16 17 18
11 10 14 13 13 21 23 25 27 34 29 34 41 32 31 27 26 26 23 22 23 21 21 19 19 17 16 15 14 13 12 12 12 12 12 12 13 13 15 18 19 19 19
9 14 16 14 17 19 19 23 23 30 26 34 38 25 25 22 25 24 21 20 22 19 18 18 17 16 15 15 15 14 12 12 13 13 14 13 13 14 14 14 18 20 22
10 13 18 19 23 21 23 22 26 25 29 29 35 26 25 26 27 25 22 20 21 17 17 18 17 16 14 14 13 12 11 12 13 14 15 15 16 16 16 15 15 16 20
15 17 19 20 25 26 21 20 21 29 30 35 38 33 28 28 28 25 23 22 20 19 20 19 18 15 15 15 14 15 6 11 16 18 17 18 18 18 18 19 19 19 15
18 20 19 20 23 25 21 22 21 23 24 27 30 32 24 21 24 27 22 23 27 23 21 21 20 19 20 17 17 7 4 6 14 19 23 20 20 21 19 20 23 23 21
20 18 20 21 23 26 23 26 23 30 26 32 34 24 29 22 21 23 24 33 26 23 20 21 20 20 18 17 12 17 16 13 7 3 17 20 19 20 21 19 21 24 28
23 22 21 21 22 24 26 26 27 24 27 25 32 27 23 27 25 28 31 29 28 19 20 20 22 21 19 18 17 14 14 15 16 12 7 9 15 18 18 22 25 28 30
23 23 24 25 23 24 27 27 30 29 26 27 27 32 28 27 27 26 33 31 28 29 26 24 20 16 19 16 20 18 17 14 14 13 9 13 12 14 18 23 27 29 30

GFSSE_925_spd_072.txt.gz
Wind_Speed
13 14 17 21 20 23 25 27 28 28 27 25 24 24 25 25 26 26 27 27 27 28 25 24 23 23 25 26 29 30 31 32 33 32 30 29 28 29 31 32 32 33 32
10 12 17 20 22 22 23 23 26 27 26 26 27 26 26 27 27 27 29 31 29 28 26 25 25 24 26 27 29 31 33 33 33 33 31 28 29 29 30 33 34 33 31
9 8 16 19 23 24 23 23 24 26 27 28 29 28 27 28 28 28 30 32 32 27 26 25 25 25 26 30 31 31 32 33 31 29 26 28 27 26 27 29 29 29 27
6 7 13 19 22 23 26 25 24 26 27 28 29 28 29 28 29 28 29 30 30 27 24 25 25 25 30 31 32 31 30 28 27 25 26 24 22 22 25 26 26 26 25
4 9 14 17 19 20 25 26 26 29 29 29 30 29 30 31 30 29 27 27 28 28 25 25 25 26 31 33 31 30 28 28 19 25 21 21 21 21 23 24 23 24 24
4 9 12 15 18 20 25 30 30 32 32 32 34 31 33 33 33 30 28 27 28 28 25 25 25 31 30 31 28 23 19 14 13 28 27 22 22 22 24 24 25 25 25
5 10 15 18 17 20 23 30 30 29 35 36 37 34 35 35 34 31 29 28 28 28 26 26 27 30 30 29 27 23 21 25 21 23 22 23 22 22 22 23 24 24 24
8 9 14 17 15 19 18 19 10 11 10 32 38 37 35 35 34 32 30 29 28 28 26 27 29 28 27 28 26 20 19 21 27 25 23 23 22 22 23 24 23 24 23
7 12 13 13 17 17 20 23 19 18 23 24 36 39 37 35 33 32 33 30 28 26 26 28 28 27 28 25 21 18 15 28 27 24 23 23 22 22 22 23 24 23 23
7 9 13 13 14 18 21 18 17 12 31 38 36 40 37 36 34 32 32 30 27 26 27 27 29 30 29 26 22 20 27 22 22 24 22 23 21 21 21 21 22 22 21
7 11 12 13 15 19 24 24 21 12 10 17 44 40 38 36 34 32 31 29 27 27 28 27 29 30 28 25 24 25 20 23 24 21 23 21 20 20 20 20 20 21 21
6 10 11 15 14 18 19 23 26 19 5 20 40 42 35 37 34 28 28 29 28 28 27 27 28 29 28 26 22 14 14 22 21 19 23 21 19 19 19 18 18 18 19
4 6 11 10 13 13 18 20 28 28 24 31 35 39 37 33 32 30 30 31 30 29 28 27 27 25 29 22 15 10 17 22 21 20 22 20 18 18 18 18 18 17 17
3 4 6 7 8 13 16 20 23 29 29 33 38 34 40 36 33 33 30 32 32 29 28 29 26 22 21 15 6 17 13 24 20 20 22 20 19 18 17 17 16 16 16
1 5 3 3 6 12 17 22 25 28 33 38 38 37 35 34 30 27 25 33 28 28 26 28 24 24 19 13 16 17 7 24 17 20 22 18 18 17 16 16 16 15 15
5 5 4 3 5 10 15 19 25 31 38 44 38 38 37 32 30 27 24 30 24 29 26 23 20 23 20 15 17 13 12 20 18 17 22 20 18 17 17 16 16 15 14
6 8 4 3 4 14 15 20 27 34 44 43 41 37 39 35 31 32 28 31 26 27 25 21 23 20 19 18 17 13 13 13 19 21 18 21 19 18 18 18 18 16 15
9 11 7 5 7 10 19 24 31 36 40 42 42 44 35 31 29 31 33 29 29 30 27 22 24 21 20 20 19 16 15 13 15 18 16 17 21 21 20 19 18 18 18
11 15 11 10 9 18 19 23 31 37 37 39 37 39 34 35 30 34 35 29 27 33 27 25 23 21 20 19 20 18 16 15 16 15 20 19 17 19 21 23 22 21 20
11 14 16 13 12 17 19 21 27 30 34 36 33 35 37 36 29 28 27 21 26 25 22 23 21 20 19 17 19 18 15 16 18 17 17 19 21 22 22 17 23 24 24
12 21 21 18 16 18 22 23 24 25 30 35 36 36 38 30 32 25 25 22 20 21 19 21 20 17 17 16 14 18 15 14 16 19 21 20 21 23 22 19 23 24 25
16 20 23 19 19 20 21 23 20 25 27 36 40 32 32 33 32 28 28 29 26 20 21 18 20 16 14 17 14 16 3 7 18 19 21 25 25 24 22 23 19 22 22
17 20 24 23 23 24 22 23 23 23 24 27 31 33 32 29 31 26 26 32 30 26 27 23 22 21 19 19 20 8 3 4 9 17 28 25 26 26 25 25 27 26 25
20 20 21 23 25 24 23 23 27 21 24 28 37 32 34 30 29 29 27 31 34 29 26 26 24 25 25 24 22 19 16 6 3 2 16 28 23 27 28 23 27 29 30
22 22 23 22 23 22 22 25 27 25 27 28 31 28 26 24 30 29 29 30 33 29 24 24 24 27 28 21 16 15 17 20 20 12 4 13 24 24 26 29 30 27 31
24 22 22 23 24 25 24 26 28 28 29 29 31 29 27 29 29 32 29 32 32 31 25 24 23 31 23 17 18 22 22 12 15 13 5 8 16 22 26 31 31 33 37

GFSSE_925_spd_075.txt.gz
Wind_Speed
9 13 19 19 23 24 21 22 23 22 21 20 20 21 24 26 28 29 30 30 29 29 27 25 24 24 26 28 29 32 34 35 35 35 33 31 29 29 30 34 35 35 32
13 14 17 19 23 25 24 22 23 23 21 19 21 23 24 26 27 28 29 30 29 29 26 25 26 26 27 30 30 32 33 35 36 34 32 29 29 30 31 35 34 32 30
12 12 16 18 22 24 25 23 22 22 22 22 23 25 26 27 28 29 29 30 30 30 28 25 25 27 30 32 33 35 35 35 34 32 32 32 30 28 29 30 29 28 28
10 12 14 18 22 24 24 25 23 23 24 24 25 28 28 28 29 29 31 30 29 29 28 27 26 29 34 34 33 34 32 32 33 31 30 29 27 25 26 26 26 27 26
11 10 12 18 22 24 25 25 24 24 24 25 26 28 30 29 31 32 32 30 29 29 27 27 27 33 35 35 34 34 30 28 28 28 27 26 26 23 24 25 25 26 25
12 14 12 15 20 21 25 27 27 31 30 29 28 31 32 33 32 33 33 30 29 29 28 28 32 33 33 34 32 32 20 24 28 28 26 24 23 24 24 24 25 25 25
11 12 14 15 17 21 24 27 29 30 26 29 32 34 35 35 36 34 33 30 29 29 28 32 35 34 32 29 25 18 27 29 29 29 27 24 22 24 24 24 24 24 24
8 5 13 15 16 18 23 27 29 25 20 7 6 30 34 38 37 35 33 32 30 29 27 37 36 33 30 26 23 26 30 26 25 27 27 24 23 23 23 24 24 24 24
8 6 8 14 17 19 23 25 30 25 25 26 37 28 28 37 36 34 34 34 29 28 30 36 35 32 28 25 21 21 27 22 23 28 27 25 22 23 22 23 24 24 23
9 9 9 10 15 18 20 24 19 22 41 44 10 19 30 37 36 35 34 33 30 28 33 34 33 32 30 23 20 33 27 25 25 28 26 25 23 22 22 22 22 23 22
10 7 8 13 14 19 22 21 18 20 18 17 24 23 36 37 38 36 33 31 28 29 33 33 31 32 27 24 34 32 29 25 23 27 25 23 22 21 21 21 21 22 21
13 12 12 11 15 18 23 24 22 20 15 22 34 26 32 39 38 36 31 29 29 29 30 31 32 30 27 28 30 21 30 26 24 27 26 23 22 21 20 20 20 20 20
10 8 9 11 15 22 27 27 22 21 18 30 17 36 37 40 35 35 32 30 31 31 30 31 31 29 29 26 19 23 28 25 25 27 24 22 20 20 20 19 20 19 18
9 5 5 6 9 17 25 25 27 27 22 20 9 46 45 41 37 36 33 33 31 32 33 33 32 30 28 20 17 21 25 22 22 27 23 21 20 19 18 18 18 18 18
12 11 8 7 8 14 18 25 26 31 25 23 31 39 43 38 39 38 34 32 31 32 34 34 32 32 24 16 21 24 25 22 22 26 23 20 19 18 17 17 17 16 16
13 12 7 6 10 11 18 23 28 29 25 33 33 43 45 42 43 38 36 33 31 33 36 33 35 29 19 17 17 11 25 22 19 25 24 22 20 18 18 17 17 17 16
17 13 6 4 8 13 11 16 27 32 37 42 43 38 41 40 41 38 37 37 31 32 34 30 27 24 19 20 20 19 25 21 19 21 24 23 21 20 18 19 18 17 16
20 12 8 6 8 12 12 16 26 34 37 41 45 46 44 43 41 39 39 36 32 32 32 26 27 28 25 22 20 19 21 21 21 20 22 24 23 22 21 19 20 18 18
20 15 13 9 8 10 14 18 28 35 37 41 47 44 42 40 38 41 38 37 31 33 31 26 32 29 27 25 20 18 18 23 21 22 21 22 23 24 24 23 21 20 20
20 18 18 15 14 12 13 16 27 31 35 40 43 42 40 37 38 43 36 39 35 36 33 29 32 29 29 29 26 21 18 17 21 20 21 22 23 23 24 24 24 24 24
22 20 20 20 20 18 19 21 25 24 27 35 41 42 42 40 39 39 38 39 34 37 33 37 33 29 30 30 25 22 19 19 19 21 18 23 25 25 24 24 23 26 27
24 23 23 22 23 24 22 20 18 25 23 31 35 43 45 39 38 35 32 35 25 32 30 35 31 28 28 28 19 15 2 5 17 23 23 24 23 22 26 27 25 26 29
25 25 24 24 24 26 24 22 21 22 23 21 27 33 37 42 36 30 37 33 30 33 29 33 32 27 28 23 23 11 3 4 5 17 24 25 27 27 28 27 29 28 29
25 25 25 25 25 24 27 25 26 20 21 23 27 29 32 36 33 30 32 33 40 41 40 32 29 28 28 28 21 18 10 7 3 1 11 26 26 29 30 30 32 33 32
29 26 27 28 28 26 25 27 27 20 24 26 27 27 29 33 33 30 31 32 31 31 32 31 29 30 29 27 20 20 18 13 9 4 3 6 20 31 30 34 35 35 37
30 25 26 27 26 27 27 29 29 27 23 25 27 27 27 30 29 33 30 30 32 32 32 32 31 29 29 26 22 23 18 9 8 6 3 7 12 21 34 35 37 40 40

GFSSE_925_spd_081.txt.gz
Wind_Speed
11 17 17 17 21 21 20 23 26 26 26 32 35 35 36 38 38 35 34 32 30 30 27 26 25 27 26 27 28 30 30 30 30 29 28 27 28 28 29 32 32 30 31
13 18 17 19 22 24 22 23 26 29 29 30 35 36 38 37 37 36 35 31 29 28 27 27 27 27 29 30 31 31 32 31 30 29 28 27 27 27 28 30 31 30 30
16 17 18 19 23 25 25 24 24 28 31 31 32 37 37 39 37 36 34 31 29 29 28 28 28 28 30 32 33 33 33 31 30 29 28 27 26 26 27 28 27 28 27
18 18 19 20 24 27 26 26 24 24 28 32 33 37 38 38 37 35 33 31 30 30 29 27 28 29 32 33 35 35 34 33 31 30 29 28 26 26 25 24 24 23 21
20 19 19 20 25 27 27 26 25 23 24 30 34 36 35 36 36 34 32 31 30 30 29 28 29 31 34 35 36 35 33 33 33 32 29 28 26 23 22 22 22 22 22
22 20 20 20 25 25 26 26 25 23 24 27 30 32 32 33 34 33 33 31 32 32 28 29 32 34 36 37 36 35 34 32 32 31 29 25 23 21 21 22 22 22 21
22 20 19 19 23 25 24 26 26 23 23 24 24 23 28 23 26 31 31 32 32 30 31 33 36 36 37 36 36 33 32 31 30 27 25 24 21 20 21 21 21 22 22
19 20 20 21 21 24 25 26 24 26 26 24 23 21 20 22 20 21 28 31 32 33 33 36 37 36 36 34 32 31 30 28 28 26 24 22 20 20 20 21 22 21 21
19 19 21 23 23 22 25 25 27 31 31 30 25 19 15 17 16 19 24 29 32 33 34 35 37 37 32 31 30 29 28 27 29 26 23 22 20 20 20 21 21 21 22
18 19 22 23 18 22 25 29 30 34 37 38 29 27 19 13 22 20 22 27 30 33 33 37 36 33 29 29 29 28 25 26 29 27 24 22 22 20 20 20 21 20 21
17 19 21 21 19 19 23 27 29 32 34 40 34 36 25 16 23 26 27 28 29 35 36 37 32 27 28 30 30 27 26 27 27 27 26 23 22 21 20 20 20 20 19
22 21 21 21 22 22 22 25 29 34 36 35 32 33 29 28 24 30 29 30 31 36 36 34 30 27 32 32 29 27 26 29 28 26 27 25 23 21 20 20 21 19 19
26 22 21 21 21 22 23 23 26 34 34 30 31 30 27 32 42 40 32 32 32 38 38 33 29 32 35 34 31 27 28 28 27 27 26 24 23 21 21 20 19 19 19
24 23 20 19 19 21 23 25 27 33 33 30 27 30 31 36 36 38 33 36 33 39 38 35 30 33 37 34 29 26 28 28 28 27 26 24 23 21 20 20 20 18 18
25 24 22 21 20 22 24 26 28 31 31 31 33 29 34 37 36 32 31 37 36 40 38 33 30 33 35 32 28 27 27 28 28 28 26 24 23 21 19 19 19 18 17
28 25 23 20 18 19 24 26 30 33 29 28 33 38 35 39 38 36 33 38 39 43 40 36 35 30 30 30 30 28 26 26 28 28 26 24 23 22 20 19 18 18 17
31 26 22 19 17 18 23 25 29 33 32 30 32 43 39 39 41 42 37 40 41 44 41 39 32 28 25 28 30 27 24 25 27 27 25 24 22 21 20 19 18 18 17
31 26 22 20 19 19 22 26 29 32 33 33 31 35 41 36 46 43 40 41 43 45 42 40 34 29 26 30 31 26 25 26 27 26 24 23 23 21 20 19 18 18 18
30 26 23 19 18 20 20 22 26 30 33 33 29 28 40 39 46 41 41 40 43 43 42 41 35 30 28 30 30 26 26 26 27 25 23 23 22 21 20 19 18 18 18
28 25 20 17 16 18 19 18 22 26 35 36 31 34 38 41 43 40 39 42 44 42 41 41 37 26 29 28 26 26 24 23 25 25 23 22 22 22 21 20 19 18 18
26 24 21 18 17 19 19 19 18 19 26 31 36 39 41 37 39 37 38 42 43 43 42 41 38 29 27 27 23 19 18 19 22 21 22 22 23 23 21 21 21 21 21
28 26 22 19 19 19 17 17 11 19 19 26 29 38 38 38 35 34 34 40 41 38 41 42 38 27 24 28 16 14 3 4 16 21 23 24 23 23 23 23 24 24 25
22 22 22 22 21 19 21 16 18 19 18 16 31 31 36 39 34 32 31 33 35 33 33 40 37 33 22 30 25 10 3 4 6 14 25 27 26 26 26 27 27 27 28
23 21 20 24 21 20 21 21 20 14 13 12 21 29 32 36 35 34 32 32 36 35 37 39 35 35 33 28 23 20 14 9 3 2 13 31 29 30 31 30 30 30 31
23 22 21 27 24 20 21 21 20 16 14 19 22 26 29 32 34 33 33 33 34 35 38 39 35 37 37 34 30 23 16 13 10 4 3 6 24 34 32 33 33 33 33
21 22 26 27 22 23 23 20 20 19 18 20 22 23 28 31 31 29 27 28 33 34 39 37 35 35 35 35 38 30 24 11 9 5 2 3 11 20 33 34 34 35 37

GFSSE_925_spd_084.txt.gz
Wind_Speed
15 16 13 15 17 18 21 21 21 24 30 34 32 32 33 34 34 34 31 30 31 30 28 27 27 22 23 23 27 28 27 27 28 27 27 27 26 26 28 30 31 31 31
14 17 17 18 19 20 23 23 23 25 32 33 34 33 34 36 36 34 33 32 31 29 27 27 26 24 24 26 29 28 29 30 29 28 28 28 27 26 27 31 31 29 29
17 18 19 20 22 22 24 25 24 25 32 33 34 35 35 35 35 35 33 31 31 28 27 28 27 26 26 29 31 30 31 30 30 29 28 29 27 26 26 28 28 28 28
19 20 20 22 23 25 26 27 26 25 30 33 34 36 37 37 36 35 32 30 29 29 29 30 28 27 30 30 32 33 32 31 30 30 28 27 26 25 25 25 25 25 26
20 20 20 22 24 25 27 28 27 27 27 30 31 33 34 34 34 33 30 30 28 29 29 28 29 29 33 33 33 33 32 31 31 29 27 27 26 24 23 22 21 21 23
21 19 19 21 24 24 24 26 27 26 26 28 31 32 33 30 32 31 28 27 25 26 28 29 30 32 33 34 33 33 32 31 30 29 28 27 25 22 20 20 20 20 20
22 20 20 20 24 23 23 24 24 26 27 28 31 30 31 25 22 25 24 23 24 25 26 28 31 33 35 35 34 33 32 32 32 30 27 24 21 19 19 20 20 20 20
23 22 20 19 22 23 22 24 24 24 26 28 27 27 25 25 20 18 20 22 23 23 25 29 31 32 34 34 34 32 31 31 30 29 25 20 19 18 20 19 21 20 20
20 21 20 21 22 23 23 24 25 26 30 32 30 28 25 24 25 24 26 22 25 26 28 30 33 34 34 33 32 31 30 29 27 24 22 20 19 18 19 20 20 19 20
18 20 21 22 23 23 23 26 27 29 32 32 29 31 29 24 21 24 24 25 28 28 30 32 33 34 32 31 30 29 27 25 25 24 21 20 20 19 18 20 20 20 20
19 21 22 23 24 23 24 27 28 28 31 33 36 36 33 29 23 22 22 23 24 28 32 32 33 32 30 28 27 26 25 25 25 25 21 21 19 19 19 20 20 20 20
22 22 23 25 26 25 26 28 31 33 37 38 37 33 28 25 35 31 25 24 26 29 33 34 32 29 28 28 27 26 24 24 24 24 24 22 20 20 20 20 20 20 20
27 25 26 27 28 27 26 28 32 35 39 38 39 35 33 36 30 31 33 30 27 29 34 34 31 28 29 30 28 25 24 24 24 25 23 23 21 20 20 20 20 20 20
29 27 27 28 28 28 28 27 29 31 38 38 37 36 37 33 31 35 34 31 30 35 37 34 32 30 30 30 27 24 24 25 25 27 25 23 22 20 20 20 19 19 19
30 30 29 28 29 29 28 28 27 29 34 36 40 41 35 36 35 35 32 35 34 38 41 36 34 33 31 29 26 24 26 26 27 26 25 23 22 20 19 19 19 18 18
31 33 30 29 29 28 29 28 28 29 30 30 33 33 34 35 31 35 32 33 39 41 40 36 35 37 33 31 27 25 27 27 27 27 25 23 21 20 19 18 18 18 18
34 31 31 30 28 27 28 27 28 28 29 29 30 33 31 33 37 34 33 35 38 41 41 34 31 34 34 31 26 26 25 26 27 26 26 24 22 20 19 18 17 17 17
30 30 29 28 27 24 25 24 26 27 28 28 30 35 32 36 40 38 34 35 38 42 41 34 34 35 34 31 28 26 24 23 25 25 24 23 22 21 19 18 18 17 16
29 30 29 26 24 22 21 23 25 25 29 27 30 33 38 35 36 39 36 35 40 43 43 40 36 34 32 29 30 26 23 23 25 24 22 22 22 21 21 19 18 18 17
29 30 27 24 22 21 20 21 24 25 28 32 29 31 39 40 37 36 34 36 41 41 40 41 38 31 32 32 26 24 21 22 23 24 22 22 21 21 20 19 19 19 18
30 30 28 23 20 21 23 21 20 23 27 29 32 31 37 44 34 40 37 38 41 41 40 42 39 32 28 31 28 14 13 15 19 22 21 21 22 21 21 20 20 20 19
27 27 26 21 21 21 21 20 16 16 22 27 30 30 33 36 43 39 37 39 41 36 38 38 38 30 24 34 16 14 3 2 14 22 22 24 23 23 23 22 21 22 22
25 28 25 23 21 23 19 19 12 18 10 21 26 33 34 35 39 33 37 38 38 38 40 38 38 34 25 32 27 9 3 3 5 12 22 25 26 27 26 25 23 25 26
25 27 25 22 20 21 21 20 18 10 9 4 16 27 33 36 34 31 33 36 36 32 32 37 36 32 33 28 27 7 12 13 3 2 12 28 29 30 29 29 27 28 29
23 25 23 23 21 20 20 18 16 14 12 15 23 28 32 33 34 29 29 30 33 34 34 39 36 33 34 34 25 20 13 11 10 3 3 9 26 33 30 33 31 30 31
20 22 24 24 22 21 20 18 18 16 16 18 20 24 28 30 32 30 29 28 26 30 30 34 37 37 32 33 36 30 23 11 8 5 2 4 14 18 29 36 34 33 33

GFSSE_925_spd_087.txt.gz
Wind_Speed
15 15 11 12 14 15 17 19 20 22 29 31 29 29 30 32 32 32 32 31 30 27 27 25 26 23 22 23 26 26 26 25 26 26 26 25 24 25 26 29 26 26 30
21 18 15 15 15 18 19 19 20 23 28 32 31 31 33 33 33 33 31 32 30 30 27 26 26 22 22 26 27 24 26 27 26 26 26 26 25 25 26 27 25 27 30
21 20 18 18 18 21 21 21 21 24 29 33 32 32 34 34 34 32 30 30 30 30 27 27 24 25 23 27 28 26 28 28 27 27 26 23 24 26 26 28 28 29 28
20 21 20 19 20 22 22 22 23 26 29 31 30 32 33 33 33 32 31 29 29 27 26 25 25 24 27 28 27 29 29 29 28 28 23 23 23 25 25 25 26 25 24
20 20 20 19 21 22 24 23 22 23 28 30 31 32 33 33 32 31 31 29 27 25 24 24 22 25 28 29 30 31 30 30 30 23 21 22 21 22 22 22 24 24 23
21 20 19 18 21 20 25 24 23 24 26 29 31 32 33 33 33 29 25 27 25 23 24 22 23 25 29 31 32 32 31 31 27 23 21 20 20 20 20 21 22 22 22
22 19 18 18 21 21 24 26 24 24 26 28 30 31 32 33 31 27 24 22 22 22 22 23 25 27 30 31 32 31 31 29 22 21 20 19 20 20 18 17 19 18 18
22 20 18 19 22 23 22 26 27 26 26 29 31 32 28 26 26 26 25 20 20 22 23 25 25 28 29 30 30 30 29 26 22 21 20 18 19 17 18 18 18 18 18
20 20 18 19 22 22 23 24 27 27 28 28 27 28 26 26 26 28 26 23 20 23 25 26 27 29 30 29 29 29 28 27 22 20 18 16 16 18 17 19 19 19 20
21 20 19 20 22 22 22 24 26 28 29 29 30 30 30 29 27 24 23 24 24 25 27 27 28 29 30 29 28 27 27 25 19 19 17 16 15 18 18 18 18 19 18
21 23 22 22 23 23 23 26 26 28 29 31 31 31 31 29 27 25 23 22 25 25 28 29 29 30 31 30 28 27 26 17 17 16 17 17 17 19 18 18 19 19 19
23 25 25 25 25 24 26 26 27 29 30 33 34 32 32 30 28 25 25 25 27 26 30 30 30 31 28 23 26 25 17 17 16 15 16 19 18 18 19 19 19 19 18
18 25 28 27 28 28 29 29 30 31 33 36 35 35 35 34 29 25 30 29 26 27 26 29 31 29 23 23 22 19 19 18 15 14 17 20 19 19 19 19 18 19 18
19 22 28 30 30 30 29 29 32 34 36 38 39 40 40 36 31 28 27 31 31 30 29 30 27 24 23 21 22 20 17 16 15 15 19 20 19 19 18 18 17 18 18
24 24 28 31 32 32 29 30 31 32 35 37 41 43 43 34 32 29 29 32 33 33 33 33 25 27 24 22 19 20 18 16 16 16 18 20 19 19 18 17 17 17 17
26 29 29 32 32 31 31 30 31 32 33 37 38 43 42 37 32 32 27 33 33 34 32 36 27 25 24 23 20 17 17 16 17 17 17 19 19 19 18 16 16 16 16
31 27 32 32 32 32 30 28 30 32 35 35 40 43 42 38 35 33 31 32 35 36 36 30 25 22 21 22 19 17 16 17 17 18 17 17 18 16 16 15 16 15 15
24 27 30 32 32 30 27 26 28 29 31 33 35 34 38 40 33 33 33 34 37 39 35 32 26 23 22 21 20 18 17 16 17 17 17 16 16 16 17 16 15 15 15
25 26 31 32 33 30 25 24 26 27 29 31 31 33 36 35 34 33 36 36 41 41 32 30 25 24 23 20 19 17 15 16 17 17 17 17 16 16 16 17 16 15 15
22 27 32 32 30 25 21 21 22 25 27 30 30 29 31 33 32 36 35 39 41 39 31 29 28 22 25 23 18 14 12 13 16 17 17 16 17 17 16 15 16 16 17
21 26 29 29 29 26 24 22 24 23 26 28 29 30 30 33 34 34 37 38 36 35 35 33 29 28 21 21 19 12 8 9 13 15 16 17 18 18 18 18 17 16 17
22 24 26 27 28 25 21 22 17 20 24 26 29 32 33 35 34 37 39 39 37 30 33 37 33 25 19 25 16 18 5 4 11 14 16 17 18 17 18 20 20 19 18
22 27 27 27 24 21 19 20 17 16 13 21 26 25 37 36 39 39 41 37 34 32 36 38 34 29 19 25 21 12 5 5 10 12 18 18 18 19 18 19 24 23 23
21 22 24 24 23 19 18 19 18 15 15 14 19 21 34 39 39 40 42 39 35 34 32 36 34 32 25 26 20 10 10 12 6 5 11 19 19 21 22 21 23 26 26
21 24 23 21 19 18 21 21 18 14 12 19 14 27 33 32 32 38 38 36 35 34 32 35 34 31 27 26 24 13 8 7 8 3 4 13 18 22 28 27 24 25 28
22 22 23 23 20 19 22 20 18 14 12 13 16 23 25 30 30 33 33 33 32 32 36 36 35 32 32 28 27 24 17 11 8 5 2 8 17 17 25 26 31 30 32

GFSSE_925_spd_090.txt.gz
Wind_Speed
13 15 16 16 18 20 20 21 21 22 24 25 26 26 27 27 27 27 27 27 26 27 24 21 21 20 19 19 22 24 24 24 24 23 24 23 23 24 26 25 24 24 29
18 17 15 13 16 19 19 20 22 24 26 27 27 27 29 29 28 28 29 28 27 25 24 23 21 20 19 23 24 24 24 24 24 24 24 23 23 24 23 23 24 26 28
19 17 16 13 14 18 19 20 20 22 25 28 28 28 29 30 29 29 28 28 27 26 23 23 21 21 23 24 23 24 25 24 24 23 22 20 21 22 22 23 26 27 26
18 16 15 17 16 19 19 19 20 21 24 28 29 29 30 31 30 30 29 28 26 25 24 23 22 20 23 24 24 26 26 26 25 24 18 20 21 23 24 24 25 26 25
16 15 14 17 17 20 19 19 20 22 24 27 28 29 31 29 31 30 28 27 25 25 25 22 21 21 25 24 25 27 27 26 25 18 19 20 20 22 23 21 20 20 21
15 15 16 17 17 20 20 20 20 21 23 26 28 29 30 30 31 30 29 27 26 24 23 21 20 22 26 25 26 27 27 28 20 18 18 19 18 19 21 21 21 20 21
16 15 15 17 18 19 21 21 21 22 24 26 27 29 30 30 31 31 29 28 25 23 22 21 21 24 27 26 27 27 28 24 16 16 17 17 18 20 21 20 19 19 18
16 16 15 18 19 18 20 21 21 23 25 26 28 30 31 30 28 29 28 27 25 23 21 22 23 26 27 27 27 27 28 19 16 15 15 17 19 18 17 16 15 14 14
15 15 16 18 18 18 18 22 21 22 24 25 27 27 26 26 29 29 28 27 25 25 25 23 24 26 28 27 27 27 26 18 14 15 15 16 16 16 16 16 16 14 15
15 15 16 19 18 18 18 20 23 22 23 25 24 26 25 26 30 31 30 26 25 25 26 25 26 28 28 27 27 27 23 19 14 14 13 15 16 16 16 16 15 16 16
16 16 15 18 19 19 18 20 21 23 23 24 24 26 27 25 27 27 27 24 20 16 23 26 27 29 28 27 26 25 21 15 14 12 11 16 14 17 16 15 16 16 16
20 18 16 17 19 21 19 19 22 21 22 22 20 21 25 22 24 27 27 26 22 22 21 23 28 29 28 23 24 24 18 14 12 10 11 13 14 16 15 15 16 16 17
21 18 21 18 19 22 21 21 22 21 22 23 22 23 22 23 23 22 26 24 26 28 27 25 28 26 24 23 22 21 14 14 12 10 12 15 15 16 16 17 16 16 16
23 23 21 23 24 26 21 25 22 27 22 23 22 25 28 28 29 23 28 30 31 29 31 32 32 27 23 21 21 18 15 13 11 10 13 16 15 17 16 16 16 16 16
25 25 25 28 28 28 25 28 29 26 27 23 27 26 31 29 24 26 27 24 24 30 32 30 28 25 23 21 20 16 15 12 12 12 13 18 17 17 16 16 16 16 15
25 27 26 26 30 31 28 26 29 30 29 27 27 30 27 34 37 24 27 24 26 30 31 31 30 24 23 20 18 17 15 13 14 13 14 16 16 17 16 16 15 16 15
23 25 29 26 31 34 31 25 28 26 27 28 31 32 28 38 31 29 28 27 27 27 32 31 26 24 23 21 19 16 14 14 15 14 15 16 16 16 16 15 16 15 15
20 24 28 27 30 32 34 30 27 26 27 29 32 33 36 31 30 25 27 29 28 32 35 33 25 24 22 21 19 16 14 15 15 15 14 15 16 15 16 16 16 15 16
18 21 27 29 30 32 30 28 26 21 23 29 32 36 35 37 39 30 27 29 34 33 37 33 28 26 23 21 19 16 15 15 16 17 16 15 16 15 14 16 16 16 16
15 20 25 29 28 29 29 22 19 18 21 25 31 35 35 34 36 35 33 32 38 35 37 31 28 26 25 23 20 17 15 14 15 15 17 17 16 15 15 15 16 16 18
15 19 25 28 27 29 27 23 21 21 20 25 28 31 33 31 35 36 34 34 39 39 40 37 30 29 25 24 21 16 11 11 13 15 16 16 15 17 16 16 17 16 18
16 20 24 28 27 30 26 24 19 20 18 20 26 30 31 31 34 34 36 36 39 39 41 33 32 28 26 26 22 19 6 7 9 14 16 16 16 16 17 17 18 17 16
18 20 24 28 27 28 24 21 16 14 13 17 23 27 30 32 33 35 37 38 36 35 39 33 32 30 27 27 25 17 8 6 16 16 17 17 17 18 18 19 20 19 19
20 19 23 27 28 27 24 21 21 18 15 14 20 26 27 32 35 32 41 40 37 34 34 34 33 32 29 28 24 24 16 10 11 6 16 19 19 19 20 20 21 22 22
18 21 23 27 27 25 24 20 19 17 16 15 18 19 25 27 36 37 40 41 40 34 31 34 33 31 29 29 28 23 15 14 16 9 9 17 20 22 22 23 22 22 23
18 21 25 28 27 24 23 19 18 16 14 13 13 16 22 28 35 41 44 42 40 38 33 32 32 32 28 28 26 24 22 18 14 11 7 13 18 20 23 23 23 24 22

GFSSE_925_spd_093.txt.gz
Wind_Speed
10 17 20 18 17 16 16 16 17 19 19 19 19 19 19 19 20 21 21 21 22 22 21 18 18 17 15 14 13 15 16 16 17 21 22 22 24 24 24 23 23 23 27
15 16 20 17 17 18 18 18 18 19 20 20 21 21 21 21 22 22 22 23 22 21 20 20 17 16 15 16 18 20 20 21 22 23 23 22 22 22 20 22 24 25 27
18 17 19 18 17 18 20 20 19 20 21 21 21 22 22 23 23 23 23 23 24 21 18 20 18 17 17 19 20 21 21 22 21 21 21 19 18 21 23 23 26 27 26
19 17 16 17 18 19 18 19 19 20 22 23 23 23 23 24 24 24 25 25 24 21 20 20 20 19 19 21 21 21 21 21 21 20 15 19 18 21 22 24 24 24 23
18 16 16 15 15 18 18 17 18 19 21 23 24 22 24 26 24 25 26 25 23 22 23 21 20 20 21 21 22 21 21 21 19 16 16 19 20 21 23 22 21 21 21
18 16 16 14 15 16 17 16 16 18 20 20 22 25 25 26 27 29 26 26 24 22 22 21 19 20 22 21 22 22 22 22 15 17 19 20 19 20 21 21 22 22 21
17 15 15 16 15 17 17 16 16 16 18 20 21 25 26 27 26 24 27 26 24 24 23 21 20 21 23 23 23 23 24 17 12 15 17 18 19 21 20 20 20 20 19
16 15 13 18 16 16 18 18 18 17 18 20 22 24 26 27 25 27 29 27 26 25 23 22 20 23 24 24 24 24 23 14 14 16 17 18 20 20 19 19 18 17 14
15 15 14 15 16 16 18 19 18 18 19 20 24 23 26 25 28 29 29 27 25 25 24 22 24 24 25 23 24 26 21 15 15 17 16 16 18 18 17 15 13 12 12
16 15 14 15 16 15 14 19 18 18 19 20 22 20 20 22 24 27 27 27 26 26 25 24 24 27 24 23 25 26 20 14 15 15 14 16 16 15 15 15 13 13 13
16 16 15 16 16 15 14 15 18 19 18 20 21 21 22 20 23 26 27 26 23 20 18 17 18 23 25 25 26 26 21 12 14 15 15 17 16 16 16 15 15 15 15
20 19 17 16 17 17 15 14 16 16 17 17 17 17 21 19 20 23 24 22 22 20 18 17 15 20 22 23 23 23 17 12 17 14 14 16 17 16 15 15 16 16 16
24 21 20 18 19 19 17 16 16 17 17 19 20 19 20 20 19 22 18 24 24 20 20 20 18 20 19 23 22 20 17 15 16 14 18 16 15 15 14 15 16 15 16
24 26 20 22 21 21 18 18 17 18 19 19 22 21 19 19 19 21 21 22 24 26 25 29 26 24 23 20 23 21 17 20 15 18 18 18 16 16 15 15 15 15 15
22 27 25 23 24 23 21 20 18 19 19 18 20 21 21 20 21 22 22 24 24 27 33 33 34 30 24 22 24 21 19 15 17 23 17 17 16 16 16 16 16 15 15
22 24 26 24 26 25 25 23 21 19 23 19 20 21 22 21 22 24 23 22 24 28 30 31 33 36 30 25 23 20 18 15 11 9 16 17 17 17 17 16 16 15 14
23 24 25 26 29 28 27 28 23 21 20 21 21 21 22 22 22 23 27 24 23 25 27 31 29 36 33 27 24 22 17 13 15 14 15 17 16 18 16 16 17 15 15
26 24 24 26 29 30 27 26 25 23 23 21 23 23 25 25 23 24 28 27 26 27 24 26 28 29 30 29 24 21 17 16 16 15 16 17 17 17 17 17 17 16 15
29 25 24 27 27 33 27 25 26 25 24 25 21 21 25 27 24 27 24 27 29 27 25 29 32 30 27 20 22 21 17 17 18 17 19 18 17 18 17 18 18 16 16
26 23 23 27 26 28 26 24 23 23 22 24 28 27 26 29 29 26 28 27 30 29 30 30 32 30 26 23 24 19 19 19 17 18 17 16 18 19 17 16 17 17 18
22 20 22 26 27 28 26 26 25 24 22 23 24 26 28 29 32 32 30 25 27 33 33 34 32 31 27 23 21 20 12 10 14 16 17 17 18 18 16 16 17 17 19
23 21 23 26 28 29 26 26 24 21 20 21 21 25 27 30 31 32 32 28 31 33 36 36 32 28 28 22 23 19 7 4 8 14 18 18 17 17 17 19 17 17 16
23 23 24 26 28 28 28 25 22 17 13 17 20 22 26 28 29 33 32 33 37 34 36 38 36 31 26 25 28 20 9 5 14 15 14 19 18 18 18 19 18 18 18
25 23 23 24 27 27 30 28 26 18 15 17 18 19 24 27 29 31 34 37 35 36 36 41 36 34 29 27 27 24 20 16 11 6 14 17 18 19 19 20 21 21 20
27 23 21 23 27 25 31 27 24 23 20 16 19 18 20 25 31 34 35 38 36 35 36 38 36 34 32 30 27 25 20 14 24 13 10 18 21 21 21 21 20 22 22
23 21 20 22 26 26 28 27 23 20 16 16 16 16 19 24 31 29 38 38 37 36 34 40 40 37 29 28 27 24 21 15 13 13 7 16 18 20 21 21 23 21 22

GFSSE_925_spd_096.txt.gz
Wind_Speed
20 25 19 17 15 15 15 16 16 16 15 14 13 13 12 12 13 14 15 16 18 19 19 20 19 15 10 10 10 12 14 16 19 21 23 24 24 26 25 26 25 27 27
25 24 20 18 16 14 15 16 17 16 15 14 13 14 14 14 15 15 16 17 18 17 17 19 17 15 13 11 12 14 16 19 21 23 26 25 24 23 24 26 26 28 28
25 24 21 18 16 15 15 16 16 16 16 15 15 16 15 16 16 16 17 18 19 18 17 16 17 16 15 15 17 18 19 19 21 21 23 21 23 23 24 26 28 28 29
22 24 22 20 18 16 16 15 15 16 16 16 16 17 17 17 17 17 18 19 18 17 17 16 15 16 17 18 18 18 18 20 21 20 21 20 20 23 25 28 27 27 26
19 22 21 20 19 18 17 16 15 15 16 17 17 17 18 18 18 19 19 20 20 17 17 17 16 16 19 19 18 18 18 20 19 18 20 21 21 22 23 24 24 23 22
21 19 20 19 17 17 16 16 15 14 15 16 17 17 19 20 20 20 21 22 21 17 18 20 19 18 19 19 19 18 19 19 15 18 20 21 22 23 23 23 24 23 22
21 20 16 16 16 16 16 15 15 15 15 17 17 19 20 21 21 19 20 22 20 18 20 19 19 19 20 19 19 19 21 15 19 19 23 22 24 23 23 24 23 22 20
18 15 16 16 15 15 15 15 15 15 15 17 17 19 21 22 21 21 23 23 21 20 21 19 18 20 21 21 20 21 20 14 17 17 22 22 23 23 22 22 20 19 18
17 12 13 17 16 15 15 15 16 15 16 17 17 19 21 21 21 23 24 23 21 21 21 20 19 20 22 22 21 23 19 14 19 21 22 23 21 21 21 21 19 15 15
16 14 12 14 15 16 17 16 15 14 16 16 18 19 18 19 20 22 22 23 21 21 21 18 15 16 19 21 22 23 18 18 18 20 19 21 18 18 18 17 17 15 15
17 17 16 16 16 15 13 16 16 15 15 16 18 19 17 18 19 21 22 22 19 17 14 13 11 11 15 17 21 25 18 15 17 20 20 20 17 16 17 16 15 16 16
19 20 20 19 19 18 17 14 17 16 17 17 17 19 21 19 17 20 22 22 21 21 20 20 23 13 10 16 20 23 16 18 18 17 20 19 18 17 17 17 16 17 18
24 23 21 22 21 21 19 19 16 17 16 16 17 17 17 17 17 19 22 25 23 25 24 23 18 19 16 18 21 22 17 18 18 17 20 19 19 17 17 17 17 17 18
30 31 30 25 23 24 20 21 20 20 19 20 20 20 18 20 20 20 20 22 30 30 29 26 19 18 18 20 23 25 18 21 21 16 22 20 19 18 16 17 18 18 17
21 33 37 35 27 26 24 22 21 21 22 21 21 23 21 20 20 21 21 24 29 31 30 29 26 25 24 26 25 24 20 20 21 23 24 22 21 15 18 17 18 18 18
25 24 42 37 35 30 30 23 27 22 21 24 24 23 24 21 19 22 24 25 26 30 29 28 27 26 29 28 25 25 20 23 21 23 26 23 18 18 19 18 18 19 17
30 25 39 38 37 31 30 26 23 26 24 22 21 24 25 24 21 23 24 27 32 30 32 28 32 28 31 26 24 25 24 20 22 23 26 25 19 18 20 20 19 19 18
30 29 29 35 35 33 30 28 26 22 26 29 24 21 24 27 24 25 25 24 27 24 24 25 30 27 31 30 28 26 25 20 21 32 26 24 22 21 19 19 20 16 17
33 31 28 36 36 36 31 30 29 25 23 24 28 28 24 24 27 26 27 28 27 26 27 28 28 26 36 30 30 26 23 22 23 20 22 23 21 21 22 21 20 17 16
31 35 31 32 38 34 28 30 27 26 25 24 25 27 27 26 27 28 28 28 30 27 27 27 25 26 29 29 24 27 24 22 21 20 26 23 22 20 20 21 20 18 18
23 24 29 31 34 32 27 27 25 26 24 25 26 23 25 26 27 29 26 28 29 29 33 29 28 30 25 28 25 22 18 25 24 19 26 23 23 23 20 20 22 20 20
21 22 22 29 35 31 28 27 23 22 23 22 25 28 28 27 28 30 29 29 29 30 33 29 30 24 23 32 16 17 4 11 20 25 23 25 26 27 24 22 18 19 21
25 22 21 23 33 30 26 23 21 23 20 22 23 24 27 27 29 30 32 30 31 28 25 33 33 31 25 27 26 19 4 4 7 12 20 21 24 29 26 26 24 22 24
24 27 24 23 23 32 29 26 28 24 19 16 20 21 23 26 29 31 30 32 32 32 34 36 38 39 27 23 28 27 18 18 7 3 11 22 24 25 22 24 25 23 22
18 25 28 26 24 32 32 28 29 24 20 16 19 22 23 23 26 29 30 32 33 32 35 35 35 35 34 25 24 24 24 24 26 8 4 10 18 26 25 20 21 25 24
19 19 30 26 22 30 29 32 28 26 20 20 23 21 23 24 26 29 30 34 36 35 37 39 35 39 38 30 27 24 25 15 18 16 4 15 16 25 26 25 26 21 27

GFSSE_925_spd_102.txt.gz
Wind_Speed
21 32 31 30 28 27 26 24 22 20 18 18 17 17 18 21 24 24 23 23 23 23 22 22 20 17 16 16 17 18 19 18 18 22 24 23 23 24 26 27 29 29 28
36 33 31 29 28 27 25 24 22 20 18 17 17 17 17 18 20 22 22 22 22 22 22 21 18 17 16 17 19 19 21 21 23 25 25 23 22 23 25 28 29 29 27
35 32 30 28 27 27 25 24 22 20 18 17 17 17 17 18 19 20 21 22 22 22 20 19 16 16 16 17 19 21 21 24 26 27 26 25 23 23 25 26 27 28 28
35 31 28 26 26 26 25 24 22 20 19 17 17 17 17 18 19 20 21 21 20 20 18 18 16 15 16 18 20 23 24 26 26 26 27 26 24 24 25 27 27 28 27
35 31 28 25 26 25 25 24 22 21 19 18 18 17 17 18 19 19 20 19 18 18 17 16 16 16 18 20 23 24 24 24 25 25 25 26 25 24 25 26 26 26 24
34 31 29 26 25 24 23 24 22 21 20 19 18 18 18 18 18 19 19 20 18 18 17 16 17 19 20 22 24 25 21 22 23 24 25 25 25 24 24 25 25 23 22
34 31 29 27 24 22 22 23 23 22 21 20 19 19 19 19 19 19 20 20 18 18 18 16 18 20 21 22 24 23 20 20 21 23 24 25 24 23 24 24 22 23 22
35 31 29 27 24 23 22 22 23 22 22 21 20 20 19 19 19 19 19 19 19 18 18 17 19 21 21 22 23 20 18 19 21 23 24 25 24 23 23 21 19 19 19
30 31 29 26 24 23 22 22 22 22 22 22 22 21 20 20 20 20 20 20 20 18 20 19 20 22 21 22 22 17 17 19 20 23 25 25 23 23 22 21 19 19 19
32 30 29 26 25 25 23 22 22 22 23 21 21 21 21 21 21 20 20 20 18 18 20 17 18 18 19 22 22 17 17 19 22 25 26 24 23 23 22 20 18 18 18
31 31 29 27 26 25 24 24 22 22 23 22 21 20 20 22 22 22 21 21 19 18 17 18 21 21 21 22 22 18 17 19 22 25 26 26 23 22 21 19 16 14 14
28 28 29 27 27 25 24 25 25 24 24 24 23 22 23 23 23 23 21 21 19 19 20 22 23 23 23 25 24 20 16 19 22 26 29 25 23 21 20 19 16 16 17
35 31 29 27 26 27 26 26 26 27 26 23 25 25 25 24 24 23 22 22 23 22 24 25 25 26 26 26 28 27 21 20 23 25 25 25 23 21 20 19 19 19 18
31 33 32 30 28 28 28 28 29 29 29 27 26 28 28 27 26 26 25 26 27 27 26 28 27 27 25 26 26 26 25 22 24 25 27 26 23 23 18 20 19 20 21
32 36 35 35 32 31 31 30 31 32 31 30 29 31 31 31 30 28 28 28 30 30 30 29 29 24 27 26 24 25 25 27 29 28 28 27 24 22 22 21 21 21 22
33 38 39 38 35 33 34 35 34 33 33 31 31 32 33 33 33 32 31 31 32 32 31 30 30 32 27 23 22 22 24 26 28 30 31 28 25 22 24 23 21 22 22
35 41 41 41 39 37 37 37 37 35 32 33 34 34 34 35 36 34 33 33 34 33 32 32 34 33 28 24 22 24 26 27 27 29 32 31 25 22 24 24 23 23 23
32 37 42 41 42 42 40 40 39 37 34 34 33 35 35 35 37 35 34 34 33 34 35 36 37 35 30 26 25 25 22 26 27 30 33 31 28 26 25 24 25 23 23
38 37 38 42 41 44 41 41 39 39 36 36 34 34 37 36 36 37 35 33 32 33 36 34 33 36 31 28 28 27 30 29 28 29 33 33 30 29 28 26 25 24 24
36 38 38 43 44 43 41 40 37 37 35 36 36 36 37 37 36 36 34 33 33 33 32 32 31 31 28 29 24 23 27 32 28 31 35 34 31 31 29 28 26 26 25
35 33 35 38 41 37 32 33 32 35 38 32 35 36 35 36 36 36 34 33 33 33 33 32 30 28 25 27 19 15 22 20 24 30 36 36 33 33 30 30 29 28 27
29 37 32 38 41 41 38 39 30 34 33 36 34 28 34 35 34 34 33 33 35 33 30 31 31 22 23 27 14 13 2 4 23 24 31 35 34 34 32 32 31 30 29
23 29 31 39 41 44 39 31 24 28 21 25 31 35 34 33 31 33 34 33 33 34 32 34 35 28 21 24 26 9 4 3 11 15 24 31 35 36 34 33 32 31 31
15 13 28 36 40 40 36 34 35 32 26 27 30 32 37 36 34 32 31 33 32 33 32 33 35 33 27 22 24 26 11 11 7 4 16 24 33 35 35 35 33 33 32
18 16 15 30 30 38 41 37 35 28 28 24 27 29 34 34 35 36 36 34 33 34 34 34 34 34 32 27 24 26 21 15 24 13 8 11 20 31 35 34 33 34 34
26 22 12 27 31 33 39 36 37 34 29 26 27 27 28 31 33 35 35 35 37 37 35 35 35 36 35 31 32 30 25 19 20 15 5 17 19 21 31 35 35 35 34

GFSSE_925_spd_105.txt.gz
Wind_Speed
23 33 31 30 30 28 27 28 25 23 21 20 21 22 23 26 27 26 26 24 23 21 19 18 17 15 15 16 17 16 15 18 19 21 22 22 21 22 23 23 25 25 25
29 37 33 31 30 28 27 28 27 24 21 20 20 22 25 27 26 25 24 23 21 20 19 18 16 15 15 15 17 18 19 19 23 24 24 23 22 22 23 24 24 24 24
36 38 35 32 30 27 27 27 27 26 23 20 20 21 23 24 24 23 23 21 21 19 19 17 15 15 16 16 17 18 19 22 24 25 25 24 23 23 25 24 23 24 24
39 39 36 34 32 29 27 26 26 25 24 22 21 20 21 22 23 23 22 22 21 20 18 17 16 16 17 18 18 19 21 24 25 25 24 21 23 23 25 25 24 24 23
38 38 35 33 31 29 28 27 26 25 24 24 22 21 20 21 22 22 22 21 20 18 17 17 16 17 18 19 20 21 22 22 23 24 24 22 24 23 24 24 24 23 23
39 37 34 32 31 30 29 27 26 25 24 24 24 22 20 20 21 22 22 20 19 17 17 16 17 18 20 21 21 21 21 21 21 23 24 24 22 21 22 24 24 21 19
39 37 34 32 31 30 29 27 26 25 24 24 24 23 21 20 21 21 21 20 19 18 17 16 18 20 22 23 22 20 20 20 21 22 23 23 23 22 21 24 21 18 19
41 37 34 31 30 29 28 28 26 25 24 24 24 24 22 21 20 21 20 19 18 19 16 16 20 22 23 24 22 20 19 18 19 20 21 24 22 22 22 23 20 19 19
37 37 34 32 30 29 27 26 25 25 25 23 24 24 23 22 21 21 20 19 18 18 18 18 21 22 23 24 22 19 18 17 18 19 20 23 23 22 21 20 20 19 17
32 34 33 31 29 28 27 26 24 24 24 24 24 24 24 23 22 21 20 19 17 17 17 18 20 21 22 23 21 19 18 17 17 20 22 22 22 21 21 21 19 18 17
28 31 32 32 31 30 27 25 23 23 23 24 23 24 24 25 24 22 21 20 18 17 18 18 20 21 22 23 21 19 19 18 18 21 21 22 22 22 21 20 17 17 17
27 30 32 31 32 30 29 27 25 24 24 24 25 25 26 26 26 24 22 22 21 19 20 21 22 23 23 25 23 21 21 20 18 20 22 23 22 21 20 18 16 15 16
31 28 33 33 32 31 29 29 27 26 26 24 24 24 25 27 27 26 24 25 24 23 23 23 25 25 26 28 27 25 23 22 20 19 24 24 23 22 21 18 19 17 17
27 35 35 34 33 31 30 30 29 28 27 26 27 25 27 28 29 29 28 28 28 28 27 28 29 28 27 27 28 24 20 17 18 21 26 27 24 22 22 20 19 18 18
19 23 36 37 35 34 33 32 31 31 30 26 25 27 29 30 33 32 32 31 31 31 30 30 29 29 28 28 27 26 22 21 19 19 26 27 24 22 23 19 19 19 20
30 33 33 38 38 37 36 34 35 33 32 30 27 28 32 33 34 35 34 33 33 33 32 32 31 30 28 27 27 26 25 24 22 24 26 29 27 24 23 20 20 19 20
28 35 39 40 40 39 38 37 37 36 31 33 33 33 35 35 36 36 36 35 35 35 34 33 32 32 29 28 27 24 24 27 25 27 27 31 28 24 22 21 21 20 21
33 32 40 44 38 43 41 41 38 38 36 35 34 34 36 36 36 36 36 36 35 35 35 35 35 35 33 32 28 25 24 24 26 26 25 31 29 26 23 23 24 23 22
40 39 39 42 44 45 43 41 39 39 38 36 36 36 37 37 37 36 37 36 32 31 35 35 34 34 33 31 30 27 25 25 27 27 27 32 32 29 27 25 25 23 23
36 40 43 43 45 46 42 38 35 35 36 36 36 35 37 38 37 36 36 35 32 27 30 32 32 32 30 31 26 25 29 29 27 29 30 33 34 31 29 28 26 25 24
29 33 40 38 41 39 34 32 28 29 36 37 37 37 37 37 38 37 36 34 34 31 30 31 28 29 26 27 17 17 22 28 28 30 32 34 35 33 30 30 28 27 26
27 22 33 37 41 40 36 37 29 35 33 41 40 40 40 38 39 39 38 35 34 30 30 32 30 21 22 27 14 7 3 4 20 31 33 34 37 36 34 32 33 30 29
18 18 19 32 35 40 38 30 23 24 18 21 29 34 39 40 40 40 39 38 35 34 33 33 32 27 20 23 29 7 3 3 3 10 25 30 33 35 36 35 34 33 33
15 14 11 27 37 39 38 34 33 33 25 27 35 37 35 39 42 38 39 37 35 34 32 34 33 31 24 19 23 30 12 5 3 2 12 23 27 34 36 37 36 36 34
20 19 15 18 34 32 37 36 35 28 29 24 27 32 34 37 39 38 39 36 35 35 34 34 32 32 32 24 24 16 22 13 15 4 4 7 19 28 34 37 38 38 36
21 23 21 9 27 32 36 35 34 34 29 26 26 27 29 30 35 38 38 36 36 35 34 35 34 33 32 30 27 28 23 14 13 8 3 12 17 19 30 35 38 39 37

GFSSE_925_spd_108.txt.gz
Wind_Speed
26 33 31 31 31 28 27 26 26 26 27 28 28 27 25 24 26 25 24 23 21 20 17 17 15 16 16 15 17 16 15 17 18 20 21 21 21 21 23 24 24 23 22
35 36 33 32 31 28 27 26 26 26 25 25 26 28 27 27 26 25 24 23 21 19 18 17 16 15 16 17 15 14 15 17 20 21 21 21 21 21 22 24 25 24 23
32 36 34 32 32 29 27 26 25 25 25 25 24 26 29 29 26 25 24 23 21 19 18 17 15 15 15 16 16 16 17 20 21 22 21 21 20 20 23 23 24 24 24
33 37 35 34 33 31 29 27 25 25 25 25 25 27 29 28 26 24 23 22 21 20 19 18 15 16 17 17 16 17 19 21 23 23 21 20 20 20 23 22 22 24 23
40 39 37 36 35 32 30 28 26 25 25 26 27 27 27 26 25 24 22 22 21 20 19 17 15 16 17 17 18 19 21 23 22 21 21 21 21 20 21 22 22 22 23
40 39 37 36 34 33 31 29 27 26 25 25 26 26 26 26 25 24 22 22 20 19 18 16 17 17 17 18 19 20 21 21 21 20 21 20 20 20 20 22 22 21 19
38 38 36 35 34 32 31 29 27 26 25 26 25 25 25 25 25 25 23 21 19 18 18 17 18 18 19 19 20 20 19 20 20 21 21 21 20 20 20 22 20 19 16
37 37 36 34 33 32 30 28 27 25 25 26 26 25 25 24 25 24 23 21 20 18 16 16 19 20 20 21 20 19 19 20 21 20 21 20 21 20 21 22 18 17 16
33 35 34 33 32 30 29 28 27 26 25 25 25 25 25 24 24 25 23 21 19 19 16 18 20 21 22 21 19 19 18 18 19 19 19 19 21 21 22 22 18 17 17
28 30 29 30 31 30 28 27 27 26 25 25 25 24 24 24 23 24 23 22 20 19 18 20 22 23 23 21 19 18 17 17 17 19 19 19 20 21 20 19 19 19 17
24 28 27 26 29 28 26 25 25 26 26 25 25 24 23 24 24 24 25 23 22 20 19 20 22 23 23 21 19 18 18 18 17 18 20 20 20 20 19 19 18 17 17
17 27 29 26 27 28 28 26 26 26 27 27 27 26 26 25 25 25 25 24 23 22 21 21 22 23 23 23 21 19 19 19 18 18 20 21 20 20 20 20 17 17 17
13 18 24 27 27 28 28 29 28 27 28 28 28 28 28 27 26 26 26 25 24 23 23 23 24 26 26 26 24 23 21 20 20 19 20 22 20 21 21 20 18 16 15
14 16 24 26 25 29 29 30 29 27 28 30 29 29 29 28 28 28 28 28 27 27 26 26 28 27 27 27 27 25 23 22 22 22 22 23 23 22 20 19 18 16 16
16 24 24 27 30 29 31 32 30 31 31 32 29 29 29 30 31 30 30 30 30 29 29 29 29 29 29 29 27 26 24 21 18 17 19 22 23 23 21 19 19 17 18
19 22 27 29 32 32 32 36 35 32 33 34 31 31 30 30 31 31 33 31 32 32 31 31 31 30 29 29 29 27 25 22 19 18 14 16 22 25 23 22 19 19 18
24 24 28 29 34 38 36 36 37 35 34 32 32 33 32 29 33 31 33 34 33 33 32 31 31 31 29 28 28 27 26 24 22 22 14 13 25 27 25 23 19 19 19
32 29 30 33 34 40 42 41 40 35 31 29 26 27 32 30 33 32 32 35 33 34 32 32 32 31 30 28 29 27 25 25 25 25 22 22 25 28 27 23 22 20 20
35 36 36 35 37 38 43 44 42 39 36 35 27 29 33 32 34 33 32 32 31 31 33 33 33 33 32 30 29 27 27 25 25 27 26 25 25 29 30 25 25 24 22
33 36 33 35 38 41 40 38 37 37 35 35 34 33 35 35 34 34 35 32 31 29 30 32 33 33 30 30 26 26 26 25 24 25 26 27 27 30 32 27 25 25 23
27 29 31 33 34 39 33 33 32 32 35 33 38 40 37 37 36 35 34 35 32 32 29 32 30 30 25 26 18 15 19 25 26 27 25 29 30 30 28 28 28 27 26
27 25 26 29 33 38 34 34 34 36 33 38 33 31 39 39 39 36 35 36 37 33 31 29 31 20 21 27 12 6 3 8 26 28 29 29 33 33 36 33 31 31 30
22 21 18 23 27 35 36 30 27 25 20 23 26 30 40 39 39 37 38 38 38 35 34 34 33 27 20 23 26 9 2 4 4 12 31 33 31 36 39 35 33 33 32
22 27 24 21 23 34 39 33 34 32 26 29 32 37 36 41 42 39 38 39 37 36 34 36 35 33 25 19 22 29 16 7 3 2 8 15 32 36 38 37 36 35 35
23 25 26 23 26 31 34 36 37 33 31 28 28 29 33 37 41 41 40 39 38 38 36 36 33 34 32 24 24 15 22 17 13 4 2 5 15 26 35 38 39 38 38
25 26 26 25 23 25 34 38 38 37 30 25 28 29 30 32 34 38 39 40 40 37 35 35 35 36 33 30 28 24 20 13 12 10 2 7 14 18 30 35 37 40 39

GFSSE_925_spd_111.txt.gz
Wind_Speed
16 32 33 30 29 28 27 26 26 28 31 30 30 30 28 27 27 27 26 25 23 21 20 18 14 17 14 13 14 16 11 13 15 16 17 19 19 20 21 21 21 20 22
20 32 33 31 30 28 28 27 27 28 29 29 29 29 27 27 28 28 26 24 22 20 19 17 16 16 15 15 15 13 13 15 17 17 19 18 18 18 20 21 21 21 23
25 34 33 31 31 29 27 27 27 27 27 28 29 28 28 28 28 28 26 24 21 19 19 18 16 16 15 16 14 14 16 17 19 19 19 16 16 18 21 21 22 22 23
32 36 35 33 32 29 27 26 26 26 26 27 28 28 28 29 28 28 26 24 21 19 18 18 16 16 16 16 15 16 17 20 21 19 15 16 17 18 20 21 21 22 22
31 33 34 34 33 30 27 26 25 24 24 24 27 28 30 29 27 26 25 23 21 20 19 17 17 17 17 16 16 18 19 21 21 16 16 17 18 17 19 21 20 21 21
28 31 33 33 32 30 28 26 25 24 24 24 25 28 29 28 27 26 24 24 22 21 19 17 17 17 17 17 17 18 20 21 20 15 18 18 19 19 18 20 21 21 22
20 31 33 33 32 30 28 27 25 24 24 25 26 27 27 26 26 25 24 24 22 21 18 18 18 18 18 17 17 18 19 20 16 16 18 17 16 19 20 20 20 18 18
20 26 31 31 31 29 28 27 26 24 24 25 25 26 26 25 25 25 24 23 22 21 19 18 20 19 19 18 18 19 19 19 16 15 18 19 17 18 20 22 20 16 15
20 22 28 28 29 28 28 27 26 25 24 24 25 25 25 25 24 24 23 22 21 19 18 17 20 20 20 20 19 18 18 19 16 14 15 17 20 19 21 21 19 16 16
17 13 18 25 26 26 26 26 25 25 24 24 24 24 25 24 23 23 22 22 21 19 19 19 21 21 21 20 19 18 18 18 15 15 15 15 21 20 22 21 18 17 17
11 14 11 14 19 23 24 25 24 24 25 24 24 23 23 22 23 23 23 23 21 20 19 20 22 22 22 20 19 19 18 15 15 14 14 18 19 19 21 20 20 19 18
6 11 10 12 16 20 19 24 24 24 23 24 25 23 23 23 24 22 23 22 21 20 19 21 23 23 22 19 19 19 16 15 14 14 14 20 20 19 20 19 19 18 18
12 13 18 18 18 18 18 21 23 24 26 26 25 25 22 22 22 25 21 22 20 21 20 22 23 24 21 20 19 19 17 16 15 15 16 20 21 19 20 20 19 17 17
14 16 19 22 21 22 19 20 21 21 25 28 29 30 28 27 25 26 21 23 20 23 20 23 25 24 21 21 19 18 17 16 15 18 19 21 21 20 22 22 20 19 17
14 16 21 23 28 26 26 23 21 23 25 29 30 31 32 30 27 27 26 22 22 21 22 24 24 22 20 20 19 19 18 17 16 14 18 19 22 22 23 22 21 19 18
21 16 20 24 30 33 34 29 27 27 26 27 31 31 33 31 29 28 28 27 24 25 27 24 25 23 21 20 20 19 18 16 16 16 16 17 21 23 23 24 22 20 18
28 28 17 23 28 30 34 36 33 30 30 32 31 29 32 30 29 28 31 29 31 31 29 27 24 23 19 19 19 19 18 17 15 15 16 14 12 17 25 29 23 20 20
28 30 30 22 25 30 33 33 39 39 35 29 25 28 32 31 27 30 31 31 31 34 30 27 23 21 19 19 18 17 18 16 16 18 20 18 13 10 18 28 23 21 20
25 29 32 30 24 30 32 38 35 40 40 36 29 33 32 31 36 34 33 32 31 33 34 30 23 21 20 18 17 17 18 21 25 21 24 26 23 20 21 29 29 23 21
26 28 30 32 30 25 29 32 28 29 31 31 37 34 33 35 35 33 33 35 32 33 33 34 28 24 20 19 17 17 17 25 19 24 27 27 27 24 27 28 29 26 25
17 20 21 23 30 24 24 27 28 30 31 32 36 38 33 33 36 36 31 35 34 34 35 34 30 26 19 22 13 12 15 20 22 26 26 26 24 26 28 29 31 25 25
18 16 17 16 20 22 27 28 30 32 33 35 35 33 34 36 38 41 36 38 38 33 34 34 32 19 21 26 12 7 4 12 19 22 23 25 28 27 29 29 32 28 23
21 21 22 21 20 19 24 27 26 26 27 28 29 33 42 41 38 40 38 35 39 35 34 35 34 29 21 23 26 9 3 5 4 13 28 29 29 28 30 33 31 36 28
27 24 26 25 25 23 19 27 31 31 29 33 35 35 37 42 38 40 42 38 36 35 32 36 36 33 24 19 21 26 14 3 4 3 9 21 27 30 32 35 38 41 38
26 29 26 27 27 25 22 26 32 34 32 32 32 32 34 37 40 40 45 42 36 35 37 35 34 34 32 24 23 14 24 19 11 6 5 4 18 25 32 36 38 38 40
27 29 29 27 26 23 20 27 36 36 33 30 32 30 30 31 35 38 36 41 41 38 36 39 37 36 33 28 26 23 20 11 13 10 6 6 11 15 27 30 35 38 38

GFSSE_925_spd_114.txt.gz
Wind_Speed
9 20 29 26 26 25 22 21 21 23 25 26 28 28 27 26 26 26 25 24 22 20 18 18 18 16 14 12 12 11 9 11 13 13 15 16 16 17 18 19 17 17 21
12 19 29 27 26 26 22 20 21 22 27 27 27 27 26 26 27 26 24 24 21 20 20 16 17 15 13 12 15 10 11 13 14 15 16 16 15 16 19 17 16 19 21
15 21 30 29 28 27 24 21 22 24 26 26 26 27 25 25 26 25 24 23 21 20 18 15 16 15 14 14 15 12 13 15 16 16 16 13 13 15 19 18 19 21 21
15 23 24 29 29 27 26 24 24 25 25 26 26 26 24 25 25 24 23 22 20 19 18 16 15 14 15 15 14 14 15 17 17 17 11 13 14 16 17 19 21 21 22
14 21 24 31 30 28 26 25 24 24 25 25 26 25 25 25 25 24 22 21 19 19 19 16 15 15 16 15 15 16 17 18 18 13 11 12 14 15 18 18 20 20 20
15 20 22 31 30 28 27 25 25 24 24 25 25 25 25 26 25 23 22 20 18 19 19 17 16 15 16 15 15 17 18 18 16 10 10 13 12 16 18 20 21 22 21
13 16 16 29 30 29 27 26 24 24 23 24 26 26 27 26 25 23 21 20 19 19 19 17 17 16 16 15 16 17 18 17 10 9 11 14 12 16 17 19 20 22 22
11 13 15 26 28 28 27 26 24 23 22 22 25 26 26 25 24 23 21 20 19 19 18 17 17 17 16 16 16 17 17 17 9 10 11 12 13 17 17 19 20 19 20
8 12 13 18 23 27 26 25 25 24 23 22 24 25 25 24 23 23 21 21 20 19 17 17 18 18 17 16 17 17 17 16 9 10 10 11 14 16 20 20 18 17 16
7 13 14 14 18 19 21 24 24 23 23 24 23 24 23 23 22 22 22 21 20 18 16 15 18 18 18 17 17 16 16 15 9 9 11 12 16 18 20 20 19 14 14
6 12 13 13 15 18 18 20 23 22 22 23 23 23 22 18 19 20 20 20 20 18 16 15 18 18 18 17 16 16 15 11 10 10 10 13 18 18 20 20 18 16 15
8 13 14 13 15 17 17 17 19 19 20 20 20 21 20 19 19 19 20 21 20 18 16 16 17 18 17 14 14 16 13 10 11 11 10 14 19 18 20 22 20 18 18
6 13 17 16 14 16 17 17 20 20 21 22 22 22 22 21 19 21 18 19 19 19 15 16 17 17 17 15 15 15 14 12 12 11 12 14 20 19 20 23 22 20 20
7 10 14 19 19 19 18 16 17 19 21 23 25 25 24 24 22 22 20 20 20 20 18 19 18 18 18 16 15 16 15 14 12 11 12 16 20 19 20 21 22 21 21
7 7 10 16 19 22 23 21 20 23 22 23 22 26 26 23 23 24 23 21 21 20 20 20 19 20 18 17 17 16 16 15 13 12 11 15 20 21 19 20 21 21 21
10 8 9 13 19 20 24 26 26 24 25 24 24 25 28 26 25 24 24 24 23 21 21 20 20 20 19 18 18 17 17 16 15 14 13 10 19 22 23 24 26 25 22
15 12 10 13 17 21 25 25 25 28 26 25 27 26 29 28 25 24 26 25 25 24 22 21 20 19 18 18 18 18 17 17 17 17 14 14 13 20 24 23 27 31 24
18 17 13 12 16 21 24 25 26 27 27 28 25 26 27 35 29 26 26 28 25 25 24 24 22 20 20 19 18 16 16 16 17 17 17 15 14 12 17 20 20 19 20
19 20 19 16 15 21 24 26 27 26 27 28 27 28 29 31 33 28 27 27 27 28 27 24 24 23 21 19 17 16 16 17 18 18 19 18 17 16 13 12 11 19 29
20 20 22 19 17 17 24 25 26 26 27 29 29 29 31 33 33 32 28 25 29 29 27 27 24 24 22 19 18 17 17 17 17 19 19 20 22 24 23 17 15 17 27
19 21 19 21 16 16 20 25 26 28 29 32 32 32 32 32 33 33 30 28 33 35 33 29 25 24 22 19 14 14 14 14 17 21 20 19 21 21 23 25 21 24 34
20 21 21 21 20 18 18 23 26 27 30 32 33 33 32 32 32 35 34 33 35 31 31 31 32 22 19 25 13 8 4 12 20 22 22 22 21 20 23 25 28 27 28
22 22 23 24 23 23 21 21 25 28 28 29 30 30 33 35 36 39 36 33 34 33 33 33 33 30 23 25 27 13 5 8 9 15 22 24 22 23 27 26 28 28 31
23 23 24 25 26 24 23 23 25 29 30 31 30 32 35 37 36 36 36 37 36 35 34 36 33 33 26 21 24 28 23 9 6 4 10 15 21 21 27 27 30 30 32
24 24 24 25 27 25 24 25 27 30 31 30 30 31 34 34 38 37 37 37 37 37 37 33 33 33 33 25 26 18 24 22 19 7 9 8 12 18 23 29 32 32 34
25 26 27 27 26 27 24 25 29 32 35 31 31 30 31 33 35 39 39 38 39 37 36 38 34 34 32 28 25 26 23 19 19 14 9 15 17 16 21 28 33 35 35

GFSSE_925_spd_117.txt.gz
Wind_Speed
2 16 27 22 21 20 19 17 16 17 18 19 18 19 18 17 18 19 19 19 17 18 16 15 14 12 10 8 7 8 5 7 9 9 12 14 14 14 16 16 15 16 19
9 17 27 24 23 21 20 18 18 18 19 20 21 20 19 18 18 19 19 18 16 15 14 13 13 11 10 9 9 7 8 9 10 12 14 14 13 15 15 13 14 17 19
7 16 29 27 25 23 20 18 18 18 20 21 22 22 20 19 19 19 19 17 16 15 14 13 13 11 10 11 12 8 10 10 12 12 14 12 12 16 13 14 17 19 19
5 13 22 28 27 25 22 20 19 19 22 22 23 23 21 21 21 20 19 17 16 15 12 11 14 12 11 12 11 10 11 13 13 14 8 11 12 15 14 15 18 19 20
5 13 20 28 28 26 23 21 21 22 23 23 23 24 22 22 23 21 20 17 16 14 13 12 13 13 13 12 11 12 13 13 15 10 9 10 12 13 15 16 15 17 19
4 12 20 25 27 27 26 23 23 23 23 23 23 24 23 23 23 22 20 17 16 15 14 12 13 13 14 12 12 13 14 14 17 13 15 11 11 13 15 16 18 19 19
4 11 14 21 26 26 25 24 23 23 23 23 24 25 24 24 24 21 19 18 16 15 14 13 12 13 14 13 13 14 14 14 13 6 6 9 9 14 15 17 18 19 20
3 10 9 17 25 25 24 23 23 23 22 23 23 24 24 25 24 22 20 18 16 16 16 13 13 13 13 13 14 14 13 11 8 7 7 7 11 15 16 17 16 18 19
4 10 8 13 19 24 23 22 21 21 22 22 23 23 24 24 23 22 20 18 17 17 16 14 14 13 13 12 13 13 13 13 10 7 8 8 10 15 17 17 17 17 17
3 9 11 13 16 17 19 22 21 21 21 21 22 23 23 23 22 21 20 18 18 17 16 14 15 14 13 12 13 13 12 11 10 11 8 11 10 14 18 19 18 17 16
2 6 8 13 17 19 18 18 21 20 19 19 20 22 22 17 17 18 18 18 19 18 17 14 16 15 14 13 13 12 12 9 9 6 7 11 10 15 17 20 19 17 14
5 8 15 13 16 18 20 18 18 16 18 19 18 19 19 18 18 19 18 20 19 18 17 15 15 16 15 11 12 13 11 13 11 8 5 7 9 15 17 20 20 18 16
9 7 13 15 17 18 18 19 19 20 19 20 20 20 20 19 19 20 20 20 18 20 16 15 16 16 16 16 15 13 13 13 10 8 8 7 10 16 17 21 22 18 16
8 5 11 16 16 20 21 20 20 23 22 22 23 24 23 22 19 21 21 19 21 20 18 17 17 18 19 17 15 16 15 14 12 10 8 8 11 17 16 20 22 20 17
6 5 4 12 16 19 21 19 22 22 24 23 22 25 25 25 22 23 22 23 22 21 22 21 20 20 20 19 14 15 16 14 13 9 7 10 13 19 19 20 22 22 21
9 7 6 8 13 17 20 21 22 23 23 25 26 25 27 24 23 23 24 24 24 24 22 20 21 24 20 18 18 17 16 15 15 13 10 10 14 19 20 20 21 20 21
13 11 7 9 11 15 19 21 23 22 25 25 26 23 32 26 26 25 25 23 22 22 24 22 20 20 23 20 18 18 17 17 15 14 15 11 11 18 22 22 19 19 24
13 12 10 9 11 14 18 20 22 24 24 26 26 26 29 36 28 25 28 27 23 23 22 22 23 21 22 20 19 17 17 17 16 15 16 16 11 13 20 24 21 18 21
15 16 14 13 16 16 18 21 23 24 27 27 27 27 30 33 35 30 27 30 27 23 21 25 24 23 23 21 18 18 19 17 18 17 17 16 18 14 12 18 20 19 13
18 18 18 16 15 15 16 20 24 25 27 27 28 29 31 34 34 34 28 27 32 26 23 26 25 24 24 20 19 18 18 19 17 17 18 19 18 18 16 13 18 14 9
18 20 20 18 16 16 16 17 23 26 28 28 32 30 31 33 33 34 33 32 33 33 31 30 27 26 24 19 18 16 16 19 20 19 19 17 19 21 19 20 18 20 19
20 21 21 21 19 17 17 19 20 24 28 30 30 33 34 33 34 36 36 32 33 31 32 32 31 26 24 24 17 12 4 8 19 22 21 20 18 18 18 21 20 20 21
21 21 22 23 22 20 18 21 23 26 29 26 32 32 34 36 35 38 38 36 33 31 32 32 32 29 24 23 25 12 5 8 10 22 25 24 21 23 20 22 25 24 23
24 22 21 23 24 22 20 20 22 25 26 27 28 31 33 36 38 37 38 38 33 33 32 37 36 34 28 23 25 28 23 12 6 6 13 18 20 21 21 22 26 27 26
26 25 25 24 24 23 22 22 23 25 27 30 31 33 35 32 38 37 38 36 35 33 35 34 34 35 33 28 27 25 27 24 19 11 6 10 15 17 19 24 22 25 25
28 27 28 27 25 23 22 22 23 26 28 29 30 29 32 34 34 37 38 37 35 34 33 34 35 35 33 31 28 28 23 21 18 12 9 11 12 18 18 19 22 25 25

GFSSE_925_spd_120.txt.gz
Wind_Speed
10 21 23 22 20 18 16 15 14 14 14 13 13 13 12 12 13 13 14 14 16 15 12 12 12 10 6 4 3 4 3 2 6 9 13 15 17 18 19 17 16 18 18
4 20 25 22 21 20 18 17 16 15 16 15 15 15 14 13 14 14 14 13 13 13 11 10 9 8 6 5 5 5 6 7 8 11 13 14 16 18 17 13 15 19 18
4 17 25 22 22 20 19 17 16 16 17 17 17 18 16 15 15 15 15 13 12 10 10 9 10 8 7 7 7 5 7 8 10 12 15 13 15 15 14 16 15 18 18
2 14 21 23 22 20 19 18 17 16 17 17 18 19 17 16 16 16 15 13 12 10 9 8 10 8 8 9 9 7 8 9 13 15 11 13 13 13 13 13 15 18 18
2 12 15 21 20 19 18 17 17 17 18 19 20 20 17 16 17 17 16 14 13 11 9 8 9 8 8 10 9 8 10 11 16 13 13 14 11 12 13 14 14 16 17
3 9 14 17 20 18 16 16 16 16 17 18 19 20 19 17 18 18 17 15 14 12 10 9 9 9 9 9 9 9 10 12 16 9 12 13 14 11 15 16 17 18 17
6 9 14 12 20 19 17 16 15 16 18 18 19 20 19 18 18 18 17 15 14 13 12 10 9 9 9 8 8 9 9 11 11 5 14 16 11 12 16 17 17 18 18
5 8 10 11 19 19 18 16 16 17 17 17 18 19 19 18 19 19 18 15 14 13 13 10 10 10 9 9 8 9 8 10 8 3 10 10 9 14 15 16 16 17 18
3 5 7 7 19 20 19 17 16 16 17 18 18 19 19 19 20 20 18 16 15 14 13 11 11 11 10 9 9 9 9 9 7 5 9 12 11 13 16 17 17 17 17
3 4 6 6 16 22 21 19 17 16 17 18 19 19 19 20 20 19 18 16 15 14 14 13 12 12 11 11 10 10 9 10 11 4 7 9 10 13 14 16 17 17 16
6 9 7 10 13 16 18 21 20 18 16 17 17 19 19 20 20 19 19 16 16 15 14 13 12 13 12 12 12 11 10 10 5 4 10 14 11 11 15 17 17 16 16
6 10 15 12 15 18 19 19 23 22 21 19 18 19 20 17 16 16 17 18 16 17 16 14 12 14 14 13 14 14 12 10 8 5 4 12 8 9 15 18 17 16 15
10 4 13 16 15 21 23 26 23 22 23 23 22 21 23 18 19 18 21 19 18 18 18 17 15 17 17 13 13 15 13 11 8 9 10 6 5 9 15 18 19 19 15
12 12 8 12 16 23 21 21 25 24 25 24 25 25 23 25 23 21 22 24 22 20 20 18 18 19 17 20 18 14 11 12 11 6 8 9 6 9 14 17 20 20 16
9 5 3 8 13 17 24 22 19 25 26 26 26 28 26 28 26 25 24 23 21 21 21 20 20 18 19 19 14 18 16 16 13 9 9 11 8 11 15 16 19 20 19
10 9 4 5 9 14 18 21 22 24 17 26 27 29 31 26 26 30 29 24 25 24 25 22 23 21 21 22 19 16 17 17 14 11 10 8 9 13 17 17 17 21 18
12 13 14 6 10 8 16 20 23 23 27 17 26 22 31 31 27 26 28 25 26 26 28 25 23 23 24 22 22 20 18 18 16 13 10 11 10 14 18 18 18 17 17
26 25 25 24 20 17 17 16 21 25 24 25 23 34 31 30 28 29 27 27 25 25 31 27 25 23 26 25 24 24 21 20 19 17 15 12 12 14 19 21 20 18 18
25 27 27 25 24 23 20 22 22 21 25 27 32 29 33 36 40 24 30 35 30 19 25 31 29 28 24 27 27 23 22 21 21 19 17 19 14 14 16 17 23 24 22
23 24 25 26 26 27 24 23 24 27 24 28 29 33 33 34 35 41 26 32 40 28 22 30 31 30 27 25 22 22 22 23 21 21 22 20 20 20 16 18 20 26 24
23 25 25 25 25 26 24 23 23 21 25 26 28 28 31 33 35 37 39 29 35 40 28 28 29 30 29 25 22 19 21 23 24 25 21 21 26 24 24 22 21 24 26
21 22 25 24 22 23 25 26 27 28 28 29 26 33 36 33 36 38 39 36 34 35 35 27 29 26 24 30 18 12 3 11 24 27 25 25 26 24 26 28 26 27 29
23 25 25 26 25 24 26 26 26 28 27 27 28 26 36 40 39 40 40 40 36 35 37 39 34 30 26 28 29 13 3 5 6 21 29 29 21 22 21 25 28 27 28
23 25 26 27 28 27 26 26 24 24 25 28 30 29 26 38 40 40 42 39 39 39 35 38 40 38 27 25 27 32 19 7 4 3 20 28 29 27 28 26 27 29 30
25 26 27 28 27 30 29 26 24 25 26 28 30 29 30 29 37 42 42 43 41 38 39 39 36 37 38 30 29 26 26 24 17 5 3 9 23 26 28 29 28 29 30
27 27 27 29 28 29 31 30 28 28 27 29 31 31 30 27 29 40 43 43 43 44 42 31 34 35 37 36 31 30 26 18 19 11 4 5 10 20 26 27 29 30 29

GFSSE_925_spd_123.txt.gz
Wind_Speed
6 16 18 18 17 17 17 17 17 16 15 15 14 14 13 14 14 14 15 16 16 14 14 15 15 10 8 5 6 8 9 11 12 12 16 16 18 19 18 17 18 20 19
4 14 19 18 16 15 15 15 15 15 15 15 15 14 13 14 15 15 15 15 15 13 12 11 10 8 6 5 8 9 10 13 14 16 16 18 20 18 17 14 19 20 19
1 15 20 18 17 15 14 14 14 14 15 15 16 16 15 14 14 14 14 14 13 11 9 8 7 5 5 6 7 8 10 12 16 16 16 19 19 17 15 13 18 19 19
2 13 20 17 16 16 14 13 13 13 14 15 15 16 15 15 15 14 13 12 12 11 11 9 8 6 4 5 7 7 9 14 17 16 14 14 14 15 15 14 17 19 19
6 14 18 18 16 15 14 13 13 14 15 16 16 17 15 15 15 14 14 12 11 9 9 9 9 7 5 6 6 6 11 14 14 11 14 9 11 13 14 14 14 19 19
7 15 12 17 17 14 13 12 12 13 14 15 16 17 16 15 15 15 14 12 11 10 8 8 8 7 8 7 6 6 10 14 10 9 13 8 8 12 14 15 16 17 19
10 12 9 8 17 16 14 12 12 13 14 15 17 18 17 15 15 15 14 12 11 9 9 10 9 8 9 8 6 7 10 12 7 9 13 10 10 13 16 15 16 18 19
6 8 10 10 15 17 16 14 14 14 15 15 16 17 17 15 15 15 15 13 12 10 10 9 9 9 9 8 9 10 10 13 5 13 8 11 11 14 15 16 14 16 17
1 5 7 7 11 17 18 16 15 15 17 16 17 17 18 16 16 16 15 14 13 12 11 9 8 9 9 8 8 9 10 13 12 8 9 12 12 16 16 15 16 17 16
6 4 7 7 10 18 20 18 17 17 18 18 19 20 20 18 18 18 17 16 14 13 13 12 10 9 9 9 8 9 10 11 11 10 15 13 10 15 17 18 18 17 16
6 9 9 9 8 16 20 21 19 18 19 20 20 21 22 21 21 21 20 17 16 14 14 13 11 11 11 10 10 10 10 10 9 9 13 13 11 14 17 18 18 17 16
9 11 10 9 9 10 18 20 22 21 21 22 22 23 24 24 24 24 22 20 17 16 15 13 12 11 13 12 11 12 11 10 6 5 7 15 15 13 16 19 19 18 16
7 3 10 12 12 12 15 19 23 25 24 23 23 23 24 24 24 25 24 23 21 19 18 16 14 14 15 14 13 13 12 12 9 7 8 13 16 12 17 20 20 19 17
13 6 5 6 10 15 21 20 25 28 26 25 25 24 25 27 25 26 26 26 26 25 23 21 19 17 17 16 13 13 14 11 8 6 14 15 15 13 16 20 21 20 17
14 15 3 3 6 11 18 24 21 28 29 29 28 27 27 28 29 28 29 28 28 27 26 25 22 21 20 19 19 17 15 13 11 7 14 14 13 14 15 20 22 21 21
29 30 28 26 19 9 10 16 24 24 24 30 31 33 32 31 32 31 32 30 31 29 27 28 26 24 23 22 22 18 19 14 13 11 13 15 12 11 15 19 20 22 23
25 29 30 29 28 26 23 18 16 22 31 28 31 35 37 36 34 34 34 34 32 31 27 29 28 25 22 22 22 19 20 18 17 12 13 15 15 15 17 19 19 21 23
29 31 28 28 30 31 29 27 22 18 20 28 34 29 38 37 39 38 35 37 31 33 33 33 32 32 28 26 25 23 21 21 19 17 14 15 18 17 18 19 19 19 21
31 30 31 30 32 32 32 31 28 26 24 23 29 34 34 35 35 35 36 37 37 33 36 37 36 36 35 32 29 26 28 26 25 23 21 17 18 16 17 19 22 23 23
32 31 31 31 32 34 32 31 32 30 27 23 24 32 34 35 32 39 33 33 34 33 30 39 40 38 37 34 32 29 26 27 27 27 24 23 22 19 19 20 21 26 27
33 33 32 32 32 32 30 30 32 32 35 37 35 27 31 34 35 44 36 35 39 44 36 35 36 39 32 33 27 26 26 27 29 28 27 26 26 25 24 25 24 24 28
30 32 30 30 30 29 28 28 27 29 28 31 33 33 31 30 37 36 31 41 42 44 38 33 37 29 25 36 19 18 4 11 29 32 30 28 31 27 31 30 28 28 28
28 28 29 31 30 29 28 31 29 29 31 29 28 29 29 27 27 38 42 50 38 42 37 41 39 35 30 31 32 13 3 5 4 18 34 32 32 31 34 36 32 31 29
25 27 29 29 30 30 27 27 28 27 26 27 31 32 34 32 28 25 42 45 48 46 41 43 38 38 34 30 30 37 20 13 4 2 16 34 38 36 33 37 36 33 31
28 30 28 29 27 28 30 26 27 29 28 29 34 35 35 35 31 30 25 42 44 48 44 41 41 39 39 34 38 32 27 19 14 3 3 8 28 35 32 34 34 34 33
30 29 30 28 28 29 30 28 28 29 29 29 29 34 34 33 32 33 32 27 41 42 43 43 47 43 41 32 29 27 32 24 14 5 3 5 11 25 37 36 35 35 35

GFSSE_925_spd_126.txt.gz
Wind_Speed
11 19 19 17 16 16 17 18 18 17 17 15 15 14 14 15 16 19 20 21 21 20 19 18 16 12 9 9 8 9 8 9 12 14 16 17 18 19 19 19 19 19 18
7 16 19 17 16 16 15 15 16 16 15 15 14 14 14 15 15 17 18 18 18 17 19 19 14 10 8 10 10 10 11 12 13 16 17 18 17 17 16 17 19 18 17
4 15 18 18 15 14 14 14 14 15 15 15 15 14 14 14 15 15 15 15 14 14 14 14 13 11 10 11 10 12 13 14 15 14 16 17 17 15 14 16 18 17 17
3 11 17 18 16 14 13 14 15 15 15 15 15 16 15 15 14 13 13 12 12 10 11 11 11 10 10 11 12 11 15 17 16 14 14 14 13 14 13 16 16 19 18
8 11 14 16 15 15 13 13 14 14 16 16 17 16 15 15 15 13 12 11 10 9 8 9 10 10 10 12 11 13 15 17 13 15 14 12 13 14 14 16 16 17 19
7 10 13 14 16 16 14 13 13 15 16 17 17 18 17 16 15 15 13 11 10 9 8 9 9 8 10 12 13 14 17 16 12 13 13 14 12 14 16 16 17 17 17
8 9 9 11 15 15 14 13 14 15 17 18 18 20 19 18 17 17 15 13 11 10 9 10 8 8 10 10 11 14 15 15 12 13 12 10 12 14 16 16 17 16 19
6 10 9 8 12 14 13 13 14 15 16 18 20 22 21 19 19 19 17 16 14 12 11 11 10 10 10 9 10 12 13 14 9 13 12 13 12 11 14 16 16 16 17
4 5 7 7 10 14 14 14 14 15 18 19 21 22 22 21 21 20 19 18 16 14 13 11 11 12 12 11 11 12 13 12 11 12 11 13 13 13 14 17 18 19 18
4 6 9 10 10 12 16 17 16 16 18 19 20 21 23 22 22 22 21 20 18 16 15 14 13 13 13 14 14 14 13 12 9 10 10 12 13 17 18 18 18 19 18
7 10 12 11 9 11 15 20 19 18 18 20 21 22 22 24 23 24 24 22 20 18 17 16 15 14 14 14 15 15 16 14 13 9 11 13 15 18 20 20 20 19 18
9 11 11 11 10 9 12 19 21 20 21 23 24 24 25 26 26 26 26 24 22 21 20 19 17 17 17 16 17 18 17 16 15 11 15 17 18 18 19 20 21 21 19
11 5 6 11 11 10 12 15 21 22 23 24 25 27 29 28 27 28 28 27 25 23 22 21 20 20 20 19 18 18 18 19 17 13 18 19 19 17 20 22 22 23 20
26 14 5 3 7 11 12 15 17 23 26 26 27 28 30 31 30 31 32 32 30 28 26 25 24 23 22 21 20 19 19 19 20 15 15 20 23 19 19 23 24 22 22
29 26 24 18 12 12 8 11 14 21 26 28 28 29 30 32 33 33 33 33 33 32 30 30 28 25 24 23 22 20 22 21 19 14 14 19 22 19 18 20 25 25 24
24 25 22 24 22 20 18 18 21 18 16 23 27 32 34 34 35 36 35 34 34 35 34 33 31 28 26 26 26 24 22 21 21 16 16 19 20 20 18 21 24 27 26
25 24 25 22 21 21 21 23 19 21 21 16 15 32 39 37 37 37 36 36 37 38 34 33 31 29 28 28 29 29 24 25 24 20 19 20 21 19 19 20 24 27 27
25 25 23 23 22 23 22 21 24 22 22 20 19 20 20 37 34 36 39 39 39 38 36 35 34 33 32 30 31 30 28 27 26 26 23 20 21 23 23 23 23 24 27
28 27 27 26 27 26 25 26 24 25 26 27 26 24 21 17 30 43 44 40 36 38 35 38 35 36 35 34 32 32 32 30 28 26 26 26 24 25 26 26 26 26 27
29 29 29 28 29 30 28 29 30 27 28 30 31 26 25 26 25 39 42 34 36 35 37 39 34 35 35 34 33 32 33 34 29 29 27 27 28 28 27 27 27 29 28
33 34 33 34 32 32 30 33 30 29 33 34 34 33 28 26 27 26 23 42 33 35 36 39 32 31 30 30 23 23 29 34 34 32 31 31 30 30 29 29 29 29 30
29 31 31 33 34 33 25 27 23 29 23 31 35 32 28 29 28 27 22 21 50 36 35 39 33 26 28 30 19 13 4 11 28 35 36 36 35 33 34 33 31 31 32
29 31 29 29 31 28 28 30 29 31 28 22 26 31 28 28 33 32 30 24 26 43 46 44 40 34 24 30 34 12 3 7 5 18 37 39 37 36 36 36 34 34 35
25 28 28 28 26 25 27 24 23 23 26 28 28 31 34 30 31 34 32 29 23 25 42 42 42 37 34 28 26 41 26 12 4 3 14 36 39 41 41 40 38 37 38
25 25 25 24 24 24 25 25 24 24 25 30 30 29 30 31 29 33 32 30 30 24 25 38 34 31 38 36 31 31 29 17 14 3 3 11 24 36 42 44 42 38 39
26 28 29 29 29 28 28 27 25 26 28 29 29 30 29 28 28 24 28 28 23 27 29 27 37 36 38 42 37 40 36 20 10 5 3 5 13 22 35 44 44 41 39